[[{"header":{"parameterUnit":"m.s-1","parameterCategory":1,"la1":30.6,"la2":28.766,"lo1":-90.7593,"lo2":-88.6598,"dy":0.0162,"dx":0.0183,"nx":116,"ny":114,"refTime":"2024-03-29T18:00:00:Z","depth":0,"parameterNumber":2,"parameterNumberName":"U-component_of_WINDS"},"data":[0.0,0.0,0.0,0.0,0.0,0.0,0.0,0.0,0.0,0.0,0.0,0.0,0.0,0.0,0.0,0.0,0.0,0.0,0.0,0.0,0.0,0.0,0.0,0.0,0.0,0.0,0.0,0.0,0.0,0.0,0.0,0.0,0.0,0.0,0.0,0.0,0.0,0.0,0.0,0.0,0.0,0.0,0.0,0.0,0.0,0.0,0.0,0.0,0.0,0.0,0.0,0.0,0.0,0.0,0.0,0.0,0.0,0.0,0.0,0.0,0.0,0.0,0.0,0.0,0.0,0.0,0.0,0.0,0.0,0.0,0.0,0.0,0.0,0.0,0.0,0.0,0.0,0.0,0.0,0.0,0.0,0.0,0.0,0.0,0.0,0.0,0.0,0.0,0.0,0.0,0.0,0.0,0.0,0.0,0.0,0.0,0.0,0.0,0.0,0.0,0.0,0.0,0.0,0.0,0.0,0.0,0.0,0.0,0.0,0.0,0.0,0.0,0.0,0.0,0.0,0.0,0.0,0.0,0.0,0.0,0.0,0.0,0.0,0.0,0.0,0.0,0.0,0.0,0.0,0.0,0.0,0.0,0.0,0.0,0.0,0.0,0.0,0.0,0.0,0.0,0.0,0.0,0.0,0.0,0.0,0.0,0.0,0.0,0.0,0.0,0.0,0.0,0.0,0.0,0.0,0.0,0.0,0.0,0.0,0.0,0.0,0.0,0.0,0.0,0.0,0.0,0.0,0.0,0.0,0.0,0.0,0.0,0.0,0.0,0.0,0.0,0.0,0.0,0.0,0.0,0.0,0.0,0.0,0.0,0.0,0.0,0.0,0.0,0.0,0.0,0.0,0.0,0.0,0.0,0.0,0.0,0.0,0.0,0.0,0.0,0.0,0.0,0.0,0.0,0.0,0.0,0.0,0.0,0.0,0.0,0.0,0.0,0.0,0.0,0.0,0.0,0.0,0.0,0.0,0.0,0.0,0.0,0.0,0.0,0.0,0.0,0.0,0.0,0.0,0.0,0.0,0.0,0.0,0.0,0.0,0.0,0.0,0.0,0.0,0.0,0.0,0.0,0.0,0.0,0.0,0.0,0.0,0.0,0.0,0.0,0.0,0.0,0.0,0.0,0.0,0.0,0.0,0.0,0.0,0.0,0.0,0.0,0.0,0.0,0.0,0.0,0.0,0.0,0.0,0.0,0.0,0.0,0.0,0.0,0.0,0.0,0.0,0.0,0.0,0.0,0.0,0.0,0.0,0.0,0.0,0.0,0.0,0.0,0.0,0.0,0.0,0.0,0.0,0.0,0.0,0.0,0.0,0.0,0.0,0.0,0.0,0.0,0.0,0.0,0.0,0.0,0.0,0.0,0.0,0.0,0.0,0.0,0.0,0.0,0.0,0.0,0.0,0.0,0.0,0.0,0.0,0.0,0.0,0.0,0.0,0.0,0.0,0.0,0.0,0.0,0.0,0.0,0.0,0.0,0.0,0.0,0.0,0.0,0.0,0.0,0.0,0.0,0.0,0.0,0.0,0.0,0.0,0.0,0.0,0.0,0.0,0.0,0.0,0.0,0.0,0.0,0.0,0.0,0.0,0.0,0.0,0.0,0.0,0.0,0.0,0.0,0.0,0.0,0.0,0.0,0.0,0.0,0.0,0.0,0.0,0.0,0.0,0.0,0.0,0.0,0.0,0.0,0.0,0.0,0.0,0.0,0.0,0.0,0.0,0.0,0.0,0.0,0.0,0.0,0.0,0.0,0.0,0.0,0.0,0.0,0.0,0.0,0.0,0.0,0.0,0.0,0.0,0.0,0.0,0.0,0.0,0.0,0.0,0.0,0.0,0.0,0.0,0.0,0.0,0.0,0.0,0.0,0.0,0.0,0.0,0.0,0.0,0.0,0.0,0.0,0.0,0.0,0.0,0.0,0.0,0.0,0.0,0.0,0.0,0.0,0.0,0.0,0.0,0.0,0.0,0.0,0.0,0.0,0.0,0.0,0.0,0.0,0.0,0.0,0.0,0.0,0.0,0.0,0.0,0.0,0.0,0.0,0.0,0.0,0.0,0.0,0.0,0.0,0.0,0.0,0.0,0.0,0.0,0.0,0.0,0.0,0.0,0.0,0.0,0.0,0.0,0.0,0.0,0.0,0.0,0.0,0.0,0.0,0.0,0.0,0.0,0.0,0.0,0.0,0.0,0.0,0.0,0.0,0.0,0.0,0.0,0.0,0.0,0.0,0.0,0.0,0.0,0.0,0.0,0.0,0.0,0.0,0.0,0.0,0.0,0.0,0.0,0.0,0.0,0.0,0.0,0.0,0.0,0.0,0.0,0.0,0.0,0.0,0.0,0.0,0.0,0.0,0.0,0.0,0.0,0.0,0.0,0.0,0.0,0.0,0.0,0.0,0.0,0.0,0.0,0.0,0.0,0.0,0.0,0.0,0.0,0.0,0.0,0.0,0.0,0.0,0.0,0.0,0.0,0.0,0.0,0.0,0.0,0.0,0.0,0.0,0.0,0.0,0.0,0.0,0.0,0.0,0.0,0.0,0.0,0.0,0.0,0.0,0.0,0.0,0.0,0.0,0.0,0.0,0.0,0.0,0.0,0.0,0.0,0.0,0.0,0.0,0.0,0.0,0.0,0.0,0.0,0.0,0.0,0.0,0.0,0.0,0.0,0.0,0.0,0.0,0.0,0.0,0.0,0.0,0.0,0.0,0.0,0.0,0.0,0.0,0.0,0.0,0.0,0.0,0.0,0.0,0.0,0.0,0.0,0.0,0.0,0.0,0.0,0.0,0.0,0.0,0.0,0.0,0.0,0.0,0.0,0.0,0.0,0.0,0.0,0.0,0.0,0.0,0.0,0.0,0.0,0.0,0.0,0.0,0.0,0.0,0.0,0.0,0.0,0.0,0.0,0.0,0.0,0.0,0.0,0.0,0.0,0.0,0.0,0.0,0.0,0.0,0.0,0.0,0.0,0.0,0.0,0.0,0.0,0.0,0.0,0.0,0.0,0.0,0.0,0.0,0.0,0.0,0.0,0.0,0.0,0.0,0.0,0.0,0.0,0.0,0.0,0.0,0.0,0.0,0.0,0.0,0.0,0.0,0.0,0.0,0.0,0.0,0.0,0.0,0.0,0.0,0.0,0.0,0.0,0.0,0.0,0.0,0.0,0.0,0.0,0.0,0.0,0.0,0.0,0.0,0.0,0.0,0.0,0.0,0.0,0.0,0.0,0.0,0.0,0.0,0.0,0.0,0.0,0.0,0.0,0.0,0.0,0.0,0.0,0.0,0.0,0.0,0.0,0.0,0.0,0.0,0.0,0.0,0.0,0.0,0.0,0.0,0.0,0.0,0.0,0.0,0.0,0.0,0.0,0.0,0.0,0.0,0.0,0.0,0.0,0.0,0.0,0.0,0.0,0.0,0.0,0.0,0.0,0.0,0.0,0.0,0.0,0.0,0.0,0.0,0.0,0.0,0.0,0.0,0.0,0.0,0.0,0.0,0.0,0.0,0.0,0.0,0.0,0.0,0.0,0.0,0.0,0.0,0.0,0.0,0.0,0.0,0.0,0.0,0.0,0.0,0.0,0.0,0.0,0.0,0.0,0.0,0.0,0.0,0.0,0.0,0.0,0.0,0.0,0.0,0.0,0.0,0.0,0.0,0.0,0.0,0.0,0.0,0.0,0.0,0.0,0.0,0.0,0.0,0.0,0.0,0.0,0.0,0.0,0.0,0.0,0.0,0.0,0.0,0.0,0.0,0.0,0.0,0.0,0.0,0.0,0.0,0.0,0.0,0.0,0.0,0.0,0.0,0.0,0.0,0.0,0.0,0.0,0.0,0.0,0.0,0.0,0.0,0.0,0.0,0.0,0.0,0.0,0.0,0.0,0.0,0.0,0.0,0.0,0.0,0.0,0.0,0.0,0.0,0.0,0.0,0.0,0.0,0.0,0.0,0.0,0.0,0.0,0.0,0.0,0.0,0.0,0.0,0.0,0.0,0.0,0.0,0.0,0.0,0.0,0.0,0.0,0.0,0.0,0.0,0.0,0.0,0.0,0.0,0.0,0.0,0.0,0.0,0.0,0.0,0.0,0.0,0.0,0.0,0.0,0.0,0.0,0.0,0.0,0.0,0.0,0.0,0.0,0.0,0.0,0.0,0.0,0.0,0.0,0.0,0.0,0.0,0.0,0.0,0.0,0.0,0.0,0.0,0.0,0.0,0.0,0.0,0.0,0.0,0.0,0.0,0.0,0.0,0.0,0.0,0.0,0.0,0.0,0.0,0.0,0.0,0.0,0.0,0.0,0.0,0.0,0.0,0.0,0.0,0.0,0.0,0.0,0.0,0.0,0.0,0.0,0.0,0.0,0.0,0.0,0.0,0.0,0.0,0.0,0.0,0.0,0.0,0.0,0.0,0.0,0.0,0.0,0.0,0.0,0.0,0.0,0.0,0.0,0.0,0.0,0.0,0.0,0.0,0.0,0.0,0.0,0.0,0.0,0.0,0.0,0.0,0.0,0.0,0.0,0.0,0.0,0.0,0.0,0.0,0.0,0.0,0.0,0.0,0.0,0.0,0.0,0.0,0.0,0.0,0.0,0.0,0.0,0.0,0.0,0.0,0.0,0.0,0.0,0.0,0.0,0.0,0.0,0.0,0.0,0.0,0.0,0.0,0.0,0.0,0.0,0.0,0.0,0.0,0.0,0.0,0.0,0.0,0.0,0.0,0.0,0.0,0.0,0.0,0.0,0.0,0.0,0.0,0.0,0.0,0.0,0.0,0.0,0.0,0.0,0.0,0.0,0.0,0.0,0.0,0.0,0.0,0.0,0.0,0.0,0.0,0.0,0.0,0.0,0.0,0.0,0.0,0.0,0.0,0.0,0.0,0.0,0.0,0.0,0.0,0.0,0.0,0.0,0.0,0.0,0.0,0.0,0.0,0.0,0.0,0.0,0.0,0.0,0.0,0.0,0.0,0.0,0.0,0.0,0.0,0.0,0.0,0.0,0.0,0.0,0.0,0.0,0.0,0.0,0.0,0.0,0.0,0.0,0.0,0.0,0.0,0.0,0.0,0.0,0.0,0.0,0.0,0.0,0.0,0.0,0.0,0.0,0.0,0.0,0.0,0.0,0.0,0.0,0.0,0.0,0.0,0.0,0.0,0.0,0.0,0.0,0.0,0.0,0.0,0.0,0.0,0.0,0.0,0.0,0.0,0.0,0.0,0.0,0.0,0.0,0.0,0.0,0.0,0.0,0.0,0.0,0.0,0.0,0.0,0.0,0.0,0.0,0.0,0.0,0.0,0.0,0.0,0.0,0.0,0.0,0.0,0.0,0.0,0.0,0.0,0.0,0.0,0.0,0.0,0.0,0.0,0.0,0.0,0.0,0.0,0.0,0.0,0.0,0.0,0.0,0.0,0.0,0.0,0.0,0.0,0.0,0.0,0.0,0.0,0.0,0.0,0.0,0.0,0.0,0.0,0.0,0.0,0.0,0.0,0.0,0.0,0.0,0.0,0.0,0.0,0.0,0.0,0.0,0.0,0.0,0.0,0.0,0.0,0.0,0.0,0.0,0.0,0.0,0.0,0.0,0.0,0.0,0.0,0.0,0.0,0.0,0.0,0.0,0.0,0.0,0.0,0.0,0.0,0.0,0.0,0.0,0.0,0.0,0.0,0.0,0.0,0.0,0.0,0.0,0.0,0.0,0.0,0.0,0.0,0.0,0.0,0.0,0.0,0.0,0.0,0.0,0.0,0.0,0.0,0.0,0.0,0.0,0.0,0.0,0.0,0.0,0.0,0.0,0.0,0.0,0.0,0.0,0.0,0.0,0.0,0.0,0.0,0.0,0.0,0.0,0.0,0.0,0.0,0.0,0.0,0.0,0.0,0.0,0.0,0.0,0.0,0.0,0.0,0.0,0.0,0.0,0.0,0.0,0.0,0.0,0.0,0.0,0.0,0.0,0.0,0.0,0.0,0.0,0.0,0.0,0.0,0.0,0.0,0.0,0.0,0.0,0.0,0.0,0.0,0.0,0.0,0.0,0.0,0.0,0.0,0.0,0.0,0.0,0.0,0.0,0.0,0.0,0.0,0.0,0.0,0.0,0.0,0.0,0.0,-3.9712,-3.9928,0.0,0.0,0.0,0.0,0.0,0.0,0.0,0.0,0.0,0.0,0.0,0.0,0.0,0.0,0.0,0.0,0.0,0.0,0.0,0.0,0.0,0.0,0.0,-3.9483,-4.0172,-4.0653,-4.0751,-4.0678,-4.0339,0.0,0.0,0.0,0.0,0.0,-3.6214,-3.5608,-3.5195,-3.4951,-3.4921,-3.4818,-3.472,-3.6538,-3.7904,-3.8883,0.0,0.0,0.0,0.0,0.0,0.0,0.0,0.0,0.0,0.0,0.0,0.0,0.0,0.0,0.0,0.0,0.0,0.0,0.0,0.0,0.0,0.0,0.0,0.0,0.0,0.0,0.0,0.0,0.0,0.0,0.0,0.0,0.0,0.0,0.0,0.0,0.0,0.0,0.0,0.0,0.0,0.0,0.0,0.0,0.0,0.0,0.0,0.0,0.0,0.0,0.0,0.0,0.0,0.0,0.0,0.0,0.0,0.0,0.0,0.0,0.0,0.0,0.0,0.0,0.0,0.0,0.0,0.0,0.0,0.0,-3.9316,-3.9287,0.0,0.0,0.0,0.0,0.0,0.0,0.0,0.0,0.0,0.0,0.0,0.0,0.0,0.0,0.0,0.0,0.0,0.0,0.0,0.0,0.0,-3.6894,-3.7579,-3.8541,-3.9478,-4.0308,-4.0584,-4.0407,-3.968,-3.9529,0.0,0.0,-3.6555,-3.5807,-3.463,-3.3727,-3.3238,-3.3173,-3.2282,-3.2345,-3.333,-3.4203,-3.5325,-3.6695,-3.8115,0.0,0.0,0.0,0.0,0.0,0.0,0.0,0.0,0.0,0.0,0.0,0.0,0.0,0.0,0.0,0.0,0.0,0.0,0.0,0.0,0.0,0.0,0.0,0.0,0.0,0.0,0.0,0.0,0.0,0.0,0.0,0.0,0.0,0.0,0.0,0.0,0.0,0.0,0.0,0.0,0.0,0.0,0.0,0.0,0.0,0.0,0.0,0.0,0.0,0.0,0.0,0.0,0.0,0.0,0.0,0.0,0.0,0.0,0.0,0.0,0.0,0.0,0.0,-3.9693,-3.972,-3.9116,-3.9494,-3.9469,-3.9101,-3.8726,-3.8564,-3.8631,-3.9357,0.0,0.0,0.0,0.0,0.0,0.0,0.0,0.0,0.0,0.0,0.0,0.0,0.0,0.0,0.0,0.0,0.0,0.0,0.0,-3.6485,-3.658,-3.7993,-3.8986,-3.9127,-4.0097,-4.0339,-3.9496,-3.8844,-3.7971,-3.6851,-3.5676,-3.4642,-3.3784,-3.2849,-3.1951,-3.1089,-3.0116,-3.0077,-3.0971,-3.1545,-3.2171,-3.2922,-3.5129,0.0,0.0,0.0,0.0,0.0,0.0,0.0,0.0,0.0,0.0,0.0,0.0,0.0,0.0,0.0,0.0,0.0,0.0,0.0,0.0,0.0,0.0,0.0,0.0,0.0,0.0,0.0,0.0,0.0,0.0,0.0,0.0,0.0,0.0,0.0,0.0,0.0,0.0,0.0,0.0,0.0,0.0,0.0,-3.8141,-3.8916,0.0,0.0,0.0,0.0,0.0,0.0,0.0,0.0,0.0,0.0,0.0,0.0,0.0,-3.8506,-3.761,-3.8825,-3.8952,-3.8007,-3.8727,-3.8699,-3.8001,-3.7437,-3.7484,-3.7967,-3.7413,0.0,-3.9189,-3.8292,0.0,0.0,0.0,0.0,0.0,0.0,0.0,0.0,0.0,0.0,0.0,0.0,0.0,0.0,0.0,0.0,0.0,0.0,0.0,0.0,0.0,-3.6726,-3.7393,-3.7947,-3.8904,-3.9039,-3.8009,-3.7983,-3.7392,-3.6019,-3.5136,-3.4172,-3.3067,-3.2225,-3.1,-2.9336,-2.9053,-2.908,-2.9392,-3.0017,-3.0386,-3.0651,-3.2439,-3.4546,-3.6768,-3.6562,0.0,0.0,0.0,0.0,0.0,0.0,0.0,0.0,0.0,0.0,0.0,0.0,0.0,0.0,0.0,0.0,0.0,0.0,0.0,0.0,0.0,0.0,0.0,0.0,0.0,0.0,0.0,0.0,0.0,0.0,0.0,0.0,0.0,0.0,0.0,0.0,0.0,0.0,0.0,-3.7875,-3.8243,-3.8512,-3.876,-3.8576,0.0,0.0,0.0,0.0,0.0,0.0,0.0,0.0,0.0,-3.7974,-3.8484,-3.8531,-3.8007,-3.8932,-3.8976,-3.8148,-3.8847,-3.8669,-3.7677,-3.7801,-3.7869,-3.7866,-3.6857,-3.7062,-3.8063,-3.7497,-3.7817,-3.8564,0.0,0.0,0.0,0.0,-3.7325,-3.7147,0.0,0.0,0.0,0.0,0.0,0.0,0.0,0.0,0.0,0.0,0.0,0.0,-3.5593,-3.585,-3.6362,-3.7324,-3.8058,-3.8023,-3.6952,-3.7168,-3.6679,-3.513,-3.4513,-3.3603,-3.2317,-3.1003,-2.9507,-2.7805,-2.7821,-2.7827,-2.7858,-2.8515,-2.8872,-2.902,-3.0351,-3.2426,-3.4974,-3.5161,-3.6024,0.0,0.0,0.0,0.0,0.0,0.0,0.0,0.0,0.0,0.0,0.0,0.0,0.0,0.0,0.0,0.0,0.0,0.0,0.0,0.0,0.0,0.0,0.0,0.0,0.0,0.0,0.0,0.0,0.0,0.0,0.0,0.0,0.0,0.0,0.0,0.0,0.0,0.0,-3.7803,-3.8048,-3.7698,-3.8527,-3.8613,0.0,0.0,0.0,0.0,0.0,0.0,-3.867,-3.8477,-3.8228,-3.7931,-3.8349,-3.8497,-3.8387,-3.8511,-3.8449,-3.8153,-3.8341,-3.7966,-3.7087,-3.7726,-3.7903,-3.7652,-3.6317,-3.629,-3.7101,-3.6478,-3.6755,-3.7447,-3.635,-3.62,-3.6534,-3.6042,-3.5821,-3.5677,0.0,0.0,0.0,0.0,0.0,0.0,0.0,0.0,0.0,0.0,0.0,-3.4765,-3.518,-3.5964,-3.6793,-3.7608,-3.8124,-3.8034,-3.713,-3.6521,-3.5657,-3.4505,-3.3582,-3.2581,-3.1477,-2.8636,-2.6932,-2.6502,-2.581,-2.5674,-2.6055,-2.6714,-2.7293,-2.7854,-2.9114,-3.1424,-3.4352,-3.4227,-3.5425,-3.7344,0.0,0.0,0.0,0.0,0.0,0.0,0.0,0.0,0.0,0.0,0.0,0.0,0.0,0.0,0.0,0.0,0.0,0.0,0.0,0.0,0.0,0.0,0.0,0.0,0.0,0.0,0.0,0.0,0.0,0.0,0.0,0.0,0.0,0.0,0.0,0.0,0.0,0.0,0.0,-3.6301,-3.8018,0.0,0.0,0.0,0.0,-3.7947,-3.7943,-3.8196,-3.8771,-3.8645,-3.8571,-3.8567,-3.8467,-3.8409,-3.8412,-3.7207,-3.6907,-3.7447,-3.6398,-3.5795,-3.5619,-3.5972,-3.6445,-3.6873,-3.56,-3.5904,-3.7118,-3.5001,-3.459,-3.5189,-3.4447,-3.4244,-3.4421,-3.4063,-3.3972,-3.3989,0.0,0.0,0.0,0.0,0.0,-3.5836,-3.5841,-3.5593,-3.5304,-3.5051,-3.4465,-3.4309,-3.489,-3.4943,-3.5377,-3.645,-3.6726,-3.6599,-3.5967,-3.563,-3.5156,-3.448,-3.3517,-3.1907,-2.9572,-2.7018,-2.5561,-2.5315,-2.5044,-2.5117,-2.5522,-2.5777,-2.6124,-2.662,-2.8226,-2.9578,-3.0711,-3.1797,-3.3143,-3.4516,-3.3803,-3.4554,0.0,0.0,0.0,0.0,0.0,0.0,0.0,0.0,0.0,0.0,0.0,0.0,0.0,0.0,0.0,0.0,0.0,0.0,0.0,0.0,0.0,0.0,0.0,0.0,0.0,0.0,0.0,0.0,0.0,0.0,0.0,0.0,0.0,0.0,0.0,0.0,0.0,-3.7668,-3.8539,0.0,-3.7543,-3.7918,-3.8259,-3.8264,-3.8622,-3.895,-3.9311,-3.919,-3.9101,-3.9117,-3.864,-3.8381,-3.8392,-3.7524,-3.6985,-3.6806,-3.6409,-3.5959,-3.5504,-3.5861,-3.6116,-3.6259,-3.5156,-3.4917,-3.5183,-3.3611,-3.3821,-3.4991,-3.3922,-3.3684,-3.3905,-3.3453,-3.3182,-3.2997,0.0,0.0,0.0,0.0,-3.5826,-3.5694,-3.541,-3.5414,-3.5147,-3.4208,-3.4242,-3.443,-3.4677,-3.4839,-3.5343,-3.6419,-3.616,-3.5806,-3.5491,-3.4752,-3.4203,-3.3913,-3.2335,-3.034,-2.7906,-2.5532,-2.4353,-2.4548,-2.3966,-2.4115,-2.4933,-2.4779,-2.5028,-2.5653,-2.7232,-2.8033,-2.8323,-2.9853,-3.1237,-3.2372,-3.2179,-3.3075,-3.4445,0.0,0.0,0.0,0.0,0.0,0.0,0.0,0.0,0.0,0.0,0.0,0.0,0.0,0.0,0.0,0.0,0.0,0.0,0.0,0.0,0.0,0.0,0.0,0.0,0.0,0.0,0.0,0.0,0.0,0.0,0.0,0.0,0.0,0.0,-3.7593,-3.8028,-3.7779,-3.8227,-3.8325,-3.7794,-3.7861,-3.8131,-3.8583,-3.8981,-3.9291,-3.9409,-3.939,-3.9388,-3.9388,-3.8542,-3.8167,-3.8392,-3.7315,-3.6671,-3.6492,-3.6304,-3.5974,-3.5504,-3.5878,-3.6037,-3.5944,-3.511,-3.4571,-3.4205,-3.3128,-3.3271,-3.4096,-3.3228,-3.2986,-3.313,-3.2749,-3.2437,-3.2176,0.0,0.0,0.0,-3.5811,-3.5779,-3.5488,-3.4637,-3.5093,-3.479,-3.2629,-3.412,-3.5179,-3.4616,-3.5723,-3.6826,-3.7632,-3.6537,-3.5789,-3.5774,-3.3903,-3.2737,-3.2645,-2.996,-2.7881,-2.6638,-2.416,-2.333,-2.4152,-2.2531,-2.2542,-2.4152,-2.3751,-2.4057,-2.5016,-2.6049,-2.6851,-2.7458,-2.8564,-2.9805,-3.1134,-3.1872,-3.2143,-3.221,0.0,0.0,0.0,0.0,0.0,0.0,0.0,0.0,0.0,0.0,0.0,0.0,0.0,0.0,0.0,0.0,0.0,0.0,0.0,0.0,0.0,0.0,0.0,0.0,0.0,0.0,0.0,0.0,0.0,0.0,0.0,0.0,0.0,-3.5608,-3.6932,-3.7506,-3.6432,-3.7012,-3.7598,-3.7948,-3.767,-3.7843,-3.8708,-3.898,-3.9104,-3.9104,-3.9301,-3.9388,-3.9388,-3.8138,-3.7734,-3.8347,-3.6477,-3.5848,-3.6447,-3.5954,-3.5621,-3.5504,-3.5973,-3.6116,-3.5975,-3.5415,-3.491,-3.4414,-3.3546,-3.2885,-3.2398,-3.2274,-3.2107,-3.1996,-3.1841,-3.1655,-3.1466,0.0,0.0,-3.5887,-3.5886,-3.5356,-3.4834,-3.4548,-3.4589,-3.4289,-3.329,-3.4339,-3.5295,-3.5634,-3.6222,-3.6944,-3.7843,-3.652,-3.547,-3.503,-3.3386,-3.2053,-3.122,-2.9209,-2.7683,-2.6765,-2.441,-2.3258,-2.3335,-2.2275,-2.2312,-2.3335,-2.2927,-2.3176,-2.4007,-2.4382,-2.4817,-2.5333,-2.6431,-2.7329,-2.8074,-2.8983,-2.991,-3.0763,0.0,0.0,0.0,0.0,0.0,0.0,0.0,0.0,0.0,0.0,0.0,0.0,0.0,0.0,0.0,0.0,0.0,0.0,0.0,0.0,0.0,0.0,0.0,0.0,0.0,0.0,0.0,0.0,0.0,0.0,0.0,-3.4141,-3.4524,-3.6101,-3.7071,-3.7453,-3.7008,-3.7021,-3.7161,-3.7395,-3.7195,-3.7477,-3.8516,-3.876,-3.8943,-3.9104,-3.9301,-3.9388,-3.9388,-3.8571,-3.7973,-3.7689,-3.6701,-3.6073,-3.5774,-3.5612,-3.5522,-3.5504,-3.5893,-3.6037,-3.5944,-3.5064,-3.4615,-3.4412,-3.3139,-3.2539,-3.2398,-3.237,-3.2274,-3.2122,-3.1996,-3.1453,-3.0763,0.0,-3.537,-3.5243,-3.4871,-3.4389,-3.392,-3.3514,-3.3977,-3.3975,-3.2849,-3.4661,-3.6054,-3.5986,-3.6578,-3.7054,-3.7268,-3.5942,-3.4598,-3.3439,-3.1914,-3.0732,-2.9993,0.0,-2.7598,-2.6516,-2.4953,-2.4093,-2.3961,-2.2908,-2.2809,-2.3559,-2.2953,-2.2889,-2.3394,-2.3984,-2.439,-2.4692,-2.6145,-2.6736,-2.6685,-2.7478,-2.8363,-2.9179,-2.918,-2.9808,-3.0741,-3.1529,-3.2542,-3.3547,-3.3962,0.0,0.0,0.0,0.0,0.0,0.0,0.0,0.0,0.0,0.0,0.0,0.0,0.0,0.0,0.0,0.0,0.0,0.0,0.0,0.0,0.0,0.0,0.0,0.0,-3.3585,-3.415,-3.5597,-3.6325,-3.6805,-3.706,-3.6367,-3.6312,-3.7508,-3.6945,-3.7039,-3.8404,-3.876,-3.898,-3.9104,-3.9301,-3.9388,-3.9388,-3.8751,-3.8078,-3.7419,-3.7045,-3.6402,-3.5504,-3.5789,-3.5774,-3.5504,-3.575,-3.5926,-3.5944,-3.5125,-3.4662,-3.4412,-3.3275,-3.2644,-3.2398,0.0,0.0,0.0,0.0,-3.1232,-3.0507,0.0,-3.4645,-3.4333,-3.3448,-3.3216,-3.2898,-3.2127,-3.3336,-3.3684,-3.184,-3.4932,-3.6901,-3.5821,-3.6777,-3.7182,-3.6409,-3.5192,-3.3633,-3.1625,-3.0224,-2.9412,-2.9261,-2.8723,-2.7832,-2.6573,-2.5897,-2.5585,-2.5578,-2.4143,-2.3814,-2.4576,-2.3596,-2.3139,-2.3235,-2.4391,-2.4955,-2.5108,-2.6876,-2.7177,-2.6567,-2.7036,-2.7377,-2.7596,-2.7651,-2.8347,-2.934,-2.9649,-3.0817,-3.2208,-3.2467,0.0,0.0,0.0,0.0,0.0,0.0,0.0,0.0,0.0,0.0,0.0,0.0,0.0,0.0,0.0,0.0,0.0,0.0,0.0,0.0,0.0,0.0,0.0,0.0,-3.32,-3.397,-3.4445,-3.4996,-3.567,-3.6552,-3.5352,-3.5314,-3.7615,-3.6704,-3.6621,-3.8277,-3.8833,-3.9104,-3.9104,-3.9301,0.0,0.0,0.0,-3.8182,-3.7524,-3.7524,-3.6881,-3.5624,-3.6207,-3.6148,-3.5504,-3.5638,-3.5831,-3.5975,-3.5431,-3.4926,-3.4443,-3.369,-3.2998,-3.2398,-3.2398,-3.2219,-3.1968,-3.1655,-3.1046,-3.0402,0.0,-3.4685,-3.4392,-3.3452,-3.2714,-3.2183,-3.2036,-3.2834,-3.3006,-3.1763,-3.4567,-3.6274,-3.5191,-3.6489,-3.7205,-3.6677,-3.561,-3.3974,-3.1636,-3.0929,-3.0483,-3.0247,-2.9922,-2.9554,-2.9189,-2.7839,-2.719,-2.7321,-2.5637,-2.5106,-2.5656,-2.4446,-2.4059,-2.4396,-2.4897,-2.5326,-2.5682,-2.6662,-2.7175,-2.736,-2.7346,-2.6921,-2.6321,-2.6792,-2.6875,-2.698,-2.8871,-2.9804,-3.0381,-3.1868,-3.3272,-3.4422,-3.4706,0.0,0.0,0.0,0.0,0.0,0.0,0.0,0.0,0.0,0.0,0.0,0.0,0.0,0.0,0.0,0.0,0.0,0.0,0.0,0.0,-3.2675,-3.2656,-3.2727,-3.3314,-3.3492,-3.3962,-3.4986,-3.4824,-3.4921,-3.5547,-3.6005,-3.6649,-3.7682,-3.8612,-3.9104,-3.9104,-3.9301,-3.9388,-3.9388,-3.9254,-3.8886,-3.8197,-3.8197,-3.7569,-3.6297,-3.6432,0.0,-3.5504,-3.5638,-3.5831,-3.5975,-3.5431,-3.4926,-3.4443,-3.369,-3.2998,-3.2398,-3.2274,-3.215,-3.1968,-3.1813,-3.0904,-2.9786,0.0,-3.4022,-3.3725,-3.2855,-3.1952,-3.1351,-3.1342,-3.2404,-3.3015,-3.2474,-3.4903,-3.6495,-3.5952,-3.6168,-3.6089,-3.5448,-3.3556,-3.2208,-3.1776,-3.0994,-3.0731,-3.1131,-3.1099,-3.0825,-3.037,-3.0061,-2.9553,-2.885,-2.7786,-2.7109,-2.678,-2.5886,-2.5632,-2.5915,-2.6468,-2.7082,-2.7815,-2.8853,-2.9261,-2.926,-2.9283,-2.8588,-2.7533,-2.7345,-2.7382,-2.7715,-2.9113,-2.9905,-3.0493,-3.1828,-3.3009,-3.4044,-3.4464,-3.5046,-3.5497,0.0,0.0,0.0,0.0,0.0,0.0,0.0,0.0,0.0,0.0,0.0,0.0,0.0,0.0,-3.1473,-3.094,0.0,-3.1824,-3.2439,-3.2586,-3.2754,-3.3074,-3.3124,-3.3356,-3.4092,-3.4092,-3.4496,-3.5709,-3.5816,-3.636,-3.7644,-3.83,-3.8649,-3.8649,-3.9119,-3.9388,-3.9388,-3.9388,-3.9095,-3.8407,-3.8736,-3.8093,-3.6492,-3.6806,-3.6447,-3.5504,-3.5572,-3.5765,-3.5944,-3.4973,-3.4544,-3.4428,-3.3336,-3.269,-3.2398,-3.2247,-3.2122,-3.1996,-3.1841,-3.1067,-3.0043,0.0,-3.373,-3.3212,-3.2055,-3.1217,-3.0707,-3.0703,-3.1976,-3.2954,-3.294,-3.4977,-3.6404,-3.641,-3.5785,-3.5006,-3.4075,-3.1788,-3.088,-3.2019,-3.1375,-3.1351,-3.2287,-3.2505,-3.2297,-3.1606,-3.2164,-3.1878,-3.0646,-3.0084,-2.9341,-2.8361,-2.7799,-2.7622,-2.7843,-2.8595,-2.9503,-3.0529,-3.185,-3.2234,-3.1972,-3.215,-3.1579,-3.0507,-2.954,-2.9149,-2.9156,-2.9846,-3.0454,-3.1069,-3.2055,-3.2873,-3.3595,-3.4317,-3.497,-3.5405,-3.4837,-3.5047,0.0,0.0,0.0,0.0,0.0,0.0,0.0,0.0,0.0,-3.0201,-3.0023,-3.0493,-3.079,-3.0525,-3.1312,-3.2107,-3.2528,-3.3064,-3.3411,-3.3556,-3.3641,-3.3797,-3.4163,-3.3755,-3.4163,-3.5976,-3.5682,-3.5949,-3.7376,-3.7758,-3.8037,-3.8202,-3.8649,-3.9068,-3.9388,-3.9068,-3.8801,-3.8601,-3.8996,-3.834,-3.6671,-3.7165,-3.6746,-3.5504,-3.5504,-3.5683,-3.5929,-3.4592,-3.4193,-3.4397,-3.2967,-3.2398,-3.2398,-3.2247,-3.2122,-3.1996,-3.1841,-3.1172,-3.0328,0.0,-3.5073,-3.3788,-3.1372,-3.0808,-3.07,-3.0691,-3.148,-3.2057,-3.2043,-3.3587,-3.4689,-3.4671,-3.5262,-3.511,-3.3765,-3.3187,-3.277,-3.246,-3.3147,-3.3768,-3.4177,-3.4536,-3.4672,-3.4449,-3.3833,-3.3451,-3.3264,-3.228,-3.1578,-3.1142,-3.044,-3.019,-3.0426,-3.1164,-3.2117,-3.3232,-3.4394,-3.5245,-3.5789,-3.5873,-3.5817,-3.5582,-3.4509,-3.1976,-2.9221,-3.0824,-3.1069,-3.09,-3.2534,-3.3218,-3.3554,-3.4343,-3.4686,-3.4727,-3.4389,0.0,-3.4062,-3.3472,-3.2826,-3.2412,-3.2887,-3.0905,-2.9302,0.0,0.0,-2.8143,-2.8251,-2.9388,-3.0323,-3.0126,-3.1227,-3.2596,-3.3952,-3.4191,-3.4496,-3.5224,-3.5453,-3.5709,-3.5976,-3.4607,-3.3924,-3.4592,-3.5264,-3.5749,-3.595,-3.6635,-3.7372,-3.8165,-3.7539,-3.7866,-3.9337,-3.7956,-3.7875,-3.9269,-3.8657,-3.7995,-3.73,-3.7375,-3.6746,-3.5504,-3.5504,-3.5683,-3.5929,-3.4895,-3.4475,-3.4397,-3.2967,-3.2398,-3.2398,-3.2247,-3.2122,-3.1996,-3.1841,-3.0902,-2.9711,0.0,0.0,-3.4178,-3.2545,-3.2239,-3.2035,-3.1536,-3.2571,-3.3234,-3.2718,-3.4114,-3.5151,-3.5165,-3.5025,-3.4267,-3.257,-3.2968,-3.3186,-3.2925,-3.3863,-3.471,-3.5395,-3.5589,-3.5669,-3.565,-3.5194,-3.4815,-3.4464,-3.3802,-3.3216,-3.2712,-3.2823,-3.3127,-3.3556,-3.4314,-3.5366,-3.6606,-3.7083,-3.7774,-3.8534,-3.8348,-3.8123,-3.7922,-3.7494,-3.5573,-3.3025,-3.2224,-3.2121,0.0,0.0,-3.3144,-3.3876,-3.3945,-3.4019,-3.4045,-3.362,-3.3529,0.0,-3.2671,-3.1767,-3.0924,-3.0568,-2.9386,-2.851,-2.9391,-2.8559,-2.769,-2.7904,-2.911,-3.0133,-3.0138,-3.1266,-3.2684,0.0,-3.4397,-3.4703,-3.5655,-3.5855,-3.6055,-3.6425,-3.5829,-3.5507,-3.5829,-3.5776,-3.5709,-3.5709,-3.6002,-3.636,-3.6741,-3.6855,-3.7242,-3.7919,-3.7281,-3.7242,-3.7956,-3.7615,-3.7209,-3.6681,-3.6681,-3.6276,-3.5504,-3.5504,-3.5473,-3.5367,-3.4772,-3.4274,-3.3767,-3.2798,-3.2398,-3.2398,-3.2342,-3.2247,-3.2094,-3.1968,-3.1494,-3.09,0.0,0.0,0.0,-3.4147,-3.4023,-3.3556,-3.222,-3.3215,-3.3902,-3.3281,-3.4462,-3.5456,-3.5694,-3.5151,-3.4005,-3.2141,-3.3077,-3.3686,-3.3493,-3.4527,-3.5599,-3.6614,-3.6856,-3.7006,-3.704,-3.7079,-3.6845,-3.6346,-3.6067,-3.5645,-3.5051,-3.5555,-3.6081,-3.6636,-3.7127,-3.8128,-3.9375,-3.9508,-4.0119,-4.0999,-4.0798,-4.0579,-4.0359,-3.9921,-3.8597,-3.6693,-3.4286,-3.3538,0.0,0.0,-3.3198,-3.3955,-3.3486,-3.3547,-3.3638,-3.3069,-3.2795,-3.2521,-3.1928,-3.0912,-2.9837,-2.8882,-2.8374,-2.8036,-2.7962,-2.7578,-2.7327,-2.7688,-2.899,-3.0095,-3.0167,-3.1431,-3.2916,-3.4236,-3.4675,-3.5169,-3.6227,-3.6607,-3.6919,-3.7242,-3.7357,-3.7357,-3.7256,-3.632,-3.5709,-3.5709,-3.5642,-3.5749,-3.6016,-3.632,-3.6621,-3.688,-3.6464,-3.6425,-3.688,-3.6699,-3.6352,-3.5899,-3.6114,-3.5848,-3.5166,-3.5442,-3.5461,-3.5307,-3.488,-3.4323,-3.3644,-3.2952,-3.2567,-3.2398,-3.237,-3.2302,-3.2191,-3.2094,-3.1847,-3.1598,0.0,0.0,0.0,0.0,-3.5815,-3.4954,-3.2382,-3.2711,-3.3222,-3.3203,-3.3981,-3.4868,-3.571,-3.5712,-3.4928,-3.3127,-3.4183,-3.4726,-3.4195,-3.5477,-3.6795,-3.7995,-3.8791,-3.9207,-3.9207,-3.9752,-3.9948,-3.9746,-3.9609,-3.9337,-3.8945,-3.8891,-3.9051,-3.9372,-3.9323,-3.9939,-4.106,-4.1505,-4.2318,-4.3323,-4.3643,-4.3847,-4.3744,-4.1999,-4.0491,-3.9049,-3.7227,0.0,0.0,0.0,-3.3587,-3.3547,-3.3134,-3.3422,0.0,-3.2925,-3.2005,-3.1235,-3.1141,-3.0287,-2.9269,-2.8662,-2.7953,-2.7415,-2.7256,-2.6921,-2.678,-2.7232,-2.8866,-3.0181,-3.0204,-3.1789,-3.3428,-3.4509,-3.5359,-3.6267,-3.74,-3.8412,-3.9017,-3.9017,-3.9177,-3.8995,-3.824,-3.6663,-3.5709,-3.5709,-3.5535,-3.5843,-3.6802,-3.595,-3.5884,-3.688,-3.5332,-3.5251,-3.688,-3.6122,-3.5531,-3.5133,-3.5863,-3.554,-3.438,-3.527,-3.5864,-3.6134,-3.5462,-3.4925,-3.4412,-3.366,-3.2982,-3.2398,-3.2274,-3.2191,-3.2191,-3.2206,-3.171,-3.0998,0.0,0.0,0.0,0.0,0.0,-3.5383,-3.3883,-3.4373,-3.4524,-3.3417,-3.4482,0.0,0.0,0.0,0.0,0.0,-3.387,-3.4178,-3.3828,-3.5114,-3.6441,-3.7636,-3.898,-3.9792,-4.003,-4.0453,-4.0721,-4.0832,-4.0482,-4.0149,-3.9833,-4.0488,-4.0759,-4.0733,-4.1374,-4.1938,-4.2449,-4.2596,-4.3194,-4.4069,-4.418,-4.4337,-4.4355,-4.3074,-4.1222,-3.9069,0.0,0.0,0.0,0.0,0.0,0.0,-3.245,-3.194,-3.1149,-3.0947,-3.094,-3.0869,-3.0265,-2.9832,-2.9404,-2.8963,-2.8221,-2.7711,-2.8082,-2.7601,-2.7413,-2.8707,-2.919,-2.9657,-3.0446,-3.1228,-3.2256,-3.3741,-3.4955,-3.6361,-3.8182,-3.9059,-3.9598,-3.9928,-4.0031,0.0,-3.8321,-3.7682,-3.7053,-3.6334,-3.6373,-3.6255,-3.5924,-3.5723,-3.5467,-3.5251,-3.4703,-3.4675,-3.5251,-3.4991,-3.4647,-3.4221,-3.4846,-3.5154,-3.5237,-3.5784,-3.6101,-3.6165,-3.5631,-3.5323,-3.5121,-3.4428,-3.369,-3.3059,-3.3018,-3.2714,-3.2342,-3.2342,-3.2149,-3.1922,0.0,0.0,0.0,0.0,0.0,0.0,0.0,0.0,0.0,0.0,0.0,0.0,0.0,0.0,0.0,0.0,0.0,-3.4482,-3.4224,-3.5322,-3.6426,-3.7418,-3.8725,-3.9537,-3.9752,-4.0256,-4.0737,-4.1223,-4.1212,-4.1285,-4.1467,-4.2366,-4.2686,-4.2582,-4.3206,-4.3516,-4.3545,-4.3325,-4.3397,-4.3693,-4.3793,-4.3755,-4.3547,-4.2872,-4.1247,0.0,0.0,0.0,0.0,0.0,0.0,0.0,-3.1699,-3.1201,-3.0482,-3.0511,-3.0709,-3.0754,-3.0225,-2.9899,-2.9661,-2.9464,-2.908,-2.8817,-2.9116,-2.8833,-2.888,-3.0026,-3.0121,-3.0191,-3.0813,-3.1289,-3.1876,-3.2812,-3.4047,-3.5534,-3.7496,-3.8115,-3.8789,-3.9793,-3.9713,-3.9343,0.0,0.0,-3.7924,-3.7208,-3.6947,-3.6557,-3.5964,-3.5723,-3.525,-3.4439,-3.4397,-3.4397,-3.4397,-3.4397,-3.4365,-3.4321,-3.4382,-3.4942,-3.5879,-3.6053,-3.6179,-3.629,-3.5922,-3.5661,-3.5475,-3.5044,-3.4275,-3.3398,-3.3398,-3.2982,-3.2398,-3.2398,-3.2398,-3.2398,0.0,0.0,0.0,0.0,0.0,0.0,0.0,0.0,0.0,0.0,0.0,0.0,0.0,0.0,0.0,0.0,0.0,0.0,-3.5278,0.0,0.0,-3.7329,-3.8174,-3.862,-3.862,-3.9407,-4.0254,-4.114,-4.1895,-4.2742,-4.3653,-4.4296,-4.4633,-4.4687,-4.4633,-4.448,-4.4263,-4.3696,-4.3046,-4.2438,-4.2709,-4.2387,-4.1764,-4.1662,0.0,0.0,0.0,0.0,0.0,0.0,0.0,0.0,-3.0956,-3.1182,-3.1627,-3.1469,-3.1142,-3.0837,-3.0943,-3.049,-3.0021,-3.0117,-3.0448,-3.0661,-3.0174,-3.0516,-3.0978,-3.1192,-3.1559,-3.1705,0.0,0.0,-3.2226,-3.1822,-3.2838,-3.4121,-3.5547,-3.5997,-3.684,0.0,0.0,0.0,0.0,0.0,-3.8113,-3.8113,-3.7208,-3.6713,-3.6933,-3.595,-3.51,-3.4481,-3.4439,-3.4397,-3.4397,-3.4345,-3.4607,-3.5187,-3.4452,-3.481,-3.6211,-3.6068,-3.6195,-3.6492,-3.6305,-3.5922,-3.5506,-3.5552,-3.4691,-3.3398,-3.3444,-3.3013,-3.2398,-3.2398,-3.2398,-3.237,0.0,0.0,0.0,0.0,0.0,0.0,0.0,0.0,0.0,0.0,0.0,0.0,0.0,0.0,0.0,0.0,0.0,0.0,0.0,0.0,0.0,0.0,0.0,0.0,0.0,0.0,0.0,-4.1464,-4.1674,-4.2135,-4.2808,-4.3178,-4.3264,-4.3092,-4.3273,-4.3224,-4.2957,-4.2832,-4.2756,-4.2778,0.0,-4.2816,-4.2676,0.0,0.0,0.0,0.0,0.0,0.0,0.0,0.0,0.0,-3.0879,-3.0776,-3.1055,-3.0707,-3.0685,-3.0729,-3.0404,-3.0792,-3.1216,-3.0745,-3.1158,-3.1612,-3.131,-3.1911,-3.2647,-3.3041,-3.2731,-3.2187,0.0,0.0,0.0,-3.1408,-3.3036,0.0,-3.6238,-3.6839,0.0,-3.8102,0.0,-3.7859,-3.7567,-3.7357,-3.7242,-3.7242,-3.6972,-3.7063,-3.763,-3.6348,-3.5561,-3.5386,-3.4758,-3.4397,-3.4397,-3.3548,-3.3841,-3.5187,-3.4249,-3.4633,-3.6196,-3.632,-3.6429,-3.6492,-3.646,-3.6061,-3.5552,-3.603,-3.5122,-3.346,-3.3983,-3.3488,-3.2398,-3.2398,-3.2398,-3.2398,0.0,0.0,0.0,0.0,0.0,0.0,0.0,0.0,0.0,0.0,0.0,0.0,0.0,0.0,0.0,0.0,0.0,0.0,0.0,0.0,0.0,0.0,0.0,0.0,0.0,0.0,0.0,0.0,0.0,0.0,-4.1761,-4.268,-4.3046,-4.2893,-4.3054,-4.2988,-4.2799,-4.2456,0.0,0.0,0.0,0.0,0.0,0.0,0.0,0.0,0.0,0.0,0.0,0.0,0.0,-3.1855,-3.0957,-3.0948,-3.113,-3.0564,0.0,-3.1211,-3.0933,-3.1579,-3.2246,-3.1944,-3.264,-3.3285,-3.2867,-3.3596,-3.437,-3.4375,-3.3789,0.0,-3.2099,-3.2084,-3.1975,0.0,0.0,0.0,-3.5209,-3.5508,-3.5976,0.0,-3.7011,0.0,-3.6922,-3.6582,-3.6503,-3.688,-3.6582,-3.6557,-3.6922,-3.579,-3.5114,-3.5114,-3.4675,-3.4397,-3.4397,-3.3621,-3.3829,-3.498,-3.4473,-3.4647,-3.5385,-3.6148,-3.6289,-3.5896,-3.632,-3.6276,-3.5984,-3.6338,-3.563,-3.4321,-3.4459,-3.3827,-3.2798,-3.2505,-3.2398,-3.2398,0.0,0.0,0.0,0.0,0.0,0.0,0.0,0.0,0.0,0.0,-3.6077,0.0,0.0,0.0,0.0,0.0,0.0,0.0,0.0,0.0,0.0,0.0,0.0,0.0,0.0,0.0,0.0,0.0,0.0,0.0,0.0,0.0,0.0,0.0,0.0,0.0,0.0,0.0,0.0,0.0,0.0,0.0,0.0,0.0,0.0,0.0,0.0,0.0,0.0,0.0,-3.3413,-3.1698,-3.1455,-3.1617,-3.1756,-3.1052,-3.1379,-3.1979,-3.201,-3.2497,-3.308,-3.3283,-3.4309,-3.5068,-3.4494,-3.5285,-3.5988,-3.5347,0.0,-3.4008,-3.2874,-3.274,-3.2483,-3.1387,0.0,-3.2513,-3.3601,-3.3482,-3.3949,-3.5742,-3.5655,-3.5776,-3.6503,-3.5923,-3.5816,-3.6543,-3.5923,-3.5615,-3.5856,-3.495,-3.4397,-3.4397,-3.4439,-3.4481,-3.4481,-3.4178,-3.4268,-3.4785,-3.4761,-3.4616,-3.4413,-3.5705,-3.5911,-3.5222,-3.6116,-3.6445,-3.6368,-3.6445,-3.6045,-3.5321,-3.4736,-3.4058,-3.3321,-3.2644,-3.2398,-3.2398,0.0,0.0,0.0,0.0,0.0,0.0,0.0,0.0,0.0,0.0,-3.6968,-3.7324,0.0,0.0,0.0,0.0,0.0,0.0,0.0,0.0,0.0,0.0,0.0,0.0,0.0,0.0,0.0,0.0,-3.9651,0.0,0.0,0.0,0.0,0.0,0.0,0.0,0.0,0.0,0.0,0.0,0.0,0.0,0.0,0.0,0.0,0.0,0.0,0.0,0.0,0.0,-3.4915,-3.3518,-3.3359,-3.3185,-3.2951,-3.2662,-3.256,-3.2623,-3.2883,-3.3052,-3.3318,-3.3887,-3.4751,-3.5478,-3.5652,-3.6429,0.0,0.0,-3.547,-3.4743,-3.3271,-3.2984,-3.2806,-3.2312,-3.2557,-3.3131,-3.3907,-3.3775,-3.3901,0.0,-3.4491,-3.4522,-3.4786,-3.4716,-3.4675,-3.4827,-3.4716,-3.5223,-3.6621,-3.521,-3.4397,-3.4397,-3.4784,-3.499,-3.499,-3.4833,-3.4871,-3.517,-3.4438,-3.4331,-3.481,-3.519,-3.5432,-3.5608,-3.6258,-3.6184,-3.5737,-3.6261,-3.5799,-3.4659,-3.4551,-3.4058,-3.3321,-3.2644,-3.2398,-3.2398,0.0,0.0,0.0,0.0,0.0,0.0,0.0,-3.6866,-3.7489,-3.8439,-3.8555,-3.872,-3.9177,-3.916,-3.9149,0.0,0.0,0.0,0.0,0.0,0.0,0.0,0.0,0.0,0.0,-3.9393,-3.9437,-3.8971,0.0,-4.0305,-4.0286,-4.0694,-4.0907,-4.0907,-4.0907,-4.0907,0.0,0.0,0.0,0.0,0.0,0.0,0.0,0.0,0.0,0.0,0.0,0.0,0.0,0.0,-3.6607,-3.5567,-3.438,-3.3825,-3.3512,-3.2999,-3.2974,-3.3206,-3.3665,-3.4279,-3.4865,-3.526,-3.6136,-3.6846,-3.6562,0.0,0.0,0.0,-3.5483,-3.484,-3.3815,-3.3463,0.0,-3.3135,-3.3046,-3.3207,-3.3811,-3.3803,0.0,-3.3856,-3.3894,-3.3979,-3.4243,-3.4243,-3.4272,-3.4397,-3.4397,-3.4744,-3.5561,-3.4827,-3.4397,-3.4397,-3.4867,-3.4926,-3.4566,-3.4651,-3.4589,-3.4427,-3.3914,-3.3698,-3.3796,-3.4681,-3.5044,-3.5026,-3.6053,-3.6307,-3.6045,-3.6353,-3.6107,-3.5491,-3.4782,-3.4289,-3.3829,-3.2782,-3.2398,-3.2398,0.0,0.0,0.0,0.0,0.0,0.0,-3.672,-3.7201,-3.7974,-3.9337,-3.9842,-4.0073,-4.0073,-4.0018,-3.9994,0.0,0.0,0.0,0.0,0.0,0.0,0.0,0.0,0.0,0.0,0.0,0.0,-3.8899,-4.0238,0.0,0.0,0.0,0.0,0.0,-4.0907,-4.0912,-4.0917,0.0,0.0,0.0,0.0,-4.0853,0.0,0.0,0.0,0.0,0.0,0.0,0.0,0.0,-3.8006,-3.727,-3.5486,-3.4694,-3.4252,-3.3441,-3.3514,-3.397,-3.457,-3.5482,-3.6337,-3.6723,-3.7503,-3.8062,-3.7475,-3.7151,0.0,-3.6078,-3.5362,-3.4763,-3.4349,-3.395,-3.3769,0.0,-3.3485,-3.3348,-3.3966,-3.3846,-3.3666,0.0,-3.3804,0.0,-3.4004,-3.422,-3.4369,-3.4356,-3.4356,-3.4356,-3.4397,-3.4397,-3.4397,-3.4397,-3.4949,-3.4968,-3.4447,-3.4731,-3.4519,-3.3799,-3.3533,-3.3156,-3.2725,-3.4027,-3.4499,-3.4312,-3.5737,-3.632,-3.6352,-3.646,-3.6415,-3.6153,-3.4982,-3.4412,-3.412,-3.2844,-3.2398,-3.2398,0.0,0.0,0.0,0.0,0.0,0.0,-3.5916,-3.7318,-3.844,-3.8601,-3.9998,-4.0973,-4.0973,-4.0917,-4.0875,0.0,0.0,0.0,0.0,0.0,0.0,0.0,0.0,0.0,0.0,0.0,0.0,-4.048,-4.0703,0.0,0.0,0.0,0.0,0.0,0.0,-4.0921,-4.0982,-4.0982,0.0,0.0,0.0,0.0,0.0,0.0,0.0,0.0,0.0,0.0,0.0,0.0,0.0,-3.8105,-3.7403,-3.6682,-3.5917,-3.5125,0.0,0.0,-3.5966,-3.6305,-3.6662,-3.7822,-3.8165,-3.8237,-3.8403,0.0,-3.6867,-3.6433,-3.5577,-3.4899,-3.4851,-3.4406,-3.4165,-3.4471,0.0,-3.3979,-3.5013,-3.4326,-3.3872,-3.434,0.0,0.0,-3.3718,-3.4644,-3.4949,-3.4202,-3.4118,-3.4202,-3.4397,-3.4397,-3.4397,-3.4397,-3.5223,-3.5615,-3.5548,-3.5828,-3.5483,-3.4495,-3.359,-3.2965,-3.2704,-3.2981,-3.3457,-3.4172,-3.5285,-3.5784,-3.5816,-3.6289,-3.6122,-3.5537,-3.4797,-3.4104,-3.3413,-3.2675,-3.2398,-3.2398,0.0,0.0,0.0,0.0,0.0,0.0,-3.6495,-3.7234,-3.8092,-3.9158,-3.9897,-4.0522,-4.1031,-4.1034,-4.0992,-4.0992,0.0,0.0,0.0,0.0,0.0,0.0,0.0,0.0,0.0,0.0,-4.0771,-4.0763,-4.0713,0.0,0.0,0.0,0.0,0.0,0.0,-4.0975,-4.1003,-4.1003,0.0,0.0,0.0,0.0,0.0,0.0,0.0,0.0,0.0,0.0,0.0,0.0,0.0,0.0,-3.7678,-3.7094,0.0,0.0,-3.5873,-3.5838,-3.6733,-3.758,-3.8219,-3.8278,-3.856,-3.8737,-3.8533,0.0,-3.6741,-3.6713,-3.5972,-3.5316,-3.5316,-3.4658,-3.4336,-3.4979,-3.4513,0.0,-3.5053,0.0,-3.4101,-3.3697,-3.3926,0.0,0.0,-3.4125,-3.4522,-3.4314,-3.4272,-3.4314,-3.4397,-3.4397,-3.4522,-3.4825,-3.5386,-3.5627,-3.5537,-3.5318,-3.4784,-3.3974,-3.2779,-3.2372,-3.269,-3.284,-3.3332,-3.4138,-3.4876,-3.5382,-3.572,-3.5926,-3.5829,-3.5414,-3.4767,-3.4058,-3.3321,-3.2644,-3.2398,-3.2398,0.0,0.0,0.0,0.0,0.0,-3.6021,-3.666,-3.7223,-3.8036,-3.9258,-3.9859,-4.0418,-4.1023,-4.1048,-4.0994,-4.0994,-4.0937,0.0,0.0,0.0,0.0,0.0,0.0,0.0,0.0,0.0,-4.0821,-4.1041,-4.0687,-4.0703,0.0,0.0,-4.0849,-4.1007,0.0,0.0,0.0,0.0,0.0,0.0,0.0,0.0,0.0,0.0,0.0,0.0,0.0,0.0,0.0,0.0,0.0,0.0,0.0,0.0,0.0,0.0,-3.6327,-3.6453,-3.7393,-3.8525,-3.9336,-3.9002,-3.9037,-3.899,0.0,0.0,-3.6603,-3.6684,-3.6126,-3.5621,-3.5594,-3.492,-3.463,-3.5529,0.0,-3.4895,-3.5629,-3.5172,-3.4461,0.0,0.0,-3.4058,-3.3367,-3.3719,-3.4105,-3.4397,-3.4356,-3.4356,-3.4397,-3.4397,-3.4564,-3.4867,-3.544,-3.5545,-3.5233,-3.4806,-3.4199,-3.3431,-3.2303,-3.2019,-3.2525,-3.2747,-3.3206,-3.3894,-3.4423,-3.4975,-3.5464,-3.5413,-3.5337,-3.5152,-3.4459,-3.3737,-3.3044,-3.2567,-3.2398,-3.2398,0.0,0.0,0.0,0.0,0.0,0.0,-3.59,-3.7381,-3.8486,-3.8516,-4.0019,-4.1094,-4.1094,-4.1039,-4.0994,-4.0994,-4.0941,0.0,0.0,0.0,0.0,0.0,0.0,0.0,0.0,0.0,-4.0862,-4.1585,-4.0736,-4.0811,-4.1777,-4.1048,-4.0801,-4.1006,0.0,0.0,0.0,0.0,0.0,0.0,0.0,0.0,-3.9681,0.0,0.0,0.0,0.0,0.0,0.0,0.0,0.0,0.0,0.0,-3.7791,0.0,0.0,-3.6224,-3.7004,-3.8012,-3.8841,-3.9552,-4.021,-3.9679,-3.879,0.0,0.0,-3.6449,-3.6256,-3.5938,-3.5693,-3.5616,-3.5218,-3.5201,-3.6134,-3.5791,0.0,-3.7092,-3.6011,0.0,0.0,0.0,-3.5187,-3.3636,-3.3623,-3.3882,-3.4356,-3.4243,-3.4202,-3.4397,-3.4397,-3.4397,-3.4397,-3.5263,-3.5385,-3.4802,-3.4654,-3.4101,-3.3088,-3.2426,-3.2092,-3.2128,-3.2525,-3.2931,-3.3347,-3.3894,-3.4409,-3.4898,-3.4775,-3.4638,-3.4443,-3.369,-3.2998,-3.2398,-3.2398,-3.2398,-3.2398,0.0,0.0,0.0,0.0,0.0,0.0,-3.5897,-3.6861,-3.7825,-3.8417,-3.9491,-4.0449,-4.1034,-4.1048,-4.1009,-4.1009,-4.0929,0.0,0.0,0.0,0.0,0.0,0.0,0.0,0.0,-4.0572,-4.0839,-4.1531,-4.0607,-4.0644,-4.1574,-4.0887,-4.0648,-4.0791,-4.0911,-4.098,0.0,0.0,0.0,0.0,0.0,-3.9783,-3.9524,0.0,0.0,0.0,0.0,0.0,0.0,0.0,0.0,0.0,0.0,0.0,0.0,-3.6803,-3.67,-3.6848,-3.7338,-3.8005,-3.8502,-3.8209,-3.7986,-3.7692,-3.7175,0.0,-3.6079,-3.6291,-3.6037,-3.5749,-3.5744,-3.5333,-3.5315,-3.6215,-3.5937,-3.5941,0.0,0.0,0.0,-3.447,-3.4142,-3.414,-3.4441,-3.4285,-3.4344,-3.4705,-3.4464,-3.4314,-3.4397,-3.4397,-3.4564,-3.4867,-3.4767,-3.4753,-3.4881,-3.3747,-3.2987,-3.2686,-3.2058,-3.1873,-3.2092,-3.2525,-3.2931,-3.3326,-3.3486,-3.3874,-3.4331,-3.4215,-3.4084,-3.3924,-3.356,-3.2982,-3.2398,-3.2398,-3.2398,-3.2398,0.0,0.0,0.0,0.0,0.0,0.0,-3.5902,-3.6914,-3.7881,-3.8437,-3.9511,-4.0465,-4.0995,-4.1029,-4.0997,-4.0951,-4.0913,0.0,0.0,0.0,0.0,0.0,0.0,0.0,-4.0591,-4.0746,-4.118,-4.1885,-4.1267,-4.132,-4.1979,-4.1285,-4.0861,-4.0713,-4.0873,-4.0952,0.0,0.0,0.0,0.0,-3.9918,-3.9526,-3.9248,0.0,0.0,0.0,0.0,0.0,0.0,0.0,0.0,0.0,0.0,0.0,0.0,0.0,-3.6682,-3.6622,0.0,-3.776,-3.8096,-3.7649,-3.7368,-3.7095,0.0,0.0,-3.5837,-3.6118,-3.5989,-3.5832,-3.5788,-3.5464,-3.544,-3.6205,-3.6017,-3.6059,0.0,0.0,0.0,-3.4494,-3.4002,-3.4086,-3.482,-3.463,-3.4536,-3.4721,-3.4523,-3.4397,-3.4397,-3.4397,-3.443,-3.4521,-3.4326,-3.4219,-3.4307,-3.3106,-3.239,-3.2163,-3.1914,-3.1909,-3.2128,-3.2668,-3.3051,-3.3276,-3.3073,-3.336,0.0,-3.339,-3.3317,-3.3558,-3.3176,-3.2767,-3.2398,-3.2398,-3.2398,-3.2398,0.0,0.0,0.0,0.0,0.0,0.0,0.0,-3.7327,-3.8432,-3.8496,-3.9904,-4.0947,-4.0987,-4.101,-4.0978,-4.0912,-4.0966,0.0,0.0,0.0,0.0,0.0,0.0,0.0,-4.0496,-4.1082,-4.1777,-4.2587,-4.2454,-4.255,-4.2842,-4.2106,-4.1412,-4.0764,-4.0886,-4.0922,0.0,0.0,0.0,0.0,-3.9878,-3.9376,0.0,0.0,0.0,0.0,0.0,0.0,0.0,0.0,0.0,0.0,0.0,0.0,0.0,0.0,0.0,0.0,0.0,-3.7794,-3.798,-3.798,-3.7466,-3.6771,-3.6075,0.0,0.0,-3.5722,-3.5793,-3.5837,-3.5812,-3.5537,-3.5496,-3.6121,-3.599,-3.613,0.0,-3.6167,0.0,0.0,-3.4765,-3.4738,-3.4816,-3.4667,-3.45,-3.4418,-3.4424,-3.4397,-3.4397,-3.4358,-3.411,-3.3613,-3.3899,-3.3754,-3.3209,-3.2675,-3.2088,-3.1556,-3.1909,-3.2092,-3.2128,-3.2909,-3.3276,-3.3283,-3.27,-3.2978,-3.375,-3.2456,-3.2511,-3.328,-3.2659,-3.2398,-3.2398,-3.2398,-3.2398,-3.2398,0.0,0.0,0.0,0.0,0.0,0.0,0.0,0.0,0.0,0.0,-3.941,-4.0313,-4.0935,-4.1006,-4.0982,0.0,0.0,0.0,0.0,0.0,0.0,0.0,0.0,0.0,-4.1373,-4.1388,-4.2062,-4.3421,-4.2735,-4.2769,-4.3468,-4.2802,-4.2039,-4.124,-4.1432,-4.1133,0.0,0.0,0.0,0.0,-3.9683,-3.9281,0.0,0.0,0.0,0.0,-3.7933,-3.7863,0.0,0.0,0.0,0.0,0.0,0.0,0.0,0.0,-3.66,-3.6195,-3.6129,0.0,-3.5678,-3.5678,-3.5545,-3.5363,0.0,0.0,0.0,0.0,0.0,0.0,0.0,-3.5659,-3.5545,-3.6319,-3.5707,-3.5564,-3.6806,-3.6104,0.0,-3.4646,-3.4091,-3.3788,-3.3968,-3.4102,-3.4327,-3.4538,-3.4448,-3.4397,-3.4397,-3.4005,-3.3731,-3.3587,-3.2791,-3.2306,-3.2161,-3.1622,-3.1268,-3.1161,-3.1519,-3.185,-3.2128,-3.2596,-3.3016,-3.3283,-3.3027,-3.3078,-3.3227,-3.2656,-3.257,-3.2759,-3.2504,-3.2398,-3.2398,-3.2398,-3.2398,-3.2398,0.0,0.0,0.0,0.0,0.0,0.0,0.0,0.0,0.0,0.0,-3.9221,-4.0064,-4.0908,-4.0991,-4.1006,0.0,0.0,0.0,0.0,0.0,0.0,0.0,0.0,-4.0728,-4.1104,-4.1609,-4.2006,-4.2322,-4.277,-4.277,-4.2315,-4.2172,-4.1647,-4.0864,-4.1023,-4.0835,-4.0385,-4.0267,-4.0205,-4.0167,-3.9651,0.0,0.0,0.0,0.0,0.0,-3.781,-3.7739,0.0,-3.7613,-3.7595,-3.7613,0.0,0.0,0.0,0.0,-3.6333,-3.5781,-3.5115,-3.4913,-3.4899,-3.4899,-3.4899,-3.4899,-3.4899,0.0,0.0,0.0,0.0,0.0,0.0,0.0,-3.5193,-3.5596,-3.5724,-3.5859,0.0,0.0,-3.438,-3.394,-3.3617,-3.3553,-3.3869,-3.4224,-3.449,-3.4499,-3.422,-3.4031,-3.4031,-3.3496,-3.3051,-3.2803,-3.2137,-3.1797,-3.1797,-3.1274,-3.0986,-3.0986,-3.1421,-3.1703,-3.1873,-3.2453,-3.281,-3.3009,-3.3115,-3.3085,-3.2998,-3.275,-3.258,-3.2507,-3.2425,-3.2398,-3.2398,-3.2398,-3.2398,-3.2398,0.0,0.0,0.0,0.0,0.0,0.0,0.0,0.0,0.0,0.0,0.0,0.0,0.0,0.0,0.0,0.0,0.0,0.0,0.0,0.0,0.0,0.0,-4.0623,-4.0477,-4.0604,-4.1603,-4.173,-4.0898,-4.2674,-4.2699,-4.1086,-4.1604,-4.1387,-4.054,-4.0532,-4.0447,-4.0323,-4.0204,-4.0158,-4.0129,-3.9709,0.0,0.0,0.0,0.0,0.0,0.0,0.0,0.0,-3.7595,-3.7595,-3.7595,-3.7595,0.0,0.0,0.0,0.0,0.0,-3.4366,-3.4505,-3.4871,-3.4683,-3.4667,-3.4667,-3.4667,0.0,0.0,0.0,0.0,0.0,0.0,-3.4144,0.0,0.0,0.0,0.0,-3.5127,-3.4209,-3.3515,-3.3213,-3.3366,-3.3615,-3.392,-3.4464,-3.4679,-3.4395,-3.3901,-3.3587,-3.3587,-3.2934,-3.2346,-3.1823,-3.1719,-3.168,-3.168,-3.1222,-3.0986,-3.0986,-3.1347,-3.1519,-3.1629,-3.2309,-3.2577,-3.2595,-3.2992,-3.2998,-3.272,-3.2661,-3.2551,-3.2398,-3.2398,-3.2398,-3.2398,-3.2398,-3.2398,-3.2398,0.0,0.0,0.0,0.0,0.0,0.0,0.0,0.0,0.0,0.0,0.0,0.0,0.0,0.0,0.0,0.0,0.0,0.0,0.0,0.0,0.0,-4.1006,-4.0662,-4.0808,-4.1481,-4.116,-4.1236,-4.1794,-4.2516,-4.2852,-4.2833,-4.3595,-4.3278,-4.2033,-4.1383,-4.0672,-3.9988,-3.9946,-3.9954,-3.9924,-3.9815,0.0,0.0,0.0,0.0,0.0,0.0,0.0,0.0,-3.7595,-3.7595,-3.7595,-3.7595,0.0,0.0,0.0,0.0,0.0,-3.4366,-3.4531,-3.4729,-3.3706,-3.3553,-3.3594,-3.3485,0.0,0.0,0.0,0.0,0.0,0.0,-3.3664,-3.351,0.0,0.0,-3.4426,-3.3639,-3.4245,-3.4297,-3.3068,-3.3203,-3.3385,-3.332,-3.3869,-3.4208,-3.416,-3.3819,-3.3587,-3.3587,-3.2515,-3.1902,-3.1797,-3.1365,-3.1117,-3.1117,-3.1026,-3.0986,-3.0986,-3.1061,-3.1272,-3.1593,-3.2019,-3.2107,-3.1972,-3.2634,-3.2614,-3.2059,-3.2332,-3.2435,-3.2398,-3.2398,-3.2398,-3.2398,-3.2398,-3.2398,-3.2398,0.0,0.0,0.0,0.0,0.0,0.0,0.0,0.0,0.0,0.0,0.0,0.0,0.0,0.0,0.0,0.0,0.0,0.0,0.0,0.0,-4.0967,-4.1006,-4.0636,-4.062,-4.0989,-4.1237,-4.1244,-4.104,-4.2151,-4.2467,-4.2025,-4.2268,-4.207,-4.1461,-4.0791,-4.0279,-3.99,-3.99,-3.99,-3.99,0.0,0.0,0.0,0.0,0.0,0.0,0.0,0.0,0.0,0.0,-3.7595,-3.7595,-3.7595,0.0,0.0,0.0,0.0,0.0,-3.391,-3.387,-3.3821,-3.2511,-3.3014,-3.3715,-3.3303,0.0,0.0,0.0,0.0,0.0,0.0,0.0,-3.3441,-3.4179,0.0,-3.395,-3.3842,-3.3476,-3.3197,-3.3073,-3.2908,-3.3065,-3.362,-3.3933,-3.4043,-3.3827,-3.339,-3.2973,-3.2659,-3.1836,-3.1378,-3.1378,-3.1117,-3.0986,-3.0986,-3.0986,-3.0986,-3.0986,-3.0986,-3.1099,-3.1272,-3.185,-3.1874,-3.1562,-3.3244,-3.3431,-3.2579,-3.3633,-3.3629,-3.2936,-3.2936,-3.2721,-3.2398,-3.2398,-3.2398,-3.2398,0.0,0.0,0.0,0.0,0.0,0.0,0.0,0.0,0.0,0.0,0.0,0.0,0.0,0.0,0.0,0.0,0.0,0.0,0.0,-4.1003,-4.1003,-4.1006,-4.0604,-4.0454,-4.0578,-4.1191,-4.1148,-4.0385,-4.177,-4.2175,-4.157,-4.1291,-4.106,-4.0849,-4.033,-3.9974,-3.9804,-3.9878,-3.99,-3.99,0.0,0.0,0.0,0.0,0.0,0.0,0.0,0.0,0.0,0.0,0.0,0.0,0.0,0.0,0.0,-3.6025,-3.5458,-3.4617,-3.3294,-3.3266,-3.3249,-3.1712,-3.2457,-3.3446,-3.3018,0.0,0.0,0.0,0.0,0.0,0.0,-3.2004,0.0,-3.4192,-3.3919,-3.366,-3.4086,-3.2987,-3.2379,-3.316,-3.289,-3.3008,-3.3985,-3.4043,-3.3879,-3.3626,-3.2908,-3.2306,-3.1823,-3.13,-3.0986,-3.0986,-3.0986,-3.0986,-3.0986,-3.0986,-3.0986,-3.0986,-3.0986,-3.1123,-3.1334,-3.1873,-3.1981,-3.1841,-3.3825,-3.4014,-3.3046,-3.4607,-3.4429,-3.3183,-3.3336,-3.2982,-3.2398,-3.2398,-3.2453,-3.2523,0.0,0.0,0.0,0.0,0.0,0.0,0.0,0.0,0.0,0.0,0.0,0.0,0.0,0.0,0.0,0.0,0.0,0.0,0.0,-4.0992,-4.1006,-4.1006,-4.0604,-4.063,-4.1132,-4.0609,-4.0518,-4.0944,-4.1503,-4.2268,-4.3222,-4.2767,-4.2155,-4.143,-4.0875,-4.0234,-3.9551,-3.9792,-3.99,-3.99,-3.99,0.0,0.0,0.0,0.0,0.0,0.0,0.0,0.0,0.0,0.0,0.0,0.0,0.0,-3.6073,-3.5442,-3.5091,-3.4495,-3.2654,-3.3135,-3.3709,-3.1918,-3.1597,0.0,-3.2035,-3.2243,0.0,-3.3017,0.0,0.0,0.0,-3.0793,-3.0789,-3.1617,-3.2429,-3.3088,-3.3428,-3.3344,-3.3289,-3.3377,-3.3509,-3.372,-3.4076,-3.3829,-3.3639,-3.3587,-3.2502,-3.185,-3.1797,-3.13,-3.0986,-3.0986,-3.0986,-3.0986,-3.0986,-3.0986,-3.0986,-3.0986,-3.0986,-3.1468,-3.229,-3.2151,-3.252,-3.327,-3.3768,-3.349,-3.2839,-3.4069,-3.375,-3.2521,-3.3167,-3.2982,-3.2398,-3.2398,-3.2594,-3.287,0.0,0.0,0.0,0.0,0.0,0.0,0.0,0.0,0.0,0.0,0.0,-4.0913,-4.0983,0.0,0.0,0.0,0.0,0.0,0.0,-4.1018,-4.1007,-4.1007,-4.0642,-4.0683,-4.1199,-4.1034,-4.1304,-4.2063,-4.2321,-4.2556,-4.2772,-4.2493,-4.197,-4.1175,-4.062,-4.0066,-3.9514,-3.9611,-3.9747,-3.99,-3.99,-3.99,0.0,0.0,0.0,0.0,0.0,0.0,0.0,0.0,-3.7202,-3.7506,-3.7024,-3.6552,-3.6056,-3.5411,-3.5057,-3.4502,-3.2606,-3.283,-3.3208,-3.1727,-3.1058,0.0,0.0,-3.155,-3.1589,-3.134,-3.2305,0.0,0.0,0.0,-3.1941,-3.2118,-3.2641,-3.3055,-3.3215,-3.3197,-3.3313,-3.3556,-3.3208,-3.3171,-3.3736,-3.3216,-3.2735,-3.2489,-3.2058,-3.1641,-3.1326,-3.1104,-3.0986,-3.0986,-3.0986,-3.0986,-3.0986,-3.0986,-3.0986,-3.1024,-3.1468,-3.164,-3.1579,-3.2439,-3.2534,-3.2103,-3.3437,-3.3844,-3.357,-3.4318,-3.4255,-3.3658,-3.3013,-3.2613,-3.2425,-3.2621,-3.2773,-3.2924,0.0,0.0,0.0,0.0,0.0,0.0,0.0,0.0,-4.082,0.0,0.0,0.0,0.0,-4.0956,0.0,0.0,0.0,0.0,-4.1107,-4.1036,-4.1009,-4.1009,-4.0713,-4.0826,-4.1383,-4.1493,-4.188,-4.254,-4.2687,-4.2449,-4.1882,-4.1904,-4.1485,-4.0699,-4.0265,-3.9913,-3.9581,-3.9412,-3.9508,-3.977,-3.977,-3.9815,0.0,0.0,0.0,0.0,0.0,0.0,0.0,0.0,-3.7149,-3.747,-3.6649,-3.6148,-3.5732,-3.5028,-3.4428,-3.367,-3.2167,-3.219,-3.2326,0.0,0.0,0.0,-3.0586,-3.1039,-3.1352,-3.1128,-3.1903,0.0,-3.2525,0.0,0.0,-3.2123,-3.2495,-3.2742,-3.2566,-3.2541,-3.271,-3.3033,-3.266,-3.2608,-3.3151,-3.2618,-3.2111,-3.1836,-3.1628,-3.1405,-3.0999,-3.0986,-3.0986,-3.0986,-3.0986,-3.0986,-3.0986,-3.0986,-3.0986,-3.1024,-3.1736,-3.1882,-3.1468,-3.2475,-3.2645,-3.2257,-3.3542,-3.4159,-3.4252,-3.4568,-3.4471,-3.4058,-3.2844,-3.2398,-3.2425,-3.2773,-3.2951,-3.3043,0.0,0.0,0.0,0.0,0.0,0.0,0.0,0.0,-4.0807,-4.1052,-4.0984,0.0,0.0,0.0,0.0,0.0,0.0,0.0,-4.1107,-4.1036,-4.1009,-4.1009,-4.0806,-4.1034,-4.1777,-4.1844,-4.1988,-4.2199,-4.2315,-4.1826,-4.0793,-4.1074,-4.08,-4.007,-3.9881,-3.9793,-3.9751,-3.9219,-3.9189,-3.9502,-3.9502,-3.9647,-3.9889,0.0,0.0,0.0,0.0,0.0,0.0,0.0,-3.7595,-3.747,-3.6631,-3.5852,-3.5048,-3.4231,-3.3045,-3.1876,-3.126,-3.1228,-3.1097,0.0,0.0,0.0,-2.9701,-3.0688,-3.1969,-3.2996,-3.2434,-3.1961,-3.2501,-3.1836,-3.1226,-3.1227,-3.1744,-3.2026,-3.1461,-3.1386,-3.148,-3.1696,-3.1952,-3.2153,-3.238,-3.2019,-3.1797,-3.1797,-3.1313,-3.0986,-3.0986,-3.0986,-3.0986,-3.0986,-3.0986,-3.0986,-3.0986,-3.0986,-3.0986,-3.1024,-3.1736,-3.2182,-3.2362,-3.2187,-3.2911,-3.4264,-3.4124,-3.431,-3.4693,-3.4678,-3.4167,-3.3321,-3.2659,-3.2398,-3.2425,-3.2773,-3.3069,-3.3319,0.0,0.0,0.0,0.0,0.0,0.0,0.0,0.0,-4.0807,-4.1052,-4.0907,0.0,0.0,0.0,0.0,0.0,0.0,0.0,-4.1107,-4.1085,-4.1062,-4.1062,-4.0887,-4.0823,-4.095,-4.0877,-4.1119,-4.1632,-4.1102,-4.0545,-3.9969,-4.0623,-4.0321,-3.928,-3.9752,-3.9564,-3.8964,-3.8799,-3.8872,-3.9149,-3.9149,-3.9203,-3.9281,0.0,0.0,0.0,0.0,0.0,0.0,0.0,0.0,0.0,-3.5989,-3.5726,-3.5542,-3.3751,-3.3076,-3.2643,-3.1369,-3.0624,0.0,-3.0539,0.0,0.0,0.0,-3.051,0.0,0.0,-3.2423,-3.2136,-3.2681,-3.2767,-3.2492,-3.169,-3.1928,-3.2026,-3.1461,-3.1521,-3.1696,-3.1952,-3.1806,-3.1759,-3.1941,-3.1536,-3.1248,-3.1248,-3.1078,-3.0986,-3.0986,-3.0986,-3.0986,-3.0986,-3.0986,-3.0986,-3.0986,-3.0986,-3.0986,-3.0986,-3.1222,-3.1371,-3.1431,-3.2475,-3.2632,-3.2159,-3.3122,-3.3528,-3.3523,-3.3697,-3.3347,-3.2675,-3.2475,-3.2398,-3.2453,-3.2973,-3.3229,-3.3388,0.0,0.0,0.0,0.0,0.0,0.0,-4.0595,-4.0662,-4.0754,-4.0921,-4.0807,-4.0724,0.0,0.0,0.0,-4.0898,-4.1027,0.0,-4.1107,-4.1107,-4.1107,-4.1107,-4.098,-4.087,-4.0804,-4.0609,-4.0522,-4.0526,-4.0178,-3.9582,-3.8786,-3.969,-3.9555,-3.8583,-3.9256,-3.9248,-3.8705,-3.8528,-3.86,-3.8828,-3.8828,-3.8896,-3.9008,0.0,0.0,0.0,0.0,0.0,0.0,0.0,0.0,0.0,-3.6095,-3.5645,-3.5298,-3.3773,-3.2677,-3.1799,-3.1146,-3.0118,0.0,-3.0062,-2.9522,-2.8955,-2.952,0.0,0.0,0.0,-3.164,-3.1344,-3.2306,-3.2415,-3.2234,-3.1589,-3.1524,-3.1427,-3.1061,-3.0958,-3.109,-3.1498,-3.1254,-3.1151,-3.1458,-3.1196,-3.0986,-3.0986,-3.0986,-3.0986,-3.0986,-3.0986,-3.0986,-3.0986,-3.0986,-3.0986,-3.0986,-3.0986,-3.0986,-3.0986,-3.0986,-3.1099,-3.1272,-3.2345,-3.2354,-3.1599,-3.2772,-3.3144,-3.2978,-3.3093,-3.2828,-3.2398,-3.2398,-3.2398,-3.248,-3.3081,-3.3309,-3.3372,0.0,0.0,-3.8177,-3.8034,0.0,0.0,-4.0484,-4.0595,-4.0681,-4.0694,-4.0687,-4.0681,0.0,0.0,0.0,-4.0869,-4.1027,-4.1094,-4.1091,-4.1091,-4.1091,-4.1107,-4.1078,-4.1031,-4.0989,-4.0726,-4.0076,-3.9049,-3.9345,-3.8778,-3.7452,-3.8481,-3.858,-3.7924,-3.8531,-3.8794,-3.876,-3.8345,-3.8303,-3.8554,-3.8554,-3.8718,-3.8924,-3.8952,0.0,0.0,0.0,0.0,0.0,0.0,0.0,0.0,-3.6737,-3.5705,-3.4704,-3.4114,-3.2062,-3.0095,-3.066,-2.9584,0.0,-2.885,-2.9336,0.0,-2.904,-2.9088,-2.9614,-3.0941,0.0,-3.0073,-3.1554,-3.1278,-3.0923,-3.1175,-3.0873,-3.0565,-3.0407,-3.0113,-3.01,-3.0622,-3.0571,-3.0596,-3.0949,-3.0986,-3.0986,-3.0986,-3.0986,-3.0986,-3.0986,-3.0986,-3.0986,-3.0986,-3.0934,-3.0908,-3.0908,-3.0908,-3.0908,-3.0908,-3.0998,-3.1235,-3.1593,-3.1946,-3.2101,-3.2164,-3.2755,-3.2933,-3.2794,-3.2661,-3.254,-3.2398,-3.2398,-3.2425,-3.2508,-3.3081,-3.3335,-3.3398,0.0,0.0,-3.9071,-3.8945,0.0,0.0,-4.0484,-4.0527,-4.0574,-4.0681,-4.0602,-4.0549,-4.0549,-4.0636,0.0,-4.0746,-4.0968,-4.11,-4.1092,-4.1089,-4.1103,-4.111,-4.0907,-4.0584,-4.0177,-3.9894,-3.9137,-3.7864,-3.7933,-3.7633,-3.6954,-3.755,-3.7561,-3.7096,-3.7812,-3.8058,-3.7954,-3.7864,-3.7984,-3.829,-3.829,-3.8322,-3.8401,-3.8615,-3.8688,0.0,0.0,0.0,0.0,0.0,0.0,0.0,-3.7128,-3.6343,-3.536,-3.3932,-3.2096,-3.0463,-3.0128,-2.8483,0.0,0.0,-2.9538,-2.9745,-2.96,-2.9086,-2.8855,-2.9602,-2.9859,-3.0362,-3.1508,-3.0918,-3.0478,-3.1108,-3.0978,-3.0709,-3.0445,-3.0457,-3.0546,-3.0698,-3.0798,-3.0911,-3.0986,-3.0986,-3.0986,-3.0986,-3.0986,-3.0986,-3.0986,-3.0986,-3.0986,-3.0986,-3.0555,-3.0283,-3.0283,-3.0283,-3.0283,-3.0283,-3.1085,-3.1519,-3.1593,-3.1946,-3.2171,-3.2318,-3.1846,-3.1814,-3.2088,-3.1973,-3.2101,-3.2398,-3.2398,-3.2551,-3.2827,-3.316,-3.3424,-3.3658,0.0,0.0,0.0,0.0,0.0,0.0,0.0,0.0,-4.0496,-4.0516,-4.0496,-4.0473,-4.0408,-4.0589,0.0,0.0,-4.0949,-4.1103,-4.1095,-4.1109,-4.11,-4.111,-4.1207,-4.0896,-4.0109,-4.0094,-3.9286,-3.7684,-3.756,-3.7189,-3.6571,-3.68,-3.6786,-3.6571,-3.7135,-3.7343,-3.7281,-3.7412,-3.765,-3.7932,-3.7536,-3.7494,-3.7645,-3.7788,-3.7833,-3.7904,-3.8425,0.0,0.0,0.0,0.0,0.0,0.0,0.0,-3.5953,-3.4429,-3.263,-3.0912,-2.9962,0.0,0.0,-2.8929,0.0,-3.0241,-2.9365,-2.9236,-2.918,-2.8984,-2.9128,-2.9443,-2.9768,-2.9699,-2.9695,-3.0009,-2.9866,-2.9845,-3.0164,-3.0126,-3.0254,-3.0761,-3.0849,-3.0874,-3.0986,-3.0986,-3.0986,-3.0986,-3.0986,-3.0986,-3.0986,-3.0986,-3.0869,-3.0594,-3.0244,-3.01,-3.01,-3.01,-3.0341,-3.0824,-3.1336,-3.1776,-3.2128,-3.2309,-3.2552,-3.2778,-3.1778,-3.1755,-3.2339,-3.1664,-3.1781,-3.2425,-3.2578,-3.2746,-3.2951,-3.3361,-3.3581,-3.3745,0.0,0.0,0.0,0.0,0.0,0.0,0.0,0.0,0.0,-4.031,-4.0388,-4.037,-4.0096,-4.0294,-4.0395,0.0,0.0,0.0,-4.0861,-4.1022,-4.1107,-4.1107,-4.1474,-4.1259,-4.0323,-4.0434,-3.963,-3.7902,-3.7542,-3.6962,-3.6178,-3.6259,-3.6301,-3.6322,-3.6574,-3.6736,-3.6816,-3.7034,-3.7338,-3.756,-3.6934,-3.6784,-3.6948,-3.7142,-3.7122,-3.7118,-3.8154,-3.8385,-3.8242,-3.8401,0.0,0.0,0.0,0.0,-3.6217,-3.5066,-3.3287,-3.1414,-3.0228,0.0,-2.8739,-2.9091,-3.0109,0.0,-2.9252,-2.9496,-2.9754,-2.8752,-2.8542,-2.8462,-2.8119,-2.8542,-2.891,-2.887,-2.8685,-2.8843,-2.9729,-2.9574,-2.9729,-3.071,-3.0685,-3.0685,-3.0986,-3.0986,-3.0986,-3.0986,-3.0986,-3.0986,-3.0986,-3.0895,-3.062,-3.0113,-3.0009,-2.9957,-2.9957,-2.9957,-3.0398,-3.1299,-3.1432,-3.1829,-3.2506,-3.2506,-3.266,-3.2946,-3.2035,-3.1983,-3.2501,-3.153,-3.1652,-3.2523,-3.2773,-3.2951,-3.3096,-3.3529,-3.3736,-3.3797,0.0,0.0,0.0,0.0,0.0,0.0,0.0,0.0,0.0,0.0,-4.0329,-4.0032,-3.925,-3.9323,-3.9136,-3.8496,-3.9278,-3.9851,-3.9964,0.0,0.0,-4.1107,-4.096,-4.0687,-4.0304,-3.9884,-3.9078,-3.7902,-3.7163,-3.6438,-3.5705,-3.6114,-3.6301,-3.6301,-3.6343,-3.6512,-3.6796,-3.6836,-3.6995,-3.7283,-3.747,-3.7148,-3.6679,-3.7655,-3.7611,-3.7104,-3.795,-3.8224,-3.8209,-3.8224,-3.7754,0.0,0.0,0.0,-3.5734,-3.5317,-3.37,-3.1879,0.0,0.0,-3.0024,0.0,-2.9856,-3.021,0.0,0.0,-2.9624,-2.8922,-2.8752,-2.8831,-2.9133,-2.8676,-2.8426,-2.8964,-2.891,-2.887,-2.9172,-2.916,-2.9406,-3.0037,-3.0126,-3.0317,-3.0949,-3.0986,-3.0986,-3.0986,-3.0986,-3.0986,-3.0986,-3.0516,-3.0179,-3.01,-2.9653,-2.9392,-2.9392,-2.9392,-2.9631,-3.005,-3.0698,-3.1225,-3.1657,-3.1657,-3.1691,-3.1757,-3.2003,-3.1797,-3.1264,-3.1511,-3.2079,-3.2843,-3.287,-3.3176,-3.3607,-3.3668,-3.3848,-3.405,0.0,0.0,0.0,0.0,0.0,0.0,0.0,0.0,0.0,0.0,0.0,-3.9487,-3.9094,-3.9142,-3.8896,-3.8111,-3.8524,-3.9064,-3.9645,-4.0509,-4.1027,-4.1107,-4.0844,-4.0649,-4.0524,-3.9863,-3.8856,-3.7512,-3.6969,-3.6093,-3.4945,-3.5284,-3.5616,-3.592,-3.592,-3.6135,-3.6512,-3.6512,-3.6696,-3.6941,-3.6651,-3.6092,-3.551,-3.6078,-3.5739,-3.5134,-3.6645,-3.691,-3.6692,-3.7816,-3.7665,-3.7098,-3.7661,0.0,0.0,0.0,-3.3953,-3.2991,-3.2255,-3.1512,-3.091,0.0,-3.0432,-3.0273,-3.052,-3.0316,-2.9919,-2.9315,-2.9277,-2.9061,-2.8083,-2.7954,-2.7978,-2.7676,-2.7569,-2.7755,-2.8505,-2.8593,-2.8819,-2.9406,-2.9484,-2.9755,-3.0394,-3.0432,-3.0596,-3.0986,-3.0986,-3.0843,-3.0516,-3.0231,-2.98,-2.917,-2.8908,-2.8813,-2.8813,-2.8813,-2.9249,-3.0158,-3.0874,-3.1338,-3.1485,-3.1485,-3.1485,-3.1504,-3.132,-3.1346,-3.15,-3.1527,-3.2076,-3.2924,-3.3229,-3.3503,-3.372,-3.3873,-3.4,-3.4101,0.0,0.0,0.0,0.0,0.0,0.0,0.0,0.0,0.0,0.0,0.0,-3.8628,-3.8452,0.0,0.0,0.0,-3.7628,-3.8216,-3.9156,-3.9854,-4.038,-4.0694,-4.0479,-4.0462,-4.0694,-3.9746,-3.8727,-3.7616,-3.6664,-3.573,-3.4844,-3.4492,-3.4705,-3.5413,-3.5526,-3.5793,-3.6135,-3.6259,-3.643,-3.6623,-3.5819,-3.5112,-3.4508,-3.4673,-3.4144,-3.3546,-3.5545,-3.5865,-3.558,-3.7196,-3.7172,-3.657,-3.6823,-3.6619,0.0,0.0,0.0,0.0,0.0,0.0,-3.216,-3.2053,-3.1449,-3.0878,0.0,0.0,-3.0361,-2.9694,-2.9694,-2.9228,-2.7234,-2.7533,-2.7794,-2.6882,-2.6713,-2.7014,-2.7826,-2.7976,-2.8167,-2.8779,-2.8858,-2.9094,-2.9716,-2.9922,-3.0139,-3.0502,-3.069,-3.0516,-2.9918,-2.9735,-2.9287,-2.8446,-2.842,-2.842,-2.842,-2.8578,-2.9099,-2.9937,-3.0665,-3.1007,-3.1007,-3.1138,-3.1203,-3.1174,-3.0931,-3.1161,-3.1676,-3.1746,-3.2272,-3.3058,-3.3529,-3.3745,-3.3822,-3.4025,-3.4101,-3.4101,0.0,0.0,0.0,0.0,0.0,0.0,0.0,0.0,0.0,0.0,0.0,-3.7347,-3.6702,-3.648,-3.6133,-3.5577,-3.6311,-3.7186,-3.8125,-3.8346,-3.8808,-3.9648,-3.9544,0.0,-4.0674,-3.9355,-3.8696,-3.8809,-3.6118,-3.5236,-3.6069,-3.3968,-3.3672,-3.4864,-3.5368,-3.5616,-3.5677,-3.6114,-3.6322,-3.6274,-3.5602,-3.4879,-3.4239,-3.4451,-3.4018,-3.3509,-3.5216,-3.5798,-3.5837,-3.6257,-3.5863,-3.5272,-3.5742,-3.5349,-3.4684,0.0,0.0,0.0,0.0,-3.3896,0.0,-3.3639,-3.2841,0.0,0.0,0.0,-3.0951,-2.9902,-2.9846,-2.9429,-2.7599,-2.7819,-2.8085,-2.7446,-2.7306,-2.7293,-2.7355,-2.73,-2.7505,-2.8179,-2.8259,-2.8474,-2.9094,-2.9678,-2.9809,-2.9326,-2.9833,-2.9892,-2.9353,-2.8813,-2.8472,-2.842,-2.842,-2.842,-2.842,-2.904,-2.9151,-2.8682,-2.9386,-2.9701,-2.9701,-3.0152,-3.0366,-3.0425,-3.1403,-3.1513,-3.1132,-3.2333,-3.2989,-3.3309,-3.3581,-3.3848,-3.4075,-3.4101,-3.4101,-3.4101,0.0,0.0,0.0,0.0,0.0,0.0,0.0,0.0,0.0,0.0,0.0,0.0,0.0,-3.611,-3.576,-3.5019,-3.5821,-3.6607,-3.718,-3.7732,-3.8504,-3.9557,-3.9478,-3.981,-4.0674,-3.9947,-3.8853,-3.7352,-3.6303,-3.5155,-3.3948,-3.3242,-3.333,-3.4124,-3.4468,-3.4998,-3.5616,-3.5771,-3.6028,-3.6232,-3.537,-3.4511,-3.3635,-3.324,-3.2491,-3.1825,-3.3339,-3.3854,-3.4012,-3.5391,-3.5699,-3.5436,-3.5137,-3.4972,-3.4867,-3.4528,0.0,0.0,0.0,0.0,0.0,-3.4474,-3.3152,-3.1918,-3.2835,-3.2362,-3.1512,-3.0698,-3.0396,-2.9783,-2.8218,-2.7868,-2.758,-2.681,-2.6785,-2.6899,-2.7093,-2.7183,-2.735,-2.7539,-2.7545,-2.7817,-2.8447,-2.8409,-2.858,-2.915,-2.9067,-2.8908,-2.8726,-2.8538,-2.8203,-2.7837,-2.7837,-2.7837,-2.7837,-2.8524,-2.879,-2.8619,-2.9289,-2.9602,-2.9602,-3.0083,-3.0282,-3.0357,-3.1324,-3.1661,-3.1523,-3.237,-3.2931,-3.3346,-3.3771,-3.4025,-3.4101,-3.4101,-3.4101,-3.4101,0.0,0.0,0.0,-3.9456,0.0,-3.6984,-3.6914,-3.6173,-3.5664,-3.5742,0.0,0.0,0.0,0.0,-3.5273,-3.4701,-3.5362,-3.5881,-3.6071,-3.6695,-3.754,-3.8586,-3.8792,-3.9297,-4.0185,-3.9597,-3.8581,-3.71,-3.6084,-3.4945,-3.3685,-3.3114,-3.3296,-3.4125,-3.3731,-3.4228,-3.5345,-3.5283,-3.5448,-3.5642,-3.4588,-3.3801,-3.3134,-3.2314,-3.1576,-3.1155,-3.2328,-3.2744,-3.2909,-3.4229,-3.4728,-3.4651,-3.4016,-3.3988,-3.4142,-3.4112,0.0,0.0,-3.5421,0.0,0.0,0.0,-3.4001,-3.2765,-3.3569,-3.3295,-3.2492,-3.123,-3.083,-3.0279,-2.8761,-2.8113,-2.7558,-2.6685,-2.6633,-2.6737,-2.6798,-2.703,-2.7069,-2.677,-2.6857,-2.7059,-2.7364,-2.7218,-2.7382,-2.799,-2.7936,-2.7842,-2.7851,-2.7812,-2.7712,-2.7516,-2.749,-2.757,-2.7703,-2.8295,-2.8651,-2.878,-2.932,-2.9665,-2.9837,-3.0312,-3.0613,-3.0822,-3.161,-3.1838,-3.1752,-3.2535,-3.2958,-3.3229,-3.3761,-3.3975,-3.3975,-3.3975,-3.4025,-3.4101,-3.9315,-3.9029,-3.8746,-3.8542,-3.7114,-3.5924,-3.5735,-3.5114,-3.4684,-3.4684,0.0,0.0,0.0,0.0,0.0,-3.4591,-3.4831,-3.4945,-3.4879,-3.5189,-3.5776,-3.6643,-3.7462,-3.83,-3.9181,-3.8274,-3.7946,-3.8268,-3.5452,-3.4607,-3.5575,-3.3615,-3.35,-3.4868,-3.3232,-3.3323,-3.4726,-3.4598,-3.455,-3.4469,-3.3186,-3.2756,-3.2773,-3.1774,-3.1478,-3.1678,-3.2409,-3.2666,-3.27,-3.2835,-3.289,-3.2845,-3.2455,-3.23,-3.244,-3.3231,0.0,0.0,0.0,0.0,0.0,0.0,-3.5418,-3.4928,-3.4758,-3.458,-3.3809,-3.147,-3.1229,-3.0881,-2.9174,-2.8551,-2.8045,-2.718,-2.6952,-2.6797,-2.6467,-2.6756,-2.6704,-2.592,-2.624,-2.6283,-2.58,-2.6233,-2.6385,-2.5872,-2.6336,-2.6662,-2.6717,-2.6726,-2.6952,-2.749,-2.749,-2.7703,-2.8112,-2.8438,-2.878,-2.9099,-2.9446,-2.9851,-3.0312,-3.0792,-3.1263,-3.1739,-3.2203,-3.2148,-3.1781,-3.285,-3.3123,-3.2951,-3.3503,-3.3694,-3.3694,-3.371,-3.3873,-3.4101,-3.9206,-3.9065,-3.8794,-3.8534,-3.6998,-3.5769,-3.5712,-3.4932,-3.439,0.0,0.0,0.0,-3.408,-3.3967,-3.4074,-3.4413,-3.4487,-3.4524,-3.4612,-3.4879,-3.5454,-3.6366,-3.7367,-3.8322,-3.9181,-3.9546,-3.8946,-3.7351,-3.6515,-3.523,-3.3584,-3.2993,-3.2983,-3.3449,-3.2797,-3.2739,-3.3112,-3.309,-3.3387,-3.3769,-3.2489,-3.2273,-3.2643,-3.1636,-3.1211,-3.1193,-3.1506,-3.2028,-3.252,-3.2366,-3.2832,-3.3378,-3.2891,-3.2328,0.0,-3.2476,0.0,0.0,-3.4032,0.0,0.0,0.0,0.0,0.0,-3.52,-3.441,-3.3499,-3.3507,-3.2453,-3.129,-3.0456,-2.9375,-2.8333,-2.7505,-2.7468,-2.7515,-2.7373,-2.7245,-2.7115,-2.699,-2.6685,-2.6588,-2.6899,-2.6365,-2.6127,-2.6372,-2.5804,-2.5845,-2.6658,-2.7053,-2.7356,-2.749,-2.749,-2.7703,-2.8112,-2.8438,-2.878,-2.9099,-2.9446,-2.9851,-3.0312,-3.0792,-3.1263,-3.1739,-3.2203,-3.2342,-3.2259,-3.28,-3.2978,-3.2951,-3.3503,-3.3694,-3.372,-3.3924,-3.4025,-3.4101,-3.8132,-3.7956,-3.768,-3.7532,-3.6058,-3.4915,-3.4915,-3.4288,-3.3858,0.0,0.0,0.0,-3.3726,-3.3712,-3.3829,-3.4161,-3.4257,-3.4321,-3.4405,-3.4612,-3.4973,-3.5533,-3.6499,-3.7474,-3.8423,-3.8849,-3.8373,-3.7006,-3.6517,-3.5143,-3.2999,-3.2829,-3.279,-3.2833,-3.2201,-3.1846,-3.1743,-3.1652,-3.2068,-3.2723,-3.2086,-3.208,-3.2405,-3.1732,-3.1435,-3.1409,-3.1435,-3.1762,-3.218,-3.1892,-3.2206,-3.2591,-3.1999,-3.1674,-3.1543,-3.1768,-3.1932,0.0,0.0,0.0,0.0,-3.45,0.0,0.0,-3.5061,-3.4484,-3.3741,-3.3823,-3.2797,-3.1702,-3.1129,-2.9965,-2.8902,-2.8329,-2.8131,-2.7768,-2.7078,-2.6981,-2.6895,-2.6698,-2.655,-2.6491,-2.676,-2.6202,-2.596,-2.6293,-2.5716,-2.5756,-2.6645,-2.7222,-2.749,-2.749,-2.7301,-2.7519,-2.8295,-2.8233,-2.8584,-2.932,-2.9727,-3.0144,-3.0613,-3.1087,-3.1552,-3.2007,-3.2287,-3.2228,-3.2009,-3.2295,-3.2632,-3.2924,-3.3388,-3.3607,-3.372,-3.3873,-3.4,-3.4126,0.0,-3.6453,-3.6216,-3.6121,-3.4955,-3.4014,-3.3922,-3.3607,-3.3403,0.0,-3.3316,-3.3321,-3.3559,-3.3601,-3.368,-3.3881,-3.4099,-3.4245,-3.4257,-3.4383,-3.4453,-3.4453,-3.5293,-3.6233,-3.7181,-3.7062,-3.693,-3.681,-3.5876,-3.4663,-3.3247,-3.2937,-3.2736,-3.2569,-3.1596,-3.0916,-3.0573,-3.0487,-3.084,-3.1484,-3.1796,-3.2033,-3.2135,-3.1898,-3.187,-3.194,-3.1813,-3.1784,-3.1749,-3.1432,-3.1251,-3.1073,-3.0438,-3.058,-3.1035,-3.1095,-3.1334,0.0,0.0,0.0,0.0,-3.3454,-3.3649,0.0,-3.4464,-3.4497,-3.4147,-3.3328,-3.2765,-3.2274,-3.1742,-3.0676,-2.9841,-2.956,-2.891,-2.7933,-2.6384,-2.6432,-2.6432,-2.5937,-2.6142,-2.6235,-2.6084,-2.6035,-2.6,-2.6,-2.6,-2.6186,-2.6679,-2.7222,-2.749,-2.749,-2.6974,-2.7279,-2.8478,-2.7899,-2.8247,-2.9468,-2.997,-3.0481,-3.0984,-3.1465,-3.1951,-3.2398,-3.2398,-3.204,-3.1477,-3.1793,-3.2273,-3.2815,-3.3119,-3.3413,-3.3694,-3.372,-3.3899,-3.4151,-3.672,-3.6903,-3.687,-3.6216,-3.5814,-3.5349,-3.4694,-3.4277,-3.4045,-3.4107,-3.3364,-3.3019,-3.353,-3.3232,-3.3243,-3.3855,-3.3842,-3.3855,-3.3972,-3.4093,-3.4179,-3.4179,-3.5128,-3.5761,-3.6032,-3.6599,-3.6524,-3.5702,-3.5492,-3.4545,-3.2908,-3.2827,-3.2318,-3.1441,-3.1416,-3.0811,-2.9862,-3.0472,-3.0694,-3.0674,-3.1148,-3.1634,-3.2025,-3.187,-3.1727,-3.1597,-3.1568,-3.167,-3.1702,-3.1056,-3.0642,-3.0334,-2.9877,-2.9827,-3.0,-3.0497,-3.0683,-3.0868,-3.1452,-3.1714,-3.193,-3.2354,-3.2476,0.0,-3.3368,-3.3195,-3.3265,-3.4507,-3.3963,-3.35,-3.4298,-3.2999,-3.1685,-3.117,-3.0094,-2.8866,-2.7487,-2.6924,-2.6751,-2.6964,-2.6612,-2.6596,-2.7121,-2.6816,-2.6543,-2.6543,-2.6543,-2.6577,-2.6679,-2.7222,-2.749,-2.749,-2.6974,-2.7035,-2.7778,-2.7244,-2.7543,-2.8641,-2.926,-2.9988,-3.0788,-3.1398,-3.1951,-3.2398,-3.2398,-3.2149,-3.1789,-3.2418,-3.2429,-3.205,-3.2542,-3.3122,-3.3736,-3.3949,-3.405,-3.4151,-3.611,-3.6101,-3.5969,-3.5562,-3.4996,-3.4458,-3.4058,-3.353,-3.3154,-3.3204,-3.2734,-3.2555,-3.291,-3.2732,-3.2858,0.0,0.0,0.0,-3.3829,-3.3908,-3.3934,-3.3895,-3.438,-3.4896,-3.5442,-3.5745,-3.5719,-3.5342,-3.5219,-3.4337,-3.2795,-3.2533,-3.1583,-3.0112,-3.0486,-2.9857,-2.8572,-2.9788,-3.0132,-2.9986,-3.0773,-3.1417,-3.1898,-3.1712,-3.1597,-3.1511,-3.1511,-3.1568,-3.1516,-3.0498,-3.0505,-3.0735,-2.9438,-2.9533,-3.008,-3.0071,-3.0043,-3.0149,-3.0588,-3.0851,-3.1092,-3.1461,-3.1697,0.0,0.0,-3.2476,-3.2475,-3.3406,-3.3024,-3.2827,-3.3857,-3.2927,-3.1978,-3.196,-3.1083,-3.0134,-2.9355,-2.8392,-2.7743,-2.7782,-2.753,-2.7397,-2.749,-2.7255,-2.7087,-2.7087,-2.7087,-2.7087,-2.7087,-2.7356,-2.759,-2.7802,-2.7155,-2.7259,-2.8177,-2.7516,-2.7698,-2.8722,-2.9619,-3.0297,-3.0747,-3.1647,-3.2176,-3.2382,-3.2044,-3.1665,-3.1306,-3.145,-3.1587,-3.1801,-3.2768,-3.3466,-3.3924,-3.405,-3.4101,-3.4176,-3.546,-3.5157,-3.4946,-3.5078,-3.4166,-3.3439,-3.3602,-3.2855,-3.2211,-3.2072,-3.1933,-3.1951,-3.2249,-3.2177,-3.236,0.0,0.0,0.0,-3.3675,-3.362,-3.3588,-3.3684,-3.3671,-3.4046,-3.4842,-3.4701,-3.4761,-3.4992,-3.4757,-3.3938,-3.2581,-3.2175,-3.0978,-2.9145,-2.954,-2.8962,-2.7775,-2.9017,-2.9465,-2.9419,-3.0261,-3.0951,-3.1507,-3.1549,-3.1404,-3.118,-3.1256,-3.1316,-3.1152,-3.0173,-3.0502,-3.1036,-2.9367,-2.9492,-3.0242,-2.9957,-2.9778,-2.9704,-2.9899,-3.0261,-3.0601,-3.0727,-3.1131,-3.1581,0.0,0.0,0.0,-3.205,-3.1922,-3.2071,-3.3071,-3.2721,-3.2381,-3.2606,-3.2296,-3.1831,-3.1356,-3.0426,-2.9513,-2.8798,-2.8716,-2.8441,-2.7809,-2.7623,-2.7523,-2.749,-2.7523,-2.759,-2.7689,-2.7723,-2.7954,-2.8411,-2.7581,-2.765,-2.8748,-2.7878,-2.7944,-2.8975,-3.0028,-3.0624,-3.087,-3.1925,-3.2398,-3.2367,-3.184,-3.1382,-3.1064,-3.0809,-3.1197,-3.1999,-3.2985,-3.3657,-3.4101,-3.4101,-3.4101,-3.4201,-3.533,-3.5088,-3.5116,-3.5757,-3.4887,-3.4339,-3.5038,-3.3829,-3.2599,0.0,0.0,-3.1202,-3.2109,-3.1481,-3.141,-3.2481,-3.2266,-3.2433,-3.3306,-3.2908,-3.2939,-3.3583,-3.3549,-3.3589,-3.369,-3.368,-3.3733,-3.3881,-3.3803,-3.3082,-3.1826,-3.1947,-3.1015,-2.9266,-2.9394,-2.9187,-2.8717,-2.8611,-2.8774,-2.9139,-2.9208,-2.9696,-3.0502,-3.1541,-3.1129,-3.0057,-3.046,-3.0612,-3.0625,-3.0656,-3.0389,-3.0012,-3.0009,-2.9633,-2.9398,-3.0593,-3.0432,-2.9967,-3.038,-3.1055,-3.1318,-3.0079,-3.0642,-3.1319,-3.0676,0.0,-3.1711,-3.2322,0.0,-3.3088,-3.428,0.0,0.0,-3.3693,-3.4264,-3.4336,-3.2878,-3.309,-3.2609,-3.0514,-3.0141,-2.97,-2.8744,-2.8105,-2.7689,-2.749,-2.7656,-2.7941,-2.8352,-2.8578,-2.8949,-2.958,-2.8533,-2.8183,-2.8626,-2.742,-2.7471,-2.8813,-2.9569,-3.0388,-3.1359,-3.2062,-3.2398,-3.2398,-3.2321,-3.2202,-3.2094,-3.2698,-3.2937,-3.2894,-3.2385,-3.2975,-3.4101,-3.4101,-3.4101,-3.4176,-3.5239,-3.5027,-3.4989,-3.5461,-3.4468,-3.3802,-3.4329,-3.3177,-3.2053,0.0,0.0,-3.1147,-3.1726,-3.1711,-3.1701,-3.1789,-3.1967,-3.2119,-3.2192,-3.2056,0.0,-3.3063,-3.3052,-3.3083,-3.3208,-3.3238,-3.3357,-3.3591,-3.3549,-3.2882,-3.1642,-3.162,-3.0476,-2.8432,-2.8498,-2.8249,-2.7775,-2.7399,-2.7556,-2.8097,-2.8349,-2.8486,-2.868,-3.0038,-3.019,-2.9751,-3.031,-3.0268,-2.9936,-2.9615,-2.9946,-3.0319,-2.9163,-2.9483,-3.0239,-3.0062,-2.9757,-2.9565,-2.9819,-3.0242,-3.037,-2.9535,-3.0087,-3.077,-3.0394,-3.0535,-3.0881,-3.1362,0.0,0.0,0.0,0.0,0.0,0.0,-3.5357,-3.5528,-3.5151,-3.538,-3.4612,-3.202,-3.1663,-3.1197,-3.0063,-2.9414,-2.9016,-2.8839,-2.8921,-2.8998,-2.9093,-2.9142,-2.9487,-3.0072,-2.9522,-2.9401,-2.9811,-2.916,-2.9135,-2.9739,-3.058,-3.1105,-3.1439,-3.2311,-3.2578,-3.2351,-3.1582,-3.1596,-3.2151,-3.1697,-3.2116,-3.3064,-3.2757,-3.3242,-3.4101,-3.4101,-3.4101,-3.4151,-3.5046,-3.4879,-3.4835,-3.5138,-3.4054,-3.3116,-3.3002,-3.2187,-3.1447,-3.1004,-3.072,-3.073,-3.113,-3.1116,-3.0955,-3.0687,-3.0881,-3.0906,-3.0756,-3.1062,-3.1455,-3.1978,-3.2454,-3.2643,-3.2543,-3.2883,-3.3178,-3.339,-3.3452,-3.2826,-3.1598,-3.1392,-3.0176,-2.8148,-2.7946,-2.768,-2.7347,-2.6804,-2.6913,-2.7442,-2.7822,-2.7639,-2.7258,-2.8541,-2.9174,-2.9422,-2.9827,-2.9599,-2.9062,-2.8951,-2.9584,-3.0167,-2.8828,-2.9375,-3.0399,-2.9632,-2.9256,-2.9144,-2.9311,-2.9595,-2.9692,-2.9053,-2.9619,-3.0263,-3.0027,-3.0255,-3.057,-3.0803,-3.1228,0.0,0.0,0.0,-3.4389,-3.556,0.0,-3.65,-3.6535,-3.6781,-3.608,-3.3843,-3.3233,-3.263,-3.1695,-3.1052,-3.0646,-3.0506,-3.0299,-3.0146,-3.0131,-3.0021,-3.021,-3.0763,-3.0522,-3.0533,-3.0882,-3.0551,-3.0546,-3.0794,-3.1482,-3.1835,-3.1931,-3.2594,-3.2773,-3.2477,-3.1409,-3.1508,-3.2316,-3.1435,-3.1932,-3.3273,-3.3347,-3.3663,-3.4101,-3.4101,-3.423,-3.4443,-3.4647,-3.4604,-3.472,-3.5131,-3.3984,-3.2579,-3.1374,-3.1159,-3.0985,-3.058,-2.9782,-2.9552,-3.026,-2.8911,-2.8237,-2.9001,-2.838,-2.8254,-2.9022,-2.9865,-3.0328,-3.0291,-3.182,-3.2264,-3.1373,-3.2438,-3.3039,-3.3117,-3.3319,-3.2766,-3.1598,-3.1392,-3.0504,-2.903,-2.8108,-2.7946,-2.83,-2.7443,-2.7309,-2.768,-2.7693,-2.7305,-2.6802,-2.7545,-2.8233,-2.8714,-2.867,-2.8273,-2.7973,-2.931,-2.9354,-2.8988,-2.972,-2.9455,-2.9003,-2.975,-2.9425,-2.8873,-2.9129,-2.9679,-2.9889,-2.8735,-2.9271,-2.9927,-2.9278,-3.0248,-3.1276,-3.1276,-3.2001,-3.2904,-3.3797,-3.4661,0.0,0.0,0.0,0.0,0.0,-3.6933,-3.7099,-3.6115,-3.4857,-3.3963,-3.3729,-3.2943,-3.2392,-3.2332,-3.1554,-3.125,-3.1686,-3.1368,-3.1377,-3.1925,-3.1561,-3.1355,-3.1382,-3.0725,-3.0855,-3.1763,-3.1779,-3.2311,-3.3235,-3.2989,-3.2897,-3.287,-3.2504,-3.2532,-3.2893,-3.3124,-3.3371,-3.3729,-3.3968,-3.4084,-3.4101,-3.4101,-3.4538,-3.5179,-3.426,-3.4123,-3.4181,-3.455,-3.3592,-3.2451,-3.1376,-3.0865,-3.0398,-2.9968,-2.995,-2.999,-2.9972,-3.0172,-2.9804,-2.8575,-2.8466,-2.8199,-2.7582,-2.8228,-2.9027,-2.9895,-3.1034,-3.1685,-3.1759,-3.2229,-3.2688,-3.3101,-3.3117,-3.2596,-3.1598,0.0,0.0,0.0,-2.7959,-2.7743,-2.8036,-2.6475,-2.6354,-2.7152,-2.6734,-2.6436,-2.6356,-2.7355,-2.7341,-2.6891,-2.7697,-2.7343,-2.6517,-2.7003,-2.761,-2.8157,-2.7988,-2.8704,-2.9557,-2.9386,-2.9132,-2.8946,-2.9027,-2.9448,-2.9599,-2.8558,-2.9153,-2.9852,-2.9124,-2.9697,-3.0533,-3.1053,-3.1833,-3.2685,-3.3522,-3.4648,0.0,0.0,0.0,0.0,0.0,-3.7788,-3.7845,-3.7542,-3.6273,-3.5404,-3.5326,-3.4292,-3.3691,-3.3829,-3.2748,-3.2257,-3.2573,-3.1972,-3.1768,-3.2107,-3.1921,-3.1882,-3.2044,-3.1844,-3.1979,-3.2538,-3.2538,-3.2716,-3.3032,-3.2924,-3.2773,-3.2535,-3.199,-3.2176,-3.2893,-3.2714,-3.3064,-3.3784,-3.4533,-3.4839,-3.4764,-3.4279,-3.4554,-3.5276,-3.3981,-3.3639,-3.348,-3.3694,-3.287,-3.1932,-3.1142,-3.0696,-3.0157,-2.925,-2.984,-2.9939,-2.8777,-2.963,-2.9399,-2.7252,-2.7503,-2.7416,-2.6613,-2.7299,-2.8121,-2.9009,-3.0503,-3.1261,-3.1099,-3.2052,-3.2668,-3.293,-3.2959,-3.2646,0.0,0.0,0.0,0.0,-2.8233,-2.7846,-2.7925,-2.6483,-2.6339,-2.7026,-2.6251,-2.6067,-2.6293,-2.6622,-2.6275,-2.5754,-2.692,-2.6563,-2.5591,-2.598,-2.6575,-2.7111,-2.6897,-2.7594,-2.842,-2.7994,-2.801,-2.819,-2.8232,-2.8625,-2.8943,-2.8571,-2.9071,-2.9603,-2.9422,-3.0005,-3.0737,-3.123,-3.2261,-3.3281,-3.3883,-3.4974,-3.5926,0.0,0.0,0.0,0.0,-3.7863,-3.795,-3.795,-3.7304,-3.6853,-3.6892,-3.5976,-3.5431,-3.5594,-3.4202,-3.3473,-3.377,-3.2875,-3.2431,-3.2542,-3.2529,-3.2463,-3.2398,-3.2398,-3.2578,-3.2897,-3.2897,-3.2951,-3.3032,-3.2951,-3.2827,-3.2683,-3.2168,-3.2353,-3.3011,-3.2871,-3.3141,-3.38,-3.4817,-3.5211,-3.5179,-3.4959,-3.5331,-3.6044,-3.3748,-3.3139,-3.2636,-3.2672,-3.1895,-3.1064,-3.0559,-3.0614,-3.013,-2.8501,-2.9398,-2.9256,-2.6849,-2.7308,-2.7037,-2.5129,-2.5501,-2.5868,-2.5975,-2.6908,-2.7535,-2.7656,-3.0133,-3.09,-2.9573,-3.1869,-3.2913,-3.2589,-3.285,-3.2832,0.0,0.0,0.0,0.0,-2.8903,-2.8302,-2.7925,-2.7357,-2.7238,-2.732,-2.6263,-2.6177,-2.6549,-2.545,-2.5109,-2.5329,-2.6297,-2.5907,-2.5128,-2.6258,-2.6246,-2.5867,-2.6484,-2.6246,-2.5783,-2.5783,-2.619,-2.668,-2.6821,-2.7314,-2.7967,-2.8706,-2.8958,-2.9235,-2.9963,-3.0994,-3.1774,-3.18,-3.3175,-3.4496,-3.4754,-3.5564,-3.6319,0.0,0.0,0.0,-3.688,-3.7227,-3.7487,-3.7505,-3.7844,-3.8171,-3.829,-3.7772,-3.7424,-3.7398,-3.5684,-3.4791,-3.5134,-3.4017,-3.3326,-3.3228,-3.3282,-3.3059,-3.2444,-3.2413,-3.2578,-3.2897,-3.287,-3.3032,-3.3282,-3.3005,-3.3032,-3.324,-3.3032,-3.3058,-3.3309,-3.3613,-3.3742,-3.3848,-3.4888,-3.5341,-3.5454,-3.6108,-3.6745,-3.742,-3.3032,-3.2265,-3.1793,-3.2175,-3.1385,-3.0539,-3.0054,-2.9729,-2.9203,-2.8275,-2.8494,-2.8129,-2.6485,-2.656,-2.6093,-2.4618,-2.4709,-2.4682,-2.4268,-2.5142,-2.609,-2.7074,-2.8383,-2.9484,-3.0285,-3.1095,-3.1756,-3.2301,-3.237,-3.2404,-3.2369,0.0,0.0,0.0,0.0,-2.8789,-2.7328,-2.7264,-2.6857,-2.6237,-2.6399,-2.6345,-2.6133,-2.5738,-2.5433,-2.5216,-2.5361,-2.4952,-2.4453,-2.5199,-2.5336,-2.5312,-2.5858,-2.5909,-2.5783,-2.5783,-2.591,-2.6036,-2.6065,-2.6889,-2.7666,-2.7482,-2.8497,-2.9487,-2.9349,-3.0301,-3.129,-3.1579,-3.2505,-3.3326,-3.3654,-3.4242,-3.4878,-3.5526,0.0,0.0,-3.6512,-3.6801,-3.7152,-3.7469,-3.713,-3.7213,-3.8136,-3.7102,-3.6622,-3.7216,-3.5067,-3.398,-3.4567,-3.3374,-3.2862,-3.3326,-3.278,-3.2701,-3.3136,-3.2644,-3.2578,-3.2897,-3.2648,-3.2703,-3.3005,-3.2924,-3.28,-3.2645,-3.3027,-3.3123,-3.3063,-3.4102,-3.452,-3.4675,-3.6163,-3.7096,-3.7533,-3.7193,-3.715,-3.7447,-3.2483,-3.1625,-3.1002,-3.1016,-3.0739,-3.0527,-3.0493,-2.9765,-2.8961,-2.8273,-2.8084,-2.731,-2.5481,-2.5704,-2.5311,-2.358,-2.4102,-2.4373,-2.3985,-2.4543,-2.5428,-2.6636,-2.7482,-2.8295,-2.9049,-2.9858,-3.0809,-3.1843,-3.1707,-3.2004,-3.2739,0.0,0.0,0.0,0.0,-2.9237,-2.8003,-2.7673,-2.7074,-2.6298,-2.63,-2.6319,0.0,-2.5672,-2.5467,-2.5398,-2.4809,-2.4387,-2.4213,-2.5066,-2.5031,-2.4767,-2.5551,-2.5466,-2.5062,-2.5062,-2.5255,-2.5461,-2.5461,-2.6329,-2.727,-2.7247,-2.8202,-2.9203,-2.9319,-3.016,-3.0969,-3.1192,-3.209,-3.285,-3.2959,-3.3338,-3.3783,-3.4251,-3.5057,-3.5642,-3.5654,-3.6207,-3.6781,-3.7189,-3.7022,-3.7219,-3.8121,-3.6869,-3.6351,-3.7214,-3.5349,-3.4398,-3.4881,-3.3863,-3.3345,-3.3527,-3.3323,-3.3113,-3.2952,-3.2875,-3.2773,-3.2676,-3.2496,-3.2578,-3.2897,-3.2746,-3.273,-3.2823,-3.316,-3.3282,-3.333,-3.4504,-3.4977,-3.5122,-3.6675,-3.776,-3.8371,-3.8116,-3.8052,-3.8128,-3.1952,-3.1118,-3.033,-2.9819,-2.9971,-3.04,-3.099,-3.004,-2.8976,-2.8185,-2.763,-2.6493,-2.4337,-2.4733,-2.4375,-2.2446,-2.3543,-2.4275,-2.4118,-2.435,-2.4972,-2.6052,-2.6802,-2.7134,-2.7084,-2.8461,-2.9847,-3.1175,-3.0922,-3.1568,0.0,0.0,0.0,0.0,0.0,0.0,-2.8923,-2.8054,-2.7269,-2.6667,-2.6136,-2.6177,-2.6484,-2.5489,-2.538,-2.5636,-2.4501,-2.4083,-2.4253,-2.5323,-2.4971,-2.4279,-2.5349,-2.4975,-2.4083,-2.4083,-2.4465,-2.4887,-2.4887,-2.5725,-2.6717,-2.7306,-2.7981,-2.8693,-2.9456,-3.0208,-3.0777,-3.0777,-3.1764,-3.2583,-3.2462,-3.265,-3.2837,-3.2966,-3.3465,-3.4001,-3.4561,-3.5464,-3.6266,-3.6761,-3.7083,0.0,-3.8054,-3.6928,-3.6494,-3.7306,-3.6036,-3.5305,-3.5481,-3.4729,-3.4119,-3.374,-3.4052,-3.3735,-3.2675,-3.3059,-3.3013,-3.2521,-3.2499,-3.2621,-3.2897,-3.266,-3.285,-3.3293,-3.3372,-3.3576,-3.3928,-3.492,-3.5454,-3.5762,-3.7021,-3.7924,-3.8532,-3.8942,-3.9131,-3.9185,-3.1128,-3.0423,-3.0038,-3.0357,-2.9042,-2.8295,-2.9264,-2.8884,-2.8137,-2.7112,-2.5687,-2.4572,-2.4146,-2.3322,-2.263,-2.2245,-2.2678,-2.285,-2.2605,-2.2775,-2.3385,-2.4458,-2.4729,-2.553,-2.6897,-2.737,-2.8421,-3.0078,-3.0078,-3.0694,0.0,0.0,0.0,0.0,0.0,0.0,-2.7892,-2.6789,-2.6083,-2.5724,-2.6304,-2.6308,-2.5955,-2.5746,-2.5702,-2.5636,-2.4501,-2.4083,-2.4217,-2.4926,-2.4674,-2.42,-2.4909,-2.4661,-2.4083,-2.4083,-2.4178,-2.4269,-2.4269,-2.5105,-2.5999,-2.6094,-2.7335,-2.8546,-2.8693,-2.9687,-3.0554,-3.0554,-3.119,-3.1684,-3.1609,-3.1703,-3.1806,-3.1934,-3.2466,-3.308,-3.3733,-3.4449,-3.5272,-3.6266,-3.6223,-3.6502,-3.7524,-3.7186,-3.699,-3.7211,-3.6073,-3.5246,-3.4963,-3.4165,-3.3773,-3.3864,-3.3166,-3.3226,-3.412,-3.309,-3.2798,-3.3213,-3.2939,-3.2843,-3.2897,-3.3293,-3.3408,-3.3319,-3.3771,-3.4211,-3.4691,-3.5695,-3.6788,-3.7885,-3.8472,-3.8772,-3.8942,-3.9365,-3.9731,-4.0062,-3.0439,-2.9881,-2.9492,-2.9626,-2.8631,-2.7743,-2.759,-2.695,-2.6506,-2.6625,-2.5149,-2.4205,-2.4528,-2.3741,-2.2954,-2.2367,-2.2638,-2.2545,-2.1821,-2.2095,-2.2548,-2.3141,-2.3155,-2.3929,-2.5572,-2.5864,-2.7402,-3.0215,-2.9613,-3.0275,-3.2051,-3.1143,-3.0302,-2.9556,0.0,-2.8971,-2.7514,-2.6835,-2.627,-2.5813,-2.6307,-2.6229,-2.5826,-2.616,-2.6064,-2.5672,-2.4871,-2.4557,-2.4596,-2.49,-2.4596,-2.4217,-2.4822,-2.4583,-2.4083,-2.4083,-2.4083,-2.4178,-2.4478,-2.5184,-2.5793,-2.5793,-2.6707,-2.7554,-2.7554,-2.8324,-2.9245,-2.9862,-3.0524,-3.0982,-3.104,-3.1153,-3.114,-3.0857,-3.1703,-3.2483,-3.274,-3.3892,-3.5012,-3.5781,-3.5682,-3.6059,-3.7361,-3.6951,-3.6594,-3.6625,-3.5725,-3.4869,-3.4157,-3.3793,-3.3488,-3.3224,-3.3033,-3.3075,-3.3426,-3.3075,-3.3075,-3.3398,-3.3414,-3.3681,-3.4191,-3.4069,-3.4218,-3.4606,-3.4503,-3.4796,-3.5396,-3.6405,-3.7452,-3.842,-3.86,-3.8683,-3.8766,-3.9375,-3.974,-3.9978,-2.9728,-2.9207,-2.8716,-2.8542,-2.7852,-2.6977,-2.6066,-2.4956,-2.4739,-2.6084,-2.4873,-2.4177,-2.4922,-2.4331,-2.3509,-2.2563,-2.2668,-2.2377,-2.1377,-2.166,-2.1955,-2.2095,-2.2025,-2.2681,-2.4105,-2.4567,-2.6456,-2.986,-2.907,-2.9783,-3.1912,-3.0528,-2.9553,-2.8943,-2.8778,-2.8075,-2.6998,-2.6693,-2.633,-2.595,-2.5946,-2.5869,-2.585,-2.6188,-2.6123,-2.5697,-2.5031,-2.4887,-2.4979,-2.4861,-2.4491,-2.4191,-2.4648,-2.4478,-2.4083,-2.4083,-2.4083,-2.4217,-2.4661,-2.5288,-2.5767,-2.5667,-2.6164,-2.668,-2.6549,-2.7238,-2.8178,-2.9131,-3.0077,-3.0778,-3.0921,-3.0905,-3.0731,-3.0243,-3.1133,-3.192,-3.194,-3.3492,-3.471,-3.5099,-3.5339,-3.5876,-3.6788,-3.6464,-3.607,-3.5863,-3.5347,-3.4708,-3.3915,-3.3599,-3.3264,-3.2796,-3.3284,-3.3354,-3.2968,-3.3326,-3.3638,-3.3944,-3.3976,-3.4462,-3.5363,-3.4931,-3.5154,-3.5867,-3.5337,-3.5498,-3.6199,-3.7132,-3.789,-3.842,-3.86,-3.86,-3.8628,-3.9523,-3.9791,-3.9808,-2.8748,-2.8155,-2.7728,-2.765,-2.5769,-2.4464,-2.4946,-2.3545,-2.3096,-2.4904,-2.4019,-2.3645,-2.4866,-2.3923,-2.3031,-2.2705,-2.2194,-2.1671,-2.1095,-2.1082,-2.1229,-2.1458,-2.1578,-2.2176,-2.3307,-2.4074,-2.544,-2.7435,-2.7971,-2.8914,-3.0141,-2.9968,-2.9275,-2.8121,-2.8276,-2.7382,-2.573,-2.5174,-2.5141,-2.5412,-2.4868,-2.5109,-2.5732,-2.5333,-2.5428,-2.5652,-2.4579,-2.453,-2.4926,-2.4374,-2.4164,-2.4096,-2.4178,-2.4164,-2.4083,-2.4083,-2.4083,-2.4096,-2.4178,-2.4988,-2.5694,-2.5214,-2.5895,-2.6575,-2.602,-2.7301,-2.8631,-2.8748,-3.0176,-3.1452,-3.1665,-3.1082,-3.0576,-3.0697,-3.0852,-3.114,-3.1748,-3.3023,-3.3884,-3.3866,-3.5256,-3.5847,-3.4951,-3.5789,-3.6,-3.5084,-3.5126,-3.5134,-3.505,-3.3776,-3.3165,-3.3408,-3.3806,-3.4297,-3.4833,-3.4173,-3.446,-3.5646,-3.471,-3.4656,-3.5422,-3.5883,-3.6142,-3.6233,-3.6185,-3.654,-3.7219,-3.7975,-3.8343,-3.8476,-3.9206,-3.9259,-3.9077,-4.0196,-4.0436,-4.0263,-2.7656,-2.7276,-2.6834,-2.6378,-2.4976,-2.3958,-2.4148,-2.3355,-2.3164,-2.4303,-2.4022,-2.4177,-2.5428,-2.4755,-2.3928,-2.312,-2.2519,-2.1767,-2.0875,-2.0823,-2.0873,-2.0997,-2.1033,-2.177,-2.33,-2.3639,-2.4778,-2.6792,-2.749,-2.8162,-2.8753,-2.8589,-2.7951,-2.692,-2.6951,-2.6252,-2.5063,-2.5273,-2.5226,-2.5062,-2.5151,-2.5315,-2.5455,-2.5166,-2.4975,-2.4839,-2.4327,-2.4111,-2.4069,-2.4103,-2.4083,-2.4083,-2.4083,-2.4083,-2.4083,-2.4083,-2.4083,-2.4191,-2.453,-2.4962,-2.5262,-2.5057,-2.5593,-2.6102,-2.5862,-2.6685,-2.7709,-2.8468,-2.9839,-3.1046,-3.1522,-3.1429,-3.1142,-3.0694,-3.1187,-3.1573,-3.1336,-3.2191,-3.2928,-3.32,-3.3401,-3.3911,-3.4864,-3.4838,-3.5103,-3.5871,-3.5545,-3.498,-3.4217,-3.3811,-3.3601,-3.3623,-3.3834,-3.4235,-3.4736,-3.4571,-3.4971,-3.5893,-3.5878,-3.6214,-3.6912,-3.6904,-3.6891,-3.6907,-3.7371,-3.7711,-3.7987,-3.8278,-3.8391,-3.842,-3.875,-3.8777,-3.8738,-3.9592,-3.9627,-3.9295,-2.6711,-2.6402,-2.5976,-2.5433,-2.4278,-2.3443,-2.3497,-2.3121,-2.315,-2.398,-2.4092,-2.4556,-2.5767,-2.5265,-2.4439,-2.3387,-2.2659,-2.1812,-2.0763,-2.0699,-2.0699,-2.0699,-2.0699,-2.1373,-2.2797,-2.3207,-2.4227,-2.5914,-2.6771,-2.7292,-2.7467,-2.748,-2.6922,-2.5932,-2.6129,-2.555,-2.4394,-2.4933,-2.5031,-2.4808,-2.4929,-2.5124,-2.5243,-2.4618,-2.4232,-2.3997,-2.3615,-2.3314,-2.3167,-2.3683,-2.3822,-2.3861,-2.4031,-2.4083,-2.4083,-2.4083,-2.4083,-2.4204,-2.4609,-2.4861,-2.4966,-2.4796,-2.5282,-2.5763,-2.56,-2.6327,-2.7412,-2.8865,-3.002,-3.0956,-3.1406,-3.167,-3.1605,-3.0981,-3.1635,-3.201,-3.1427,-3.2022,-3.2536,-3.264,-3.2636,-3.3146,-3.4487,-3.4404,-3.4795,-3.6131,-3.5834,-3.5075,-3.3954,-3.3771,-3.3758,-3.3808,-3.411,-3.4491,-3.4988,-3.5234,-3.5694,-3.6338,-3.6702,-3.7258,-3.7899,-3.7717,-3.7603,-3.7663,-3.8181,-3.8391,-3.8391,-3.8391,-3.8391,-3.8391,-3.8532,-3.8504,-3.8476,-3.9142,-3.9082,-3.8728,-2.6069,-2.5487,-2.5028,-2.501,-2.3445,-2.2419,-2.3023,-2.2601,-2.2672,-2.3923,-2.4092,-2.4556,-2.5767,-2.5077,-2.4174,-2.3361,-2.244,-2.1557,-2.0738,-2.0699,-2.0699,-2.0699,-2.0699,-2.0949,-2.1511,-2.2758,-2.3708,-2.4326,-2.5609,-2.6213,-2.6228,-2.691,-2.6482,-2.5258,-2.6161,-2.5478,-2.3616,-2.3619,-2.4091,-2.4705,-2.367,-2.4095,-2.5198,-2.3408,-2.3001,-2.3246,-2.2134,-2.2018,-2.2477,-2.3013,-2.3195,-2.33,-2.39,-2.4083,-2.4083,-2.4083,-2.4083,-2.4083,-2.4096,-2.4543,-2.4861,-2.4269,-2.4946,-2.5668,-2.5141,-2.6398,-2.8234,-3.0084,-3.1017,-3.1496,-3.1511,-3.167,-3.1799,-3.1784,-3.201,-3.2191,-3.2176,-3.2761,-3.2929,-3.2189,-3.3689,-3.4359,-3.333,-3.4648,-3.5504,-3.5348,-3.574,-3.5642,-3.4823,-3.3655,-3.3322,-3.4058,-3.4732,-3.5451,-3.616,-3.6316,-3.6722,-3.7371,-3.7055,-3.7258,-3.7915,-3.8234,-3.8391,-3.8391,-3.8391,-3.8391,-3.8391,-3.8391,-3.8391,-3.8448,-3.8849,-3.8738,-3.8476,-3.9142,-3.9222,-3.8996,-2.5517,-2.5263,-2.4728,-2.3864,-2.321,-2.2732,-2.2531,-2.3066,-2.3628,-2.4036,-2.4824,-2.5458,-2.5851,-2.4728,-2.3787,-2.3333,-2.2077,-2.1121,-2.0725,-2.0699,-2.0699,-2.0699,-2.0699,-2.0949,-2.1498,-2.1903,-2.2193,-2.2379,-2.4231,-2.5499,-2.6274,-2.6494,-2.604,-2.506,-2.5338,-2.4626,-2.3308,-2.4022,-2.4053,-2.3535,-2.3295,-2.3297,-2.3302,-2.2116,-2.1705,-2.1722,-2.1334,-2.127,-2.145,-2.2358,-2.2374,-2.2217,-2.3169,-2.3757,-2.4083,-2.4083,-2.4083,-2.4083,-2.4083,-2.4243,-2.4347,-2.4164,-2.4956,-2.5758,-2.5591,-2.6628,-2.8185,-3.0105,-3.0342,-3.0477,-3.1346,-3.167,-3.1799,-3.1799,-3.2025,-3.2191,-3.2191,-3.2064,-3.1997,-3.209,-3.2201,-3.2458,-3.295,-3.3789,-3.4355,-3.4542,-3.5024,-3.516,-3.4833,-3.491,-3.492,-3.4795,-3.5323,-3.5998,-3.6732,-3.6953,-3.7313,-3.774,-3.7866,-3.8024,-3.8234,-3.8335,-3.8391,-3.8391,-3.8391,-3.8391,-3.8391,-3.8391,-3.8391,-3.8391,-3.8532,-3.8504,-3.8448,-3.886,-3.8678,-3.8258,-2.5377,-2.5268,-2.4735,-2.3731,-2.3512,-2.3192,-2.2334,-2.3066,-2.3727,-2.3727,-2.4362,-2.4938,-2.5203,-2.4036,-2.3312,-2.3592,-2.2323,-2.1377,-2.1014,-2.0805,-2.0699,-2.0699,-2.0883,-2.1066,-2.1185,-2.1825,-2.1943,-2.1511,-2.3222,-2.4445,-2.513,-2.5368,-2.5246,-2.48,-2.4668,-2.4103,-2.3313,-2.3884,-2.367,-2.2991,-2.2722,-2.2483,-2.2162,-2.1233,-2.0836,-2.0769,-2.0656,-2.068,-2.0913,-2.1772,-2.1799,-2.1707,-2.283,-2.3443,-2.3825,-2.4018,-2.4083,-2.4083,-2.4083,-2.4083,-2.4083,-2.4083,-2.495,-2.5989,-2.6691,-2.7618,-2.8768,-3.0193,-3.0458,-3.0651,-3.1491,-3.1798,-3.194,-3.194,-3.215,-3.2274,-3.2274,-3.1989,-3.1886,-3.2164,-3.2033,-3.2178,-3.2935,-3.373,-3.4178,-3.4137,-3.4968,-3.5288,-3.4791,-3.5126,-3.5324,-3.5241,-3.5792,-3.6326,-3.6816,-3.7433,-3.7725,-3.7711,-3.8177,-3.8391,-3.8391,-3.8391,-3.8391,-3.8391,-3.8391,-3.8391,-3.8391,-3.8391,-3.8391,-3.8391,-3.8391,-3.8391,-3.842,-3.86,-3.8415,-3.8046,-2.5649,-2.5443,-2.5048,-2.4407,-2.4222,-2.3727,-2.2414,-2.2736,-2.3182,-2.3175,-2.3157,-2.3431,-2.4078,-2.3149,-2.2886,-2.3947,-2.2963,-2.2061,-2.1538,-2.104,-2.0764,-2.0764,-2.1263,-2.1276,-2.0725,-2.2296,-2.2648,-2.1629,-2.2712,-2.3274,-2.3354,-2.3916,-2.4268,-2.4461,-2.42,-2.3865,-2.3488,-2.3215,-2.2997,-2.2835,-2.1997,-2.1686,-2.1663,-2.0688,-2.0366,-2.0416,-2.0141,-2.0347,-2.0831,-2.1381,-2.1577,-2.1773,-2.2895,-2.3248,-2.3365,-2.3926,-2.4083,-2.4083,-2.4083,-2.4083,-2.4083,-2.4083,-2.4921,-2.6238,-2.8184,-2.9074,-2.9714,-3.046,-3.1202,-3.1739,-3.1813,-3.2055,-3.2252,-3.2206,-3.2361,-3.2428,-3.2336,-3.2367,-3.2382,-3.2336,-3.281,-3.3145,-3.313,-3.4174,-3.4604,-3.3998,-3.5315,-3.5751,-3.4797,-3.4589,-3.4804,-3.5505,-3.6088,-3.6446,-3.6523,-3.7682,-3.7985,-3.7476,-3.8091,-3.8363,-3.8363,-3.8363,-3.8363,-3.8363,-3.8391,-3.8391,-3.8391,-3.8391,-3.8391,-3.8391,-3.8391,-3.8391,-3.8391,-3.8391,-3.8391,-3.8307,-2.6208,-2.6071,-2.5558,-2.4492,-2.4575,-2.4205,-2.2453,-2.3148,-2.3831,-2.378,-2.3828,-2.4092,-2.4725,-2.3716,-2.3132,-2.3403,-2.1993,-2.1223,-2.1498,-2.1381,-2.1302,-2.1302,-2.1878,-2.1721,-2.0725,-2.193,-2.2648,-2.2791,-2.3537,-2.4125,-2.4586,-2.473,-2.4589,-2.4261,-2.4048,-2.3496,-2.2708,-2.294,-2.2546,-2.1765,-2.139,-2.0914,-2.0467,-2.0514,-2.0631,-2.0761,-2.0701,-2.0965,-2.1407,-2.1995,-2.2178,-2.2388,-2.3537,-2.3903,-2.3929,-2.4073,-2.4083,-2.4083,-2.4083,-2.4083,-2.4083,-2.4083,-2.4635,-2.5814,-2.8267,-2.8567,-2.8939,-3.1194,-3.1326,-3.1207,-3.1849,-3.2406,-3.2659,-3.2283,-3.2744,-3.2798,-3.1794,-3.2074,-3.2198,-3.169,-3.2102,-3.2465,-3.2574,-3.3143,-3.3486,-3.3524,-3.427,-3.4883,-3.5307,-3.5279,-3.5404,-3.5804,-3.6242,-3.6599,-3.6877,-3.7373,-3.7799,-3.8148,-3.8075,-3.8017,-3.8017,-3.8017,-3.8017,-3.8046,-3.8307,-3.8391,-3.8391,-3.8391,-3.8391,-3.8391,-3.8391,-3.8391,-3.8391,-3.8391,-3.8391,-3.8307,-2.6228,-2.6028,-2.5665,-2.4927,-2.5006,-2.4688,-2.3301,-2.394,-2.4463,-2.4073,-2.3819,-2.3769,-2.4106,-2.3197,-2.2499,-2.2386,-2.1822,-2.1603,-2.1904,-2.1904,-2.1904,-2.1904,-2.2615,-2.259,-2.1679,-2.2937,-2.3534,-2.3433,-2.3472,-2.3745,-2.4164,-2.4164,-2.4118,-2.3995,-2.37,-2.32,-2.261,-2.2388,-2.1933,-2.138,-2.1262,-2.1003,-2.0724,-2.1176,-2.1433,-2.1597,-2.1596,-2.1717,-2.1956,-2.2283,-2.2401,-2.2545,-2.342,-2.3678,-2.3731,-2.4005,-2.4083,-2.4083,-2.4083,-2.4083,-2.4171,-2.4447,-2.475,-2.5562,-2.7692,-2.8252,-2.8906,-3.0818,-3.1354,-3.166,-3.2429,-3.2898,-3.3106,-3.278,-3.3111,-3.3044,-3.1982,-3.186,-3.1834,-3.1732,-3.1645,-3.1753,-3.2317,-3.3045,-3.3521,-3.354,-3.4605,-3.5338,-3.5491,-3.5799,-3.609,-3.6392,-3.6886,-3.7164,-3.718,-3.7476,-3.774,-3.7931,-3.7915,-3.7828,-3.7682,-3.7682,-3.777,-3.7915,-3.8103,-3.8262,-3.8391,-3.8391,-3.8391,-3.8391,-3.8391,-3.8391,-3.8391,-3.8391,-3.8391,-3.8307,-2.6002,-2.5674,-2.5437,-2.5408,-2.5334,-2.501,-2.4245,-2.4688,-2.4866,-2.4224,-2.3547,-2.3122,-2.3097,-2.2335,-2.1739,-2.1618,-2.2139,-2.2428,-2.24,-2.2493,-2.2519,-2.2519,-2.3359,-2.3484,-2.2818,-2.4162,-2.4486,-2.3697,-2.3284,-2.3121,-2.3182,-2.3274,-2.3446,-2.3594,-2.3245,-2.2944,-2.2652,-2.1844,-2.1506,-2.1522,-2.1469,-2.1531,-2.1678,-2.2181,-2.2438,-2.2519,-2.2531,-2.2518,-2.2545,-2.2715,-2.2781,-2.2926,-2.3581,-2.371,-2.3707,-2.4275,-2.4338,-2.423,-2.4109,-2.4083,-2.4242,-2.4842,-2.4931,-2.5337,-2.7172,-2.8163,-2.9065,-3.0253,-3.136,-3.232,-3.3005,-3.3347,-3.3493,-3.3413,-3.349,-3.3231,-3.2284,-3.1694,-3.1441,-3.1678,-3.1226,-3.1225,-3.2095,-3.3231,-3.3912,-3.3864,-3.5401,-3.6138,-3.5691,-3.6184,-3.6647,-3.6984,-3.7508,-3.7682,-3.7476,-3.777,-3.777,-3.7476,-3.7695,-3.7653,-3.7344,-3.7344,-3.7476,-3.777,-3.7857,-3.8075,-3.8335,-3.8363,-3.8391,-3.8391,-3.8335,-3.8363,-3.8391,-3.8335,-3.8363,-3.8323,-2.5921,-2.5342,-2.4969,-2.5315,-2.4971,-2.4557,-2.4323,-2.446,-2.4527,-2.4294,-2.3699,-2.3219,-2.3122,-2.2335,-2.1976,-2.2462,-2.2639,-2.2643,-2.24,-2.2831,-2.308,-2.308,-2.3913,-2.3883,-2.2831,-2.3757,-2.4054,-2.3697,-2.407,-2.3874,-2.3195,-2.3704,-2.3555,-2.2786,-2.2884,-2.2543,-2.1874,-2.1854,-2.1959,-2.2143,-2.2142,-2.2181,-2.2319,-2.2924,-2.3108,-2.3093,-2.3093,-2.3093,-2.3237,-2.4259,-2.4599,-2.4842,-2.6158,-2.6047,-2.5463,-2.5862,-2.5453,-2.4756,-2.4243,-2.4083,-2.423,-2.4863,-2.4613,-2.5036,-2.8107,-2.828,-2.8497,-3.0962,-3.1563,-3.1862,-3.2611,-3.3496,-3.3945,-3.3462,-3.3906,-3.3545,-3.1291,-3.1526,-3.1456,-3.0061,-3.0782,-3.1421,-3.1531,-3.2476,-3.3504,-3.4481,-3.5217,-3.5845,-3.6307,-3.643,-3.6647,-3.6984,-3.709,-3.7359,-3.7828,-3.7886,-3.7886,-3.7828,-3.7594,-3.7344,-3.706,-3.706,-3.709,-3.7181,-3.7698,-3.7943,-3.8001,-3.8262,-3.8391,-3.8363,-3.8103,-3.8148,-3.8363,-3.8075,-3.8177,-3.8416,-2.5948,-2.5605,-2.5466,-2.5914,-2.5592,-2.5269,-2.5363,-2.5483,-2.54,-2.4952,-2.4281,-2.3815,-2.3688,-2.2698,-2.2349,-2.3183,-2.3221,-2.3271,-2.3325,-2.3692,-2.3896,-2.3896,-2.4617,-2.4859,-2.4476,-2.4859,-2.4861,-2.4403,-2.4335,-2.4083,-2.3665,-2.3626,-2.3563,-2.3466,-2.3522,-2.3349,-2.3046,-2.2733,-2.2673,-2.2832,-2.3171,-2.3347,-2.3433,-2.3994,-2.4193,-2.4136,-2.3809,-2.3665,-2.3838,-2.4704,-2.4992,-2.5179,-2.613,-2.6159,-2.5824,-2.5998,-2.5529,-2.494,-2.4648,-2.4347,-2.4243,-2.4861,-2.4796,-2.5173,-2.7359,-2.7933,-2.8501,-3.0119,-3.0865,-3.156,-3.2646,-3.3245,-3.3592,-3.3652,-3.3485,-3.2943,-3.1721,-3.1094,-3.0669,-3.0479,-3.0825,-3.1364,-3.2136,-3.3103,-3.4095,-3.5174,-3.5737,-3.6153,-3.6476,-3.6492,-3.6647,-3.6984,-3.7315,-3.7522,-3.7623,-3.7799,-3.774,-3.7419,-3.727,-3.7044,-3.6724,-3.6724,-3.6847,-3.7015,-3.727,-3.7492,-3.7653,-3.7815,-3.7873,-3.7844,-3.7682,-3.7711,-3.7921,-3.835,-3.8582,-3.8811,-2.5975,-2.5784,-2.5852,-2.6404,-2.6177,-2.6002,-2.6299,-2.6472,-2.6282,-2.5509,-2.4921,-2.4475,-2.419,-2.3255,-2.3021,-2.3923,-2.3877,-2.3968,-2.4395,-2.4622,-2.4694,-2.4637,-2.5188,-2.5619,-2.5893,-2.5893,-2.5577,-2.4913,-2.4573,-2.4226,-2.3845,-2.3506,-2.3621,-2.4151,-2.4094,-2.4176,-2.4267,-2.3609,-2.3452,-2.3649,-2.4014,-2.43,-2.4546,-2.4885,-2.4948,-2.4793,-2.4287,-2.4204,-2.44,-2.5005,-2.5293,-2.552,-2.6235,-2.6251,-2.6078,-2.6461,-2.606,-2.5476,-2.5428,-2.4949,-2.4648,-2.5254,-2.5293,-2.5555,-2.7043,-2.7837,-2.8496,-2.9401,-3.0395,-3.1423,-3.2629,-3.3046,-3.3374,-3.3829,-3.3174,-3.2492,-3.2169,-3.0774,-3.0078,-3.0787,-3.0761,-3.1213,-3.2486,-3.3631,-3.4681,-3.5623,-3.6195,-3.6492,-3.6492,-3.6492,-3.6616,-3.6877,-3.7462,-3.7653,-3.7417,-3.7653,-3.7522,-3.7015,-3.7015,-3.6816,-3.6492,-3.6492,-3.6647,-3.6877,-3.6984,-3.7105,-3.7314,-3.7387,-3.7417,-3.7403,-3.7501,-3.7564,-3.7733,-3.8658,-3.9109,-3.9342,-2.5921,-2.5453,-2.5384,-2.6336,-2.6177,-2.6029,-2.6431,-2.6645,-2.6442,-2.5523,-2.5343,-2.5009,-2.4199,-2.4033,-2.4219,-2.4854,-2.4619,-2.4695,-2.5356,-2.5411,-2.5285,-2.4977,-2.5313,-2.5619,-2.5893,-2.5893,-2.5477,-2.4637,-2.5136,-2.4609,-2.3075,-2.3528,-2.385,-2.4028,-2.4021,-2.4267,-2.4633,-2.4024,-2.4184,-2.4827,-2.4244,-2.4573,-2.537,-2.5104,-2.4821,-2.4494,-2.4216,-2.4452,-2.5031,-2.5563,-2.6112,-2.6776,-2.8018,-2.7592,-2.6939,-2.8416,-2.7985,-2.6977,-2.6671,-2.6125,-2.5837,-2.6431,-2.6151,-2.6316,-2.8581,-2.8394,-2.8219,-2.9883,-3.0744,-3.1438,-3.2208,-3.3174,-3.3859,-3.3903,-3.3536,-3.285,-3.1801,-3.0946,-3.0201,-2.9604,-3.0221,-3.0994,-3.1716,-3.3331,-3.4681,-3.5623,-3.6195,-3.6492,-3.6492,-3.6492,-3.6523,-3.6523,-3.7134,-3.7417,-3.7417,-3.7417,-3.7284,-3.7015,-3.7015,-3.6816,-3.6492,-3.6492,-3.6523,-3.6554,-3.6877,-3.6999,-3.706,-3.7314,-3.7417,-3.745,-3.7809,-3.8105,-3.8368,-3.8827,-3.9377,-4.0031,-2.6949,-2.6815,-2.6687,-2.6691,-2.7201,-2.7433,-2.6775,-2.7086,-2.7089,-2.6373,-2.5454,-2.5015,-2.5412,-2.4292,-2.423,-2.6073,-2.5442,-2.5348,-2.6357,-2.6428,-2.6162,-2.5578,-2.5688,-2.5798,-2.5893,-2.5893,-2.5659,-2.5163,-2.5384,-2.4873,-2.3697,-2.4658,-2.5116,-2.518,-2.5405,-2.5784,-2.6185,-2.5429,-2.5286,-2.5578,-2.5675,-2.5967,-2.6315,-2.6405,-2.6208,-2.5883,-2.5581,-2.5485,-2.5589,-2.6164,-2.6523,-2.6875,-2.7944,-2.7952,-2.7688,-2.8306,-2.7971,-2.7361,-2.7242,-2.6498,-2.5955,-2.6562,-2.6549,-2.6905,-2.8975,-2.9103,-2.9246,-3.0725,-3.1243,-3.1598,-3.2236,-3.2373,-3.252,-3.2906,-3.2139,-3.1559,-3.1692,-3.1102,-3.0864,-3.1509,-3.2076,-3.2812,-3.3714,-3.4632,-3.5447,-3.6148,-3.6383,-3.6492,-3.6492,-3.6492,-3.6492,-3.6492,-3.6723,-3.6938,-3.7165,-3.715,-3.7105,-3.7015,-3.6785,-3.6616,-3.6492,-3.6492,-3.6492,-3.6523,-3.6616,-3.6677,-3.6693,-3.6785,-3.7095,-3.7468,-3.7638,-3.7994,-3.8572,-3.9385,-3.9845,-4.0197,-2.7345,-2.7258,-2.7041,-2.6849,-2.7532,-2.7823,-2.6936,-2.7316,-2.7405,-2.6538,-2.5466,-2.5143,-2.6146,-2.4753,-2.4634,-2.6792,-2.6109,-2.598,-2.7031,-2.7216,-2.6976,-2.6217,-2.6174,-2.609,-2.5893,-2.5893,-2.5825,-2.5619,-2.5439,-2.4888,-2.4014,-2.5057,-2.5625,-2.5815,-2.646,-2.7079,-2.7633,-2.6834,-2.6483,-2.6497,-2.6722,-2.6933,-2.7129,-2.7244,-2.7159,-2.6889,-2.6448,-2.6352,-2.6426,-2.6512,-2.6841,-2.7248,-2.7927,-2.8244,-2.8333,-2.7918,-2.7756,-2.7669,-2.7523,-2.6929,-2.6491,-2.7066,-2.7242,-2.765,-2.9146,-2.9618,-3.0056,-3.1002,-3.1499,-3.1907,-3.2328,-3.2216,-3.2202,-3.2623,-3.1785,-3.1335,-3.1992,-3.1404,-3.1382,-3.2633,-3.3085,-3.372,-3.4892,-3.5424,-3.5926,-3.646,-3.6492,-3.6492,-3.6492,-3.6492,-3.6492,-3.6492,-3.6692,-3.6909,-3.7157,-3.6955,-3.6955,-3.7157,-3.6724,-3.6492,-3.6492,-3.6492,-3.6492,-3.6492,-3.6492,-3.6492,-3.6507,-3.6722,-3.7092,-3.7538,-3.7969,-3.8415,-3.8941,-3.9869,-4.03,-4.0562,-2.682,-2.6283,-2.6036,-2.6689,-2.682,-2.6835,-2.6806,-2.7331,-2.7192,-2.5805,-2.5489,-2.5588,-2.6054,-2.5558,-2.5686,-2.6904,-2.6588,-2.6584,-2.7268,-2.7741,-2.7626,-2.6835,-2.6807,-2.6526,-2.5907,-2.5893,-2.5893,-2.5893,-2.5316,-2.4595,-2.3822,-2.4442,-2.5035,-2.5684,-2.6945,-2.7948,-2.8647,-2.8072,-2.7805,-2.7749,-2.7074,-2.72,-2.7776,-2.7454,-2.7322,-2.7219,-2.6539,-2.6916,-2.7569,-2.6631,-2.7093,-2.8103,-2.8177,-2.8616,-2.8848,-2.757,-2.7645,-2.8027,-2.7616,-2.7516,-2.768,-2.8242,-2.842,-2.8578,-2.9275,-2.993,-3.0439,-3.0508,-3.1541,-3.2412,-3.2412,-3.2904,-3.3276,-3.3276,-3.2966,-3.269,-3.269,-3.1897,-3.1653,-3.2518,-3.2681,-3.3262,-3.4677,-3.5359,-3.5926,-3.646,-3.6492,-3.6492,-3.6492,-3.6492,-3.6492,-3.6492,-3.7153,-3.7507,-3.7507,-3.683,-3.683,-3.7492,-3.6815,-3.6492,-3.6492,-3.6492,-3.6507,-3.6507,-3.6507,-3.6507,-3.6553,-3.723,-3.7507,-3.7646,-3.8985,-3.949,-3.9582,-4.0243,-4.0765,-4.1104,-2.736,-2.726,-2.7096,-2.6969,-2.7952,-2.836,-2.7129,-2.7763,-2.8072,-2.7192,-2.5816,-2.5429,-2.6798,-2.5602,-2.5559,-2.7655,-2.741,-2.7407,-2.8024,-2.804,-2.7683,-2.6976,-2.6835,-2.6526,-2.5907,-2.5893,-2.5893,-2.5893,-2.5711,-2.5504,-2.53,-2.6369,-2.6966,-2.7161,-2.7966,-2.8493,-2.8647,-2.8072,-2.7805,-2.7833,-2.8043,-2.7987,-2.7847,-2.815,-2.8138,-2.7856,-2.7174,-2.724,-2.7674,-2.7836,-2.7845,-2.7895,-2.8583,-2.9045,-2.9274,-2.9209,-2.9074,-2.896,-2.9093,-2.9114,-2.9098,-2.9031,-2.8942,-2.9158,-3.0444,-3.1109,-3.164,-3.2324,-3.2792,-3.3045,-3.3045,-3.2848,-3.2679,-3.2679,-3.234,-3.2187,-3.2444,-3.2695,-3.3188,-3.4118,-3.4563,-3.513,-3.5936,-3.6166,-3.632,-3.6492,-3.6492,-3.6492,-3.6492,-3.6492,-3.6492,-3.6492,-3.7153,-3.7738,-3.82,-3.7538,-3.7292,-3.7492,-3.6815,-3.6492,-3.6507,-3.6984,-3.72,-3.723,-3.7707,-3.7908,-3.7923,-3.8123,-3.8492,-3.8954,-3.9321,-3.9782,-4.0213,-4.0428,-4.0558,-4.073,-2.7273,-2.7169,-2.703,-2.7006,-2.7873,-2.8312,-2.7474,-2.7892,-2.8173,-2.7753,-2.6104,-2.5698,-2.7524,-2.625,-2.6179,-2.8469,-2.8238,-2.7918,-2.7788,-2.7968,-2.7655,-2.6775,-2.6764,-2.6526,-2.5907,-2.5893,-2.5893,-2.5893,-2.5893,-2.5893,-2.5921,-2.7186,-2.7805,-2.7847,-2.8675,-2.9055,-2.9012,-2.8394,-2.8282,-2.8507,-2.8647,-2.8464,-2.8213,-2.8549,-2.8568,-2.8302,-2.7483,-2.7861,-2.8706,-2.8529,-2.8424,-2.8559,-2.9509,-2.9723,-2.9687,-2.9964,-2.9889,-2.9776,-2.9971,-3.0027,-3.0113,-3.0361,-3.0169,-3.0192,-3.1258,-3.1859,-3.2361,-3.2828,-3.3108,-3.329,-3.329,-3.3016,-3.2778,-3.2778,-3.2721,-3.2811,-3.3044,-3.3636,-3.4327,-3.5106,-3.5512,-3.5911,-3.646,-3.6492,-3.6492,-3.6492,-3.6738,-3.6769,-3.6507,-3.6738,-3.6892,-3.6892,-3.7554,-3.8231,-3.8908,-3.8492,-3.8292,-3.8292,-3.7615,-3.7292,-3.7292,-3.7707,-3.7908,-3.7923,-3.8323,-3.8508,-3.8539,-3.88,-3.9121,-3.9521,-3.9782,-4.0136,-4.0489,-4.0489,-4.0489,-4.0524,-2.6806,-2.6429,-2.6287,-2.6912,-2.7073,-2.7252,-2.7749,-2.7788,-2.7695,-2.7695,-2.6383,-2.6177,-2.8095,-2.7148,-2.712,-2.9045,-2.8842,-2.8128,-2.6953,-2.7607,-2.7526,-2.6356,-2.6566,-2.6469,-2.5907,-2.5893,-2.5893,-2.5893,-2.595,-2.5978,-2.6006,-2.727,-2.789,-2.7932,-2.9083,-2.9574,-2.949,-2.8928,-2.8982,-2.9369,-2.8827,-2.8575,-2.8514,-2.8549,-2.8521,-2.8406,-2.7436,-2.8485,-3.0143,-2.8855,-2.9045,-2.9975,-3.071,-3.0596,-3.0182,-3.0192,-3.0382,-3.0548,-3.0528,-3.0541,-3.0841,-3.1892,-3.1828,-3.1539,-3.1805,-3.2338,-3.2693,-3.2526,-3.2967,-3.3382,-3.3382,-3.3417,-3.3452,-3.3452,-3.3859,-3.4172,-3.4172,-3.4643,-3.5154,-3.5655,-3.5752,-3.5943,-3.646,-3.6538,-3.6584,-3.6584,-3.7215,-3.7323,-3.6707,-3.7261,-3.7584,-3.7584,-3.8246,-3.8893,-3.9474,-3.9551,-3.9551,-3.9474,-3.8831,-3.8508,-3.8508,-3.8569,-3.86,-3.86,-3.8662,-3.8692,-3.8739,-3.9354,-3.9582,-3.9644,-4.0259,-4.0489,-4.0489,-4.0489,-4.0489,-4.0489,-2.6951,-2.686,-2.6905,-2.7244,-2.7609,-2.7762,-2.7406,-2.7656,-2.7817,-2.7695,-2.6538,-2.6226,-2.7547,-2.6633,-2.6471,-2.7792,-2.7903,-2.7797,-2.7507,-2.7005,-2.6599,-2.6328,-2.6156,-2.602,-2.5893,-2.5893,-2.5893,-2.5893,-2.6371,-2.661,-2.6638,-2.7902,-2.8493,-2.8535,-2.9265,-2.935,-2.8886,-2.8759,-2.8441,-2.8033,-2.8003,-2.7662,-2.713,-2.7194,-2.7214,-2.7101,-2.6428,-2.7437,-2.9164,-2.9803,-3.0802,-3.1733,-3.1441,-3.1394,-3.1391,-3.1249,-3.1454,-3.1689,-3.1528,-3.1839,-3.2266,-3.2492,-3.2727,-3.2785,-3.2546,-3.2834,-3.3164,-3.3108,-3.3547,-3.3928,-3.3928,-3.4254,-3.4558,-3.4558,-3.4658,-3.4725,-3.4725,-3.5187,-3.5591,-3.5688,-3.6085,-3.6352,-3.6492,-3.6969,-3.7277,-3.7277,-3.7908,-3.8231,-3.8077,-3.82,-3.8292,-3.8292,-3.8921,-3.9336,-3.949,-4.0013,-4.0013,-3.9474,-3.8831,-3.8508,-3.8523,-3.9029,-3.9259,-3.929,-3.9828,-4.0059,-4.0074,-4.0213,-4.0274,-4.029,-4.0428,-4.0489,-4.0489,-4.0489,-4.0489,-4.0489,-2.6977,-2.7041,-2.717,-2.7376,-2.7843,-2.806,-2.7682,-2.7771,-2.7973,-2.8144,-2.6987,-2.6616,-2.7932,-2.7194,-2.6876,-2.7528,-2.7668,-2.7579,-2.7302,-2.666,-2.6313,-2.6313,-2.6029,-2.5893,-2.5893,-2.6174,-2.6188,-2.5893,-2.6512,-2.6961,-2.7298,-2.824,-2.8844,-2.9125,-2.9167,-2.8998,-2.8647,-2.8057,-2.7752,-2.766,-2.7406,-2.7096,-2.675,-2.6791,-2.6807,-2.6764,-2.6441,-2.772,-2.9757,-3.1007,-3.1864,-3.23,-3.1682,-3.1758,-3.2075,-3.1951,-3.2291,-3.2648,-3.2542,-3.273,-3.298,-3.298,-3.3122,-3.3241,-3.3051,-3.3136,-3.3382,-3.3632,-3.3879,-3.4172,-3.4442,-3.471,-3.4909,-3.4909,-3.5106,-3.5285,-3.5285,-3.5752,-3.6085,-3.6085,-3.632,-3.6615,-3.6953,-3.7292,-3.7631,-3.7954,-3.8616,-3.8846,-3.8523,-3.8816,-3.8985,-3.8985,-3.9339,-3.9644,-3.9967,-4.032,-4.032,-3.9967,-3.9613,-3.9428,-3.9493,-3.9797,-3.9967,-3.9982,-4.0336,-4.0489,-4.0489,-4.0489,-4.0489,-4.0489,-4.0489,-4.0489,-4.0489,-4.0489,-4.0489,-4.0489,-2.7003,-2.7119,-2.7233,-2.7376,-2.7843,-2.8132,-2.7963,-2.7856,-2.7956,-2.8462,-2.7368,-2.7052,-2.839,-2.783,-2.7427,-2.755,-2.755,-2.7389,-2.6968,-2.6646,-2.6513,-2.6627,-2.6241,-2.6048,-2.6048,-2.654,-2.6512,-2.5893,-2.6624,-2.72,-2.7651,-2.8269,-2.8802,-2.9265,-2.8759,-2.8478,-2.831,-2.7256,-2.7115,-2.7559,-2.6904,-2.675,-2.6916,-2.6722,-2.6778,-2.6975,-2.6975,-2.8507,-3.068,-3.1977,-3.2328,-3.2159,-3.1654,-3.1907,-3.2384,-3.2286,-3.2764,-3.3262,-3.315,-3.3206,-3.329,-3.329,-3.3382,-3.3452,-3.3452,-3.3452,-3.3577,-3.4016,-3.4254,-3.4509,-3.4942,-3.5106,-3.5172,-3.5172,-3.5559,-3.5831,-3.5831,-3.6226,-3.6492,-3.6492,-3.6599,-3.6892,-3.7446,-3.7707,-3.8077,-3.8646,-3.9308,-3.9447,-3.8893,-3.9351,-3.9659,-3.9659,-3.9659,-3.992,-4.0489,-4.0489,-4.0489,-4.0489,-4.0489,-4.0489,-4.0489,-4.0489,-4.0489,-4.0489,-4.0489,-4.0489,-4.0489,-4.0489,-4.0489,-4.0489,-4.0489,-4.0489,-4.0489,-4.0489,-4.0489,-4.0489,-2.7003,-2.7119,-2.7233,-2.7376,-2.7548,-2.7607,-2.7351,-2.7314,-2.7404,-2.7808,-2.7202,-2.7028,-2.7753,-2.726,-2.691,-2.691,-2.691,-2.7113,-2.755,-2.7319,-2.7411,-2.7926,-2.7145,-2.6694,-2.6694,-2.6764,-2.6512,-2.5893,-2.7102,-2.7397,-2.6947,-2.7593,-2.7974,-2.8044,-2.7974,-2.7593,-2.7059,-2.6877,-2.6812,-2.6808,-2.6245,-2.6603,-2.7366,-2.6399,-2.6694,-2.7679,-2.7679,-2.8886,-3.068,-3.1977,-3.2047,-3.1597,-3.1527,-3.1907,-3.23,-3.1766,-3.2426,-3.3178,-3.2665,-3.2918,-3.329,-3.329,-3.3632,-3.3982,-3.3982,-3.3982,-3.4016,-3.4085,-3.4843,-3.5527,-3.5591,-3.5958,-3.6289,-3.6289,-3.6352,-3.6383,-3.6383,-3.646,-3.6492,-3.6492,-3.7015,-3.74,-3.7492,-3.8554,-3.9277,-3.9351,-3.9982,-4.032,-4.0228,-4.0305,-4.0351,-4.0351,-4.0351,-4.0397,-4.0489,-4.0489,-4.0489,-4.0489,-4.0489,-4.0489,-4.0489,-4.0489,-4.0489,-4.0489,-4.0489,-4.0489,-4.0489,-4.0489,-4.0489,-4.0489,-4.0489,-4.0489,-4.0489,-4.0489,-4.0489,-4.0489,-2.7119,-2.7155,-2.7233,-2.7376,-2.7514,-2.7524,-2.7233,-2.7207,-2.7207,-2.7198,-2.6968,-2.6895,-2.7171,-2.6953,-2.7096,-2.7808,-2.7866,-2.7955,-2.8245,-2.7966,-2.7754,-2.7711,-2.6792,-2.6624,-2.734,-2.6989,-2.6849,-2.6947,-2.7538,-2.7665,-2.7369,-2.8001,-2.8282,-2.8282,-2.796,-2.7651,-2.7326,-2.6961,-2.679,-2.6739,-2.6512,-2.693,-2.7612,-2.6735,-2.7186,-2.838,-2.9069,-3.0066,-3.1092,-3.1288,-3.164,-3.1878,-3.1176,-3.185,-3.2792,-3.2188,-3.2623,-3.336,-3.355,-3.3801,-3.4138,-3.4599,-3.4883,-3.5014,-3.4861,-3.5073,-3.5204,-3.5041,-3.5382,-3.5784,-3.6085,-3.6352,-3.6492,-3.6492,-3.6492,-3.6492,-3.6492,-3.6492,-3.6492,-3.6492,-3.7092,-3.7646,-3.8031,-3.8921,-3.9677,-4.0013,-4.032,-4.0489,-4.0489,-4.0489,-4.0489,-4.0489,-4.0489,-4.0489,-4.0489,-4.0489,-4.0489,-4.0489,-4.0489,-4.0489,-4.0489,-4.0489,-4.0489,-4.0489,-4.0489,-4.0489,-4.0489,-4.0489,-4.0489,-4.0489,-4.0489,-4.0489,-4.0489,-4.0489,-4.0489,-4.0489]},{"header":{"parameterUnit":"m.s-1","parameterCategory":1,"la1":30.6,"la2":28.766,"lo1":-90.7593,"lo2":-88.6598,"dy":0.0162,"dx":0.0183,"nx":116,"ny":114,"refTime":"2024-03-29T18:00:00:Z","depth":0,"parameterNumber":3,"parameterNumberName":"V-component_of_WINDS"},"data":[0.0,0.0,0.0,0.0,0.0,0.0,0.0,0.0,0.0,0.0,0.0,0.0,0.0,0.0,0.0,0.0,0.0,0.0,0.0,0.0,0.0,0.0,0.0,0.0,0.0,0.0,0.0,0.0,0.0,0.0,0.0,0.0,0.0,0.0,0.0,0.0,0.0,0.0,0.0,0.0,0.0,0.0,0.0,0.0,0.0,0.0,0.0,0.0,0.0,0.0,0.0,0.0,0.0,0.0,0.0,0.0,0.0,0.0,0.0,0.0,0.0,0.0,0.0,0.0,0.0,0.0,0.0,0.0,0.0,0.0,0.0,0.0,0.0,0.0,0.0,0.0,0.0,0.0,0.0,0.0,0.0,0.0,0.0,0.0,0.0,0.0,0.0,0.0,0.0,0.0,0.0,0.0,0.0,0.0,0.0,0.0,0.0,0.0,0.0,0.0,0.0,0.0,0.0,0.0,0.0,0.0,0.0,0.0,0.0,0.0,0.0,0.0,0.0,0.0,0.0,0.0,0.0,0.0,0.0,0.0,0.0,0.0,0.0,0.0,0.0,0.0,0.0,0.0,0.0,0.0,0.0,0.0,0.0,0.0,0.0,0.0,0.0,0.0,0.0,0.0,0.0,0.0,0.0,0.0,0.0,0.0,0.0,0.0,0.0,0.0,0.0,0.0,0.0,0.0,0.0,0.0,0.0,0.0,0.0,0.0,0.0,0.0,0.0,0.0,0.0,0.0,0.0,0.0,0.0,0.0,0.0,0.0,0.0,0.0,0.0,0.0,0.0,0.0,0.0,0.0,0.0,0.0,0.0,0.0,0.0,0.0,0.0,0.0,0.0,0.0,0.0,0.0,0.0,0.0,0.0,0.0,0.0,0.0,0.0,0.0,0.0,0.0,0.0,0.0,0.0,0.0,0.0,0.0,0.0,0.0,0.0,0.0,0.0,0.0,0.0,0.0,0.0,0.0,0.0,0.0,0.0,0.0,0.0,0.0,0.0,0.0,0.0,0.0,0.0,0.0,0.0,0.0,0.0,0.0,0.0,0.0,0.0,0.0,0.0,0.0,0.0,0.0,0.0,0.0,0.0,0.0,0.0,0.0,0.0,0.0,0.0,0.0,0.0,0.0,0.0,0.0,0.0,0.0,0.0,0.0,0.0,0.0,0.0,0.0,0.0,0.0,0.0,0.0,0.0,0.0,0.0,0.0,0.0,0.0,0.0,0.0,0.0,0.0,0.0,0.0,0.0,0.0,0.0,0.0,0.0,0.0,0.0,0.0,0.0,0.0,0.0,0.0,0.0,0.0,0.0,0.0,0.0,0.0,0.0,0.0,0.0,0.0,0.0,0.0,0.0,0.0,0.0,0.0,0.0,0.0,0.0,0.0,0.0,0.0,0.0,0.0,0.0,0.0,0.0,0.0,0.0,0.0,0.0,0.0,0.0,0.0,0.0,0.0,0.0,0.0,0.0,0.0,0.0,0.0,0.0,0.0,0.0,0.0,0.0,0.0,0.0,0.0,0.0,0.0,0.0,0.0,0.0,0.0,0.0,0.0,0.0,0.0,0.0,0.0,0.0,0.0,0.0,0.0,0.0,0.0,0.0,0.0,0.0,0.0,0.0,0.0,0.0,0.0,0.0,0.0,0.0,0.0,0.0,0.0,0.0,0.0,0.0,0.0,0.0,0.0,0.0,0.0,0.0,0.0,0.0,0.0,0.0,0.0,0.0,0.0,0.0,0.0,0.0,0.0,0.0,0.0,0.0,0.0,0.0,0.0,0.0,0.0,0.0,0.0,0.0,0.0,0.0,0.0,0.0,0.0,0.0,0.0,0.0,0.0,0.0,0.0,0.0,0.0,0.0,0.0,0.0,0.0,0.0,0.0,0.0,0.0,0.0,0.0,0.0,0.0,0.0,0.0,0.0,0.0,0.0,0.0,0.0,0.0,0.0,0.0,0.0,0.0,0.0,0.0,0.0,0.0,0.0,0.0,0.0,0.0,0.0,0.0,0.0,0.0,0.0,0.0,0.0,0.0,0.0,0.0,0.0,0.0,0.0,0.0,0.0,0.0,0.0,0.0,0.0,0.0,0.0,0.0,0.0,0.0,0.0,0.0,0.0,0.0,0.0,0.0,0.0,0.0,0.0,0.0,0.0,0.0,0.0,0.0,0.0,0.0,0.0,0.0,0.0,0.0,0.0,0.0,0.0,0.0,0.0,0.0,0.0,0.0,0.0,0.0,0.0,0.0,0.0,0.0,0.0,0.0,0.0,0.0,0.0,0.0,0.0,0.0,0.0,0.0,0.0,0.0,0.0,0.0,0.0,0.0,0.0,0.0,0.0,0.0,0.0,0.0,0.0,0.0,0.0,0.0,0.0,0.0,0.0,0.0,0.0,0.0,0.0,0.0,0.0,0.0,0.0,0.0,0.0,0.0,0.0,0.0,0.0,0.0,0.0,0.0,0.0,0.0,0.0,0.0,0.0,0.0,0.0,0.0,0.0,0.0,0.0,0.0,0.0,0.0,0.0,0.0,0.0,0.0,0.0,0.0,0.0,0.0,0.0,0.0,0.0,0.0,0.0,0.0,0.0,0.0,0.0,0.0,0.0,0.0,0.0,0.0,0.0,0.0,0.0,0.0,0.0,0.0,0.0,0.0,0.0,0.0,0.0,0.0,0.0,0.0,0.0,0.0,0.0,0.0,0.0,0.0,0.0,0.0,0.0,0.0,0.0,0.0,0.0,0.0,0.0,0.0,0.0,0.0,0.0,0.0,0.0,0.0,0.0,0.0,0.0,0.0,0.0,0.0,0.0,0.0,0.0,0.0,0.0,0.0,0.0,0.0,0.0,0.0,0.0,0.0,0.0,0.0,0.0,0.0,0.0,0.0,0.0,0.0,0.0,0.0,0.0,0.0,0.0,0.0,0.0,0.0,0.0,0.0,0.0,0.0,0.0,0.0,0.0,0.0,0.0,0.0,0.0,0.0,0.0,0.0,0.0,0.0,0.0,0.0,0.0,0.0,0.0,0.0,0.0,0.0,0.0,0.0,0.0,0.0,0.0,0.0,0.0,0.0,0.0,0.0,0.0,0.0,0.0,0.0,0.0,0.0,0.0,0.0,0.0,0.0,0.0,0.0,0.0,0.0,0.0,0.0,0.0,0.0,0.0,0.0,0.0,0.0,0.0,0.0,0.0,0.0,0.0,0.0,0.0,0.0,0.0,0.0,0.0,0.0,0.0,0.0,0.0,0.0,0.0,0.0,0.0,0.0,0.0,0.0,0.0,0.0,0.0,0.0,0.0,0.0,0.0,0.0,0.0,0.0,0.0,0.0,0.0,0.0,0.0,0.0,0.0,0.0,0.0,0.0,0.0,0.0,0.0,0.0,0.0,0.0,0.0,0.0,0.0,0.0,0.0,0.0,0.0,0.0,0.0,0.0,0.0,0.0,0.0,0.0,0.0,0.0,0.0,0.0,0.0,0.0,0.0,0.0,0.0,0.0,0.0,0.0,0.0,0.0,0.0,0.0,0.0,0.0,0.0,0.0,0.0,0.0,0.0,0.0,0.0,0.0,0.0,0.0,0.0,0.0,0.0,0.0,0.0,0.0,0.0,0.0,0.0,0.0,0.0,0.0,0.0,0.0,0.0,0.0,0.0,0.0,0.0,0.0,0.0,0.0,0.0,0.0,0.0,0.0,0.0,0.0,0.0,0.0,0.0,0.0,0.0,0.0,0.0,0.0,0.0,0.0,0.0,0.0,0.0,0.0,0.0,0.0,0.0,0.0,0.0,0.0,0.0,0.0,0.0,0.0,0.0,0.0,0.0,0.0,0.0,0.0,0.0,0.0,0.0,0.0,0.0,0.0,0.0,0.0,0.0,0.0,0.0,0.0,0.0,0.0,0.0,0.0,0.0,0.0,0.0,0.0,0.0,0.0,0.0,0.0,0.0,0.0,0.0,0.0,0.0,0.0,0.0,0.0,0.0,0.0,0.0,0.0,0.0,0.0,0.0,0.0,0.0,0.0,0.0,0.0,0.0,0.0,0.0,0.0,0.0,0.0,0.0,0.0,0.0,0.0,0.0,0.0,0.0,0.0,0.0,0.0,0.0,0.0,0.0,0.0,0.0,0.0,0.0,0.0,0.0,0.0,0.0,0.0,0.0,0.0,0.0,0.0,0.0,0.0,0.0,0.0,0.0,0.0,0.0,0.0,0.0,0.0,0.0,0.0,0.0,0.0,0.0,0.0,0.0,0.0,0.0,0.0,0.0,0.0,0.0,0.0,0.0,0.0,0.0,0.0,0.0,0.0,0.0,0.0,0.0,0.0,0.0,0.0,0.0,0.0,0.0,0.0,0.0,0.0,0.0,0.0,0.0,0.0,0.0,0.0,0.0,0.0,0.0,0.0,0.0,0.0,0.0,0.0,0.0,0.0,0.0,0.0,0.0,0.0,0.0,0.0,0.0,0.0,0.0,0.0,0.0,0.0,0.0,0.0,0.0,0.0,0.0,0.0,0.0,0.0,0.0,0.0,0.0,0.0,0.0,0.0,0.0,0.0,0.0,0.0,0.0,0.0,0.0,0.0,0.0,0.0,0.0,0.0,0.0,0.0,0.0,0.0,0.0,0.0,0.0,0.0,0.0,0.0,0.0,0.0,0.0,0.0,0.0,0.0,0.0,0.0,0.0,0.0,0.0,0.0,0.0,0.0,0.0,0.0,0.0,0.0,0.0,0.0,0.0,0.0,0.0,0.0,0.0,0.0,0.0,0.0,0.0,0.0,0.0,0.0,0.0,0.0,0.0,0.0,0.0,0.0,0.0,0.0,0.0,0.0,0.0,0.0,0.0,0.0,0.0,0.0,0.0,0.0,0.0,0.0,0.0,0.0,0.0,0.0,0.0,0.0,0.0,0.0,0.0,0.0,0.0,0.0,0.0,0.0,0.0,0.0,0.0,0.0,0.0,0.0,0.0,0.0,0.0,0.0,0.0,0.0,0.0,0.0,0.0,0.0,0.0,0.0,0.0,0.0,0.0,0.0,0.0,0.0,0.0,0.0,0.0,0.0,0.0,0.0,0.0,0.0,0.0,0.0,0.0,0.0,0.0,0.0,0.0,0.0,0.0,0.0,0.0,0.0,0.0,0.0,0.0,0.0,0.0,0.0,0.0,0.0,0.0,0.0,0.0,0.0,0.0,0.0,0.0,0.0,0.0,0.0,0.0,0.0,0.0,0.0,0.0,0.0,0.0,0.0,0.0,0.0,0.0,0.0,0.0,0.0,0.0,0.0,0.0,0.0,0.0,0.0,0.0,0.0,0.0,0.0,0.0,0.0,0.0,0.0,0.0,0.0,0.0,0.0,0.0,0.0,0.0,0.0,0.0,0.0,0.0,0.0,0.0,0.0,0.0,0.0,0.0,0.0,0.0,0.0,0.0,0.0,0.0,0.0,0.0,0.0,0.0,0.0,0.0,0.0,0.0,0.0,0.0,0.0,0.0,0.0,0.0,0.0,0.0,0.0,0.0,0.0,0.0,0.0,0.0,0.0,0.0,0.0,0.0,0.0,0.0,0.0,0.0,0.0,0.0,0.0,0.0,0.0,0.0,0.0,0.0,0.0,0.0,0.0,0.0,0.0,0.0,0.0,0.0,0.0,0.0,0.0,0.0,0.0,0.0,0.0,0.0,0.0,0.0,0.0,0.0,0.0,0.0,0.0,0.0,0.0,0.0,0.0,0.0,0.0,0.0,0.0,0.0,0.0,0.0,0.0,0.0,0.0,0.0,0.0,0.0,0.0,0.0,0.0,0.0,0.0,0.0,0.0,0.0,0.0,0.0,0.0,0.0,0.0,0.0,0.0,0.0,0.0,0.0,0.0,0.0,0.0,0.0,0.0,0.0,0.0,0.0,0.0,0.0,0.0,0.0,0.0,0.0,0.0,0.0,0.0,0.0,0.0,0.0,0.0,0.0,0.0,0.0,0.0,0.0,0.0,0.0,0.0,0.0,0.0,0.0,0.0,0.0,0.0,0.0,0.0,0.0,0.0,0.0,0.0,0.0,0.0,0.0,0.0,0.0,0.0,0.0,0.0,0.0,0.0,0.0,0.0,0.0,0.0,0.0,0.0,0.0,0.0,1.0178,0.8487,0.0,0.0,0.0,0.0,0.0,0.0,0.0,0.0,0.0,0.0,0.0,0.0,0.0,0.0,0.0,0.0,0.0,0.0,0.0,0.0,0.0,0.0,0.0,0.5769,0.578,0.5442,0.5139,0.477,0.4284,0.0,0.0,0.0,0.0,0.0,0.8278,1.0379,1.2248,1.3856,1.5003,1.6097,1.7075,1.584,1.3376,0.9875,0.0,0.0,0.0,0.0,0.0,0.0,0.0,0.0,0.0,0.0,0.0,0.0,0.0,0.0,0.0,0.0,0.0,0.0,0.0,0.0,0.0,0.0,0.0,0.0,0.0,0.0,0.0,0.0,0.0,0.0,0.0,0.0,0.0,0.0,0.0,0.0,0.0,0.0,0.0,0.0,0.0,0.0,0.0,0.0,0.0,0.0,0.0,0.0,0.0,0.0,0.0,0.0,0.0,0.0,0.0,0.0,0.0,0.0,0.0,0.0,0.0,0.0,0.0,0.0,0.0,0.0,0.0,0.0,0.0,0.0,1.3778,1.1918,0.0,0.0,0.0,0.0,0.0,0.0,0.0,0.0,0.0,0.0,0.0,0.0,0.0,0.0,0.0,0.0,0.0,0.0,0.0,0.0,0.0,0.6381,0.6542,0.6709,0.6562,0.5934,0.5794,0.5365,0.4565,0.4329,0.0,0.0,0.6158,0.7489,0.9158,1.1654,1.3768,1.5513,1.7619,1.9435,2.0928,2.0551,1.8047,1.3674,1.1744,0.0,0.0,0.0,0.0,0.0,0.0,0.0,0.0,0.0,0.0,0.0,0.0,0.0,0.0,0.0,0.0,0.0,0.0,0.0,0.0,0.0,0.0,0.0,0.0,0.0,0.0,0.0,0.0,0.0,0.0,0.0,0.0,0.0,0.0,0.0,0.0,0.0,0.0,0.0,0.0,0.0,0.0,0.0,0.0,0.0,0.0,0.0,0.0,0.0,0.0,0.0,0.0,0.0,0.0,0.0,0.0,0.0,0.0,0.0,0.0,0.0,0.0,0.0,2.0443,2.0348,1.977,2.0232,2.011,1.9495,1.8161,1.6519,1.4684,1.336,0.0,0.0,0.0,0.0,0.0,0.0,0.0,0.0,0.0,0.0,0.0,0.0,0.0,0.0,0.0,0.0,0.0,0.0,0.0,0.7589,0.7609,0.7816,0.7932,0.7827,0.653,0.5714,0.5683,0.4812,0.4704,0.5672,0.7056,0.8878,1.1181,1.3481,1.5756,1.7949,2.0698,2.2819,2.4251,2.3825,2.2736,2.1024,1.7039,0.0,0.0,0.0,0.0,0.0,0.0,0.0,0.0,0.0,0.0,0.0,0.0,0.0,0.0,0.0,0.0,0.0,0.0,0.0,0.0,0.0,0.0,0.0,0.0,0.0,0.0,0.0,0.0,0.0,0.0,0.0,0.0,0.0,0.0,0.0,0.0,0.0,0.0,0.0,0.0,0.0,0.0,0.0,1.8346,1.8354,0.0,0.0,0.0,0.0,0.0,0.0,0.0,0.0,0.0,0.0,0.0,0.0,0.0,2.162,2.3217,2.426,2.4935,2.5276,2.5816,2.5858,2.5391,2.5074,2.4401,2.3495,2.4007,0.0,1.7859,1.5959,0.0,0.0,0.0,0.0,0.0,0.0,0.0,0.0,0.0,0.0,0.0,0.0,0.0,0.0,0.0,0.0,0.0,0.0,0.0,0.0,0.0,0.9242,0.915,0.8761,0.8136,0.7147,0.5723,0.5761,0.6006,0.6392,0.791,1.0001,1.2776,1.4771,1.7673,2.1559,2.411,2.5728,2.6465,2.6557,2.5952,2.4655,2.2661,1.9297,1.5042,1.4402,0.0,0.0,0.0,0.0,0.0,0.0,0.0,0.0,0.0,0.0,0.0,0.0,0.0,0.0,0.0,0.0,0.0,0.0,0.0,0.0,0.0,0.0,0.0,0.0,0.0,0.0,0.0,0.0,0.0,0.0,0.0,0.0,0.0,0.0,0.0,0.0,0.0,0.0,0.0,1.9194,1.9591,1.8835,1.8591,1.8297,0.0,0.0,0.0,0.0,0.0,0.0,0.0,0.0,0.0,2.3557,2.4399,2.5262,2.6182,2.7008,2.7355,2.7273,2.7773,2.7518,2.6689,2.6715,2.621,2.5241,2.5095,2.4011,2.2197,2.0253,1.8343,1.6668,0.0,0.0,0.0,0.0,1.594,1.6056,0.0,0.0,0.0,0.0,0.0,0.0,0.0,0.0,0.0,0.0,0.0,0.0,1.0501,1.0662,1.0513,1.0045,0.971,0.8691,0.6724,0.7057,0.7421,0.7668,0.9369,1.1653,1.4473,1.7229,2.0854,2.5423,2.728,2.8379,2.8785,2.9018,2.8496,2.7359,2.7268,2.4213,1.9088,1.8109,1.656,0.0,0.0,0.0,0.0,0.0,0.0,0.0,0.0,0.0,0.0,0.0,0.0,0.0,0.0,0.0,0.0,0.0,0.0,0.0,0.0,0.0,0.0,0.0,0.0,0.0,0.0,0.0,0.0,0.0,0.0,0.0,0.0,0.0,0.0,0.0,0.0,0.0,0.0,2.0955,2.1199,2.0044,2.0647,2.0693,0.0,0.0,0.0,0.0,0.0,0.0,2.3581,2.4987,2.6274,2.7307,2.7862,2.8421,2.8927,2.9152,2.9105,2.8881,2.8892,2.8415,2.7568,2.7788,2.7412,2.6487,2.5905,2.547,2.5084,2.3295,2.1221,1.9131,1.9125,1.8694,1.8165,1.8913,1.9247,1.9472,0.0,0.0,0.0,0.0,0.0,0.0,0.0,0.0,0.0,0.0,0.0,1.0339,1.1686,1.199,1.2221,1.2492,1.0887,0.9881,0.9862,0.8768,0.8602,0.9691,1.1892,1.4166,1.6517,2.1874,2.6179,2.9305,3.002,3.0801,3.1677,3.1071,3.0512,3.0001,3.0017,2.7619,2.35,2.2494,2.0711,1.8467,0.0,0.0,0.0,0.0,0.0,0.0,0.0,0.0,0.0,0.0,0.0,0.0,0.0,0.0,0.0,0.0,0.0,0.0,0.0,0.0,0.0,0.0,0.0,0.0,0.0,0.0,0.0,0.0,0.0,0.0,0.0,0.0,0.0,0.0,0.0,0.0,0.0,0.0,0.0,2.4313,2.5224,0.0,0.0,0.0,0.0,2.5716,2.5895,2.6252,2.6897,2.7248,2.8088,2.9594,2.9852,3.062,3.1947,3.1013,3.0763,3.1213,2.9938,2.9442,2.9624,2.9194,2.8538,2.7723,2.8002,2.6933,2.4919,2.3553,2.3113,2.3236,2.28,2.2398,2.2087,2.2706,2.2807,2.2711,0.0,0.0,0.0,0.0,0.0,0.3175,0.3333,0.4963,0.6503,0.7291,0.9396,1.1272,1.2527,1.3282,1.3624,1.3492,1.2781,1.1936,1.0953,1.0851,1.1127,1.1746,1.4012,1.7369,2.1832,2.5695,2.8576,3.0438,3.1415,3.2004,3.2158,3.1903,3.162,3.1306,3.1694,3.1033,2.9463,2.7158,2.4525,2.183,2.1276,1.9799,0.0,0.0,0.0,0.0,0.0,0.0,0.0,0.0,0.0,0.0,0.0,0.0,0.0,0.0,0.0,0.0,0.0,0.0,0.0,0.0,0.0,0.0,0.0,0.0,0.0,0.0,0.0,0.0,0.0,0.0,0.0,0.0,0.0,0.0,0.0,0.0,0.0,2.6498,2.7363,0.0,2.6166,2.655,2.6914,2.7042,2.8383,2.9284,2.9355,3.0481,3.1382,3.1889,3.164,3.1709,3.2215,3.1486,3.1035,3.0884,3.0415,3.004,2.9792,2.93,2.8922,2.8585,2.7777,2.7036,2.6332,2.5042,2.4124,2.3602,2.3642,2.3368,2.2977,2.3697,2.4108,2.4361,0.0,0.0,0.0,0.0,0.3292,0.3634,0.3722,0.4977,0.6276,0.731,0.9617,1.1771,1.3268,1.4342,1.4911,1.4761,1.4198,1.3432,1.235,1.2735,1.3086,1.3401,1.6343,2.0368,2.5515,2.7864,2.994,3.1705,3.2536,3.2814,3.2641,3.2734,3.2544,3.2178,3.3035,3.3334,3.3088,3.1527,2.8875,2.5692,2.5084,2.3756,2.205,0.0,0.0,0.0,0.0,0.0,0.0,0.0,0.0,0.0,0.0,0.0,0.0,0.0,0.0,0.0,0.0,0.0,0.0,0.0,0.0,0.0,0.0,0.0,0.0,0.0,0.0,0.0,0.0,0.0,0.0,0.0,0.0,0.0,0.0,2.7375,2.8787,2.8598,3.0001,3.0349,2.874,2.9581,3.006,2.9606,3.0937,3.1675,3.1559,3.2543,3.3124,3.3124,3.234,3.2026,3.2215,3.1311,3.0771,3.062,3.0328,3.0052,2.9792,2.9248,2.9052,2.9042,2.7803,2.7193,2.7026,2.6058,2.5072,2.4209,2.4476,2.4409,2.4181,2.4791,2.5229,2.5594,0.0,0.0,0.0,0.3448,0.3761,0.373,0.3602,0.4581,0.5822,0.7308,0.9543,1.1813,1.3854,1.5164,1.6012,1.6363,1.5041,1.4233,1.4272,1.4304,1.449,1.4791,1.8949,2.3137,2.7166,2.8476,3.0473,3.3319,3.3404,3.342,3.3319,3.3607,3.334,3.2676,3.4025,3.4368,3.406,3.5352,3.3688,3.0066,2.9398,2.825,2.6789,0.0,0.0,0.0,0.0,0.0,0.0,0.0,0.0,0.0,0.0,0.0,0.0,0.0,0.0,0.0,0.0,0.0,0.0,0.0,0.0,0.0,0.0,0.0,0.0,0.0,0.0,0.0,0.0,0.0,0.0,0.0,0.0,0.0,2.7323,2.9246,3.0712,3.0842,3.3326,3.4452,3.2915,3.4142,3.4677,3.3797,3.3513,3.3398,3.3398,3.3197,3.3124,3.3124,3.2001,3.1662,3.2177,3.0608,3.008,3.0583,2.977,2.956,2.9792,2.9131,2.8922,2.9067,2.8297,2.7583,2.6887,2.6505,2.5924,2.5312,2.55,2.5711,2.591,2.6131,2.6327,2.6461,0.0,0.0,0.0901,0.2549,0.2821,0.2971,0.3517,0.4515,0.5853,0.7571,0.9846,1.1895,1.35,1.4727,1.5587,1.5869,1.5081,1.5011,1.601,1.5657,1.6508,1.8992,2.2667,2.5871,2.8452,3.0346,3.2159,3.3873,3.43,3.4276,3.3873,3.4151,3.3958,3.3424,3.45,3.5197,3.5597,3.613,3.6021,3.5294,3.2903,3.104,2.9578,0.0,0.0,0.0,0.0,0.0,0.0,0.0,0.0,0.0,0.0,0.0,0.0,0.0,0.0,0.0,0.0,0.0,0.0,0.0,0.0,0.0,0.0,0.0,0.0,0.0,0.0,0.0,0.0,0.0,0.0,0.0,2.9941,3.136,2.9561,3.1175,3.2918,3.3911,3.4902,3.5265,3.4644,3.5143,3.5101,3.4076,3.3768,3.3556,3.3398,3.3197,3.3124,3.3124,3.2365,3.1863,3.1625,3.0796,3.0269,3.0018,2.9816,2.974,2.9792,2.926,2.9052,2.9042,2.7766,2.7105,2.6825,2.5949,2.548,2.5312,2.5347,2.55,2.5723,2.591,2.5928,2.5871,0.0,0.0232,0.0884,0.2209,0.2669,0.2893,0.3043,0.4059,0.5229,0.6348,0.8642,1.0594,1.1736,1.3313,1.427,1.4259,1.443,1.4865,1.5682,1.6437,1.8057,2.0807,0.0,2.6247,2.8497,3.0003,3.1612,3.3361,3.3645,3.3736,3.3646,3.4109,3.4176,3.388,3.4493,3.4995,3.5428,3.5903,3.6463,3.6983,3.5488,3.4254,3.3199,3.2124,3.1002,2.9881,2.8702,2.7306,2.5742,2.3891,0.0,0.0,0.0,0.0,0.0,0.0,0.0,0.0,0.0,0.0,0.0,0.0,0.0,0.0,0.0,0.0,0.0,0.0,0.0,0.0,0.0,0.0,0.0,0.0,3.2504,3.3853,3.2762,3.3873,3.5157,3.6102,3.6526,3.647,3.575,3.5912,3.5534,3.4202,3.3768,3.3513,3.3398,3.3197,3.3124,3.3124,3.2516,3.1951,3.1399,3.1085,3.0545,2.9792,3.003,3.0018,2.9792,2.9404,2.9157,2.9042,2.7878,2.7203,2.6825,2.5997,2.5504,2.5312,0.0,0.0,0.0,0.0,2.5918,2.5598,0.0,0.0454,0.1236,0.2119,0.287,0.3132,0.2528,0.3467,0.436,0.4581,0.679,0.8604,0.9389,1.1244,1.2351,1.2138,1.3289,1.419,1.4579,1.71,1.9329,2.1065,2.3156,2.5336,2.7637,2.851,2.9956,3.2013,3.2185,3.2478,3.2837,3.362,3.3984,3.3965,3.4038,3.4112,3.4242,3.4868,3.5498,3.6151,3.6873,3.7083,3.6871,3.5873,3.4773,3.3603,3.2357,3.075,2.9,2.7485,0.0,0.0,0.0,0.0,0.0,0.0,0.0,0.0,0.0,0.0,0.0,0.0,0.0,0.0,0.0,0.0,0.0,0.0,0.0,0.0,0.0,0.0,0.0,0.0,3.4379,3.5563,3.6377,3.6878,3.7261,3.7522,3.791,3.7705,3.6484,3.6464,3.5909,3.4314,3.3683,3.3398,3.3398,3.3197,0.0,0.0,0.0,3.2039,3.1486,3.1486,3.0947,2.9892,3.0382,3.0331,2.9792,2.9509,2.9275,2.9067,2.8309,2.7595,2.6849,2.6322,2.5781,2.5312,2.5312,2.5571,2.5945,2.6327,2.605,2.5511,0.0,-0.0378,0.0413,0.1278,0.1965,0.2568,0.312,0.3741,0.4419,0.5209,0.6407,0.7545,0.8449,0.9225,1.0187,1.1433,1.2001,1.3511,1.6381,1.8907,2.061,2.1228,2.3908,2.5691,2.634,2.864,3.0,3.0277,3.1589,3.2062,3.1825,3.2886,3.3266,3.3044,3.2742,3.2931,3.347,3.3072,3.3335,3.4089,3.5318,3.6715,3.803,3.7388,3.6652,3.5722,3.3878,3.2956,3.2156,2.9459,2.8167,2.7381,2.5564,0.0,0.0,0.0,0.0,0.0,0.0,0.0,0.0,0.0,0.0,0.0,0.0,0.0,0.0,0.0,0.0,0.0,0.0,0.0,0.0,3.5039,3.6668,3.7982,3.8662,3.887,3.8642,3.793,3.792,3.7777,3.7377,3.6719,3.5936,3.4909,3.3937,3.3398,3.3398,3.3197,3.3124,3.3124,3.3011,3.2629,3.2051,3.2051,3.1524,3.0457,3.057,0.0,2.9792,2.9509,2.9275,2.9067,2.8309,2.7595,2.6849,2.6322,2.5781,2.5312,2.55,2.5688,2.5945,2.6166,2.5702,2.4938,0.0,-0.0297,0.0589,0.104,0.1954,0.2674,0.2777,0.3549,0.42,0.442,0.5489,0.6394,0.6866,0.7482,0.8125,0.8715,1.0419,1.2931,1.6322,1.8762,2.0486,2.1496,2.3541,2.4906,2.5427,2.6889,2.8045,2.885,2.9797,3.044,3.0807,3.1613,3.1794,3.1438,3.0922,3.0543,3.0222,2.9943,3.0037,3.0499,3.1818,3.3324,3.4925,3.662,3.6836,3.6119,3.4926,3.425,3.357,3.1005,3.0181,2.9725,2.7108,2.5697,2.4798,0.0,0.0,0.0,0.0,0.0,0.0,0.0,0.0,0.0,0.0,0.0,0.0,0.0,0.0,3.1199,3.289,0.0,3.5813,3.699,3.8154,3.9035,3.9328,3.9388,3.9141,3.8449,3.8449,3.806,3.6897,3.6766,3.6201,3.495,3.4259,3.3894,3.3894,3.3411,3.3124,3.3124,3.3124,3.2805,3.2227,3.2503,3.1964,3.062,3.0884,3.0583,2.9792,2.965,2.9417,2.9042,2.8131,2.7416,2.6837,2.6045,2.554,2.5312,2.5535,2.5723,2.591,2.6131,2.5781,2.5209,0.0,-0.0147,0.0833,0.0979,0.2115,0.2855,0.245,0.3326,0.39,0.3498,0.4566,0.536,0.532,0.5908,0.6291,0.6277,0.9454,1.2673,1.5617,1.7842,1.9781,2.132,2.2497,2.3465,2.4197,2.4624,2.5528,2.6994,2.7446,2.8211,2.9305,2.9811,2.9816,2.9341,2.872,2.7814,2.6773,2.6489,2.6454,2.6709,2.7886,2.8937,3.0176,3.361,3.5125,3.5448,3.51,3.4574,3.3758,3.2055,3.1469,3.0987,2.8226,2.7444,2.7106,2.5253,2.4826,0.0,0.0,0.0,0.0,0.0,0.0,0.0,0.0,0.0,3.1002,3.3126,3.357,3.4196,3.6138,3.6905,3.751,3.8255,3.8799,3.9119,3.8943,3.887,3.8708,3.836,3.8745,3.836,3.661,3.6869,3.6582,3.5237,3.4827,3.4551,3.4397,3.3894,3.3441,3.3124,3.3441,3.3212,3.239,3.3013,3.2458,3.0771,3.1185,3.0834,2.9792,2.9792,2.9546,2.903,2.7887,2.7198,2.6813,2.5757,2.5312,2.5312,2.5535,2.5723,2.591,2.6131,2.5868,2.5448,0.0,-0.0574,0.0258,0.0959,0.1783,0.2484,0.3023,0.3552,0.383,0.3615,0.4347,0.4798,0.4642,0.433,0.4895,0.6754,1.0225,1.3157,1.5007,1.7072,1.8766,1.9982,2.0906,2.1508,2.1789,2.2874,2.3531,2.3727,2.4826,2.5743,2.6481,2.7109,2.7183,2.6683,2.6092,2.5604,2.5156,2.3749,2.3328,2.3744,2.4597,2.5021,2.5322,2.7083,3.0344,3.3913,3.3638,3.3172,3.2633,3.2181,3.1248,3.0278,3.0184,2.9429,2.831,2.7171,0.0,2.5089,2.4208,2.4624,2.5955,2.8526,2.9909,3.1561,0.0,0.0,3.6184,3.7405,3.7615,3.7697,3.8129,3.822,3.8249,3.8208,3.8308,3.806,3.7281,3.7035,3.6816,3.661,3.7933,3.8598,3.8,3.7323,3.6858,3.6663,3.5923,3.5156,3.4439,3.5006,3.4622,3.3154,3.4553,3.4555,3.3023,3.3827,3.3248,3.1298,3.1361,3.0834,2.9792,2.9792,2.9546,2.903,2.7571,2.6935,2.6813,2.5757,2.5312,2.5312,2.5535,2.5723,2.591,2.6131,2.5644,2.4876,0.0,0.0,-0.0336,0.0923,0.1725,0.2451,0.321,0.3639,0.386,0.3728,0.4226,0.4589,0.463,0.4495,0.4854,0.6037,0.8718,1.1305,1.3554,1.5836,1.7877,1.962,2.0033,2.0129,1.9965,2.0834,2.1387,2.1693,2.2746,2.3693,2.4483,2.5016,2.4906,2.4324,2.4307,2.3464,2.205,2.1356,2.0563,1.9793,2.0444,2.0861,2.1183,2.2808,2.462,2.6564,2.8572,2.9241,0.0,0.0,2.9388,2.9383,2.9184,2.8736,2.8064,2.7164,2.6432,0.0,2.6163,2.7433,2.9154,3.0971,3.228,3.3902,3.6867,3.7219,3.7507,3.9759,3.925,3.8743,3.9994,3.9219,3.8353,0.0,3.8202,3.7872,3.6841,3.6646,3.645,3.6108,3.6699,3.7011,3.6699,3.6805,3.6897,3.6897,3.6557,3.6201,3.587,3.5669,3.5264,3.4594,3.5224,3.5264,3.4553,3.4924,3.4096,3.2169,3.2169,3.1326,2.9792,2.9792,2.9372,2.8576,2.7412,2.6717,2.6382,2.5624,2.5312,2.5312,2.5382,2.5535,2.5758,2.5945,2.5847,2.5585,0.0,0.0,0.0,0.0931,0.1634,0.2273,0.3244,0.3674,0.3863,0.3792,0.4117,0.4353,0.4343,0.4589,0.4893,0.5198,0.7182,0.95,1.2025,1.4125,1.6223,1.8355,1.8526,1.84,1.8066,1.869,1.9232,1.9631,2.0458,2.126,2.2116,2.2488,2.2273,2.158,2.1979,2.1135,1.9471,1.9109,1.8125,1.6721,1.6951,1.712,1.7339,1.851,1.9191,1.9974,2.4007,2.5561,0.0,0.0,2.7064,2.7928,2.7298,2.7409,2.7606,2.6541,2.6321,2.6689,2.7694,2.9592,3.1649,3.3225,3.465,3.6291,3.8663,3.8842,3.9209,4.1634,4.0642,3.9757,4.1237,3.996,3.854,3.819,3.7924,3.7386,3.6306,3.5895,3.5574,3.5264,3.5142,3.5142,3.5278,3.6241,3.6897,3.6897,3.6989,3.6858,3.657,3.6241,3.5909,3.5615,3.6068,3.6108,3.5615,3.5829,3.4952,3.304,3.2804,3.1785,3.0101,2.9805,2.9232,2.8401,2.7559,2.6876,2.6286,2.5745,2.5444,2.5312,2.5347,2.5465,2.5606,2.5758,2.5847,2.5874,0.0,0.0,0.0,0.0,0.1329,0.1794,0.3189,0.3619,0.3785,0.3783,0.4022,0.4011,0.3478,0.4187,0.4637,0.4545,0.6336,0.8377,1.0536,1.1784,1.3347,1.5448,1.5771,1.589,1.589,1.6568,1.7008,1.7231,1.7687,1.8239,1.8837,1.9126,1.8888,1.8255,1.8546,1.8518,1.8174,1.6927,1.6033,1.5395,1.4709,1.4088,1.3635,1.3646,1.4438,1.6224,2.1223,0.0,0.0,0.0,2.4515,2.5742,2.4799,2.5936,0.0,2.5493,2.5744,2.6914,2.8287,3.0287,3.2649,3.5473,3.7433,3.9244,4.1474,4.2157,4.2547,4.337,4.2395,4.1445,4.1477,4.0324,3.9053,3.8075,3.7179,3.6267,3.5182,3.4134,3.3471,3.3471,3.3313,3.3526,3.4356,3.595,3.6897,3.6897,3.712,3.6794,3.5695,3.6663,3.6755,3.5615,3.7232,3.7309,3.5615,3.6439,3.5842,3.3853,3.3079,3.2071,3.082,2.9858,2.9172,2.8743,2.8208,2.7533,2.6825,2.6298,2.5769,2.5312,2.55,2.5606,2.5606,2.5618,2.5394,2.5157,0.0,0.0,0.0,0.0,0.0,0.1816,0.33,0.3689,0.3743,0.3623,0.3396,0.0,0.0,0.0,0.0,0.0,0.5516,0.7265,0.8513,0.9903,1.1534,1.3605,1.4139,1.4189,1.3686,1.4774,1.5175,1.4761,1.5641,1.6528,1.7423,1.7134,1.7196,1.7606,1.7296,1.7157,1.7043,1.6618,1.5349,1.3578,1.3349,1.2818,1.2249,1.2402,1.28,1.3596,0.0,0.0,0.0,0.0,0.0,0.0,2.4732,2.5293,2.562,2.5681,2.6896,2.841,2.9419,3.1921,3.4733,3.6657,3.8401,4.0132,4.2028,4.2299,4.2212,4.2361,4.0547,3.8913,3.897,3.7967,3.6943,3.6341,3.7239,3.7408,3.5605,3.5401,3.5033,3.3877,3.3664,0.0,3.4353,3.4909,3.5548,3.6255,3.6215,3.6334,3.6716,3.6911,3.713,3.7309,3.7872,3.7924,3.7309,3.7606,3.6751,3.4748,3.2423,3.0829,2.9896,2.9302,2.891,2.8767,2.8089,2.7659,2.7378,2.6837,2.6322,2.5829,2.5913,2.5732,2.5382,2.5382,2.5344,2.5222,0.0,0.0,0.0,0.0,0.0,0.0,0.0,0.0,0.0,0.0,0.0,0.0,0.0,0.0,0.0,0.0,0.0,0.5886,0.7236,0.8236,0.9548,1.1351,1.1886,1.1899,1.1446,1.2355,1.2649,1.226,1.3093,1.3814,1.443,1.4278,1.449,1.5027,1.4719,1.4719,1.4994,1.4549,1.3371,1.1707,1.1326,1.0758,1.0204,1.059,1.11,0.0,0.0,0.0,0.0,0.0,0.0,0.0,2.3456,2.405,2.4739,2.6348,2.7833,2.9248,3.0623,3.3133,3.5664,3.6958,3.859,4.0214,4.139,4.1659,4.1437,4.0856,3.8901,3.72,3.6967,3.6153,3.5479,3.5418,3.659,3.7201,3.613,3.5933,3.5466,3.4515,3.4219,3.405,0.0,0.0,3.4675,3.5386,3.5602,3.6002,3.6677,3.6911,3.739,3.8165,3.8202,3.8202,3.8202,3.8202,3.7014,3.4621,3.2062,3.0241,2.9184,2.9,2.8843,2.8673,2.8255,2.7924,2.7654,2.7318,2.6779,2.6093,2.6093,2.5769,2.5312,2.5312,2.5312,2.5312,0.0,0.0,0.0,0.0,0.0,0.0,0.0,0.0,0.0,0.0,0.0,0.0,0.0,0.0,0.0,0.0,0.0,0.0,0.6538,0.0,0.0,0.8747,0.9077,0.9227,0.9227,0.9461,0.9618,0.9687,1.0058,1.0212,1.0178,1.0686,1.087,1.0728,1.087,1.14,1.2068,1.0996,1.0285,0.9798,0.8835,0.8047,0.7552,0.8098,0.0,0.0,0.0,0.0,0.0,0.0,0.0,0.0,2.1475,2.2707,2.4933,2.7537,2.8662,2.9585,3.1834,3.3862,3.5541,3.6453,3.8022,3.9421,3.9771,4.0222,4.0189,3.8777,3.7361,3.6153,0.0,0.0,3.471,3.5265,3.5447,3.5877,3.681,3.5762,3.5036,0.0,0.0,0.0,0.0,0.0,3.4468,3.4468,3.5386,3.5843,3.5588,3.6663,3.7558,3.8127,3.8165,3.8202,3.8202,3.8144,3.6628,3.3684,3.1987,3.0393,2.8803,2.9013,2.8855,2.851,2.8685,2.8382,2.7678,2.7714,2.7103,2.6093,2.6129,2.5793,2.5312,2.5312,2.5312,2.5347,0.0,0.0,0.0,0.0,0.0,0.0,0.0,0.0,0.0,0.0,0.0,0.0,0.0,0.0,0.0,0.0,0.0,0.0,0.0,0.0,0.0,0.0,0.0,0.0,0.0,0.0,0.0,0.8389,0.8337,0.8716,0.949,0.8883,0.895,0.9652,0.8902,0.9138,1.0066,0.9741,0.8991,0.7977,0.0,0.755,0.7094,0.0,0.0,0.0,0.0,0.0,0.0,0.0,0.0,0.0,2.5854,2.7348,2.9214,3.0307,3.1157,3.196,3.2963,3.4273,3.5517,3.6157,3.6805,3.7342,3.7646,3.7035,3.602,3.4667,3.309,3.1838,0.0,0.0,0.0,3.4427,3.6852,0.0,3.769,3.7651,0.0,3.6316,0.0,3.5692,3.5032,3.5142,3.5264,3.5264,3.5548,3.548,3.4937,3.6269,3.7067,3.7208,3.7848,3.8202,3.8202,3.7259,3.5739,3.3684,3.2147,3.0506,2.8791,2.8697,2.859,2.851,2.855,2.8237,2.7714,2.815,2.744,2.6142,2.655,2.6105,2.5312,2.5312,2.5312,2.5312,0.0,0.0,0.0,0.0,0.0,0.0,0.0,0.0,0.0,0.0,0.0,0.0,0.0,0.0,0.0,0.0,0.0,0.0,0.0,0.0,0.0,0.0,0.0,0.0,0.0,0.0,0.0,0.0,0.0,0.0,0.7458,0.6951,0.701,0.7563,0.6964,0.7242,0.8077,0.7677,0.0,0.0,0.0,0.0,0.0,0.0,0.0,0.0,0.0,0.0,0.0,0.0,0.0,2.757,2.7996,2.9497,3.1266,3.1928,0.0,3.239,3.3245,3.3791,3.4129,3.4331,3.432,3.4242,3.4184,3.3523,3.2474,3.0884,2.9632,0.0,2.8712,3.0513,3.2326,0.0,0.0,0.0,3.8256,3.8245,3.7994,0.0,3.6931,0.0,3.5655,3.5949,3.6029,3.5615,3.5949,3.6002,3.5655,3.6819,3.7491,3.7491,3.7924,3.8202,3.8202,3.6611,3.5184,3.3927,3.1936,3.0519,2.9691,2.8882,2.8736,2.9133,2.8697,2.8342,2.805,2.839,2.7837,2.6815,2.6861,2.6369,2.5624,2.5396,2.5312,2.5312,0.0,0.0,0.0,0.0,0.0,0.0,0.0,0.0,0.0,0.0,0.1615,0.0,0.0,0.0,0.0,0.0,0.0,0.0,0.0,0.0,0.0,0.0,0.0,0.0,0.0,0.0,0.0,0.0,0.0,0.0,0.0,0.0,0.0,0.0,0.0,0.0,0.0,0.0,0.0,0.0,0.0,0.0,0.0,0.0,0.0,0.0,0.0,0.0,0.0,0.0,2.6105,2.8603,2.9014,3.0465,3.2104,3.265,3.2282,3.1909,3.3003,3.2854,3.2295,3.2001,3.1508,3.0957,3.025,2.9871,2.9143,2.7245,0.0,2.6391,2.6502,2.8398,3.049,3.222,0.0,3.7237,3.8568,3.8179,3.787,3.8161,3.7572,3.6805,3.6029,3.6635,3.6766,3.5989,3.6635,3.6961,3.6727,3.7644,3.8202,3.8202,3.8165,3.8127,3.8127,3.6253,3.4948,3.4183,3.1853,3.0761,3.0782,2.9367,2.9145,2.9884,2.8922,2.8474,2.8414,2.8474,2.8162,2.7534,2.7078,2.6549,2.6033,2.5504,2.5312,2.5312,0.0,0.0,0.0,0.0,0.0,0.0,0.0,0.0,0.0,0.0,0.0605,-0.0122,0.0,0.0,0.0,0.0,0.0,0.0,0.0,0.0,0.0,0.0,0.0,0.0,0.0,0.0,0.0,0.0,0.4474,0.0,0.0,0.0,0.0,0.0,0.0,0.0,0.0,0.0,0.0,0.0,0.0,0.0,0.0,0.0,0.0,0.0,0.0,0.0,0.0,0.0,2.6974,3.0781,3.104,3.2187,3.3312,3.2662,3.2489,3.2481,3.2384,3.2268,3.1965,3.1188,3.0342,2.9181,2.7233,2.6285,0.0,0.0,2.3589,2.4102,2.4451,2.677,2.9474,3.2101,3.4534,3.6635,3.8325,3.8598,3.8487,0.0,3.8223,3.8089,3.7796,3.7886,3.7924,3.7758,3.7886,3.7362,3.5909,3.7347,3.8202,3.8202,3.7877,3.7687,3.7687,3.6467,3.5176,3.3815,3.3111,3.1944,3.0393,2.9922,2.9665,2.9484,2.8776,2.827,2.7858,2.833,2.7906,2.7018,2.6934,2.6549,2.6033,2.5504,2.5312,2.5312,0.0,0.0,0.0,0.0,0.0,0.0,0.0,0.2538,0.1514,0.1174,0.0042,-0.0887,-0.1325,-0.0043,0.094,0.0,0.0,0.0,0.0,0.0,0.0,0.0,0.0,0.0,0.0,0.4662,0.445,0.4397,0.0,0.4236,0.4234,0.4277,0.43,0.43,0.43,0.43,0.0,0.0,0.0,0.0,0.0,0.0,0.0,0.0,0.0,0.0,0.0,0.0,0.0,0.0,2.4172,2.7663,3.035,3.2169,3.3221,3.2712,3.2403,3.2137,3.1599,3.0932,3.0241,2.9718,2.7854,2.58,2.4661,0.0,0.0,0.0,2.1904,2.2734,2.335,2.5851,0.0,3.0563,3.319,3.5611,3.7469,3.7791,0.0,3.8605,3.8649,3.8575,3.8366,3.8366,3.8315,3.8202,3.8202,3.7834,3.6986,3.7758,3.8202,3.8202,3.7801,3.7453,3.7148,3.5883,3.474,3.3684,3.2894,3.2189,3.1516,3.0481,3.0063,3.0114,2.9,2.8366,2.8162,2.8402,2.821,2.7666,2.7114,2.6729,2.643,2.5612,2.5312,2.5312,0.0,0.0,0.0,0.0,0.0,0.0,0.3778,0.2194,0.1036,0.1202,-0.0304,-0.1399,-0.1399,0.0306,0.144,0.0,0.0,0.0,0.0,0.0,0.0,0.0,0.0,0.0,0.0,0.0,0.0,0.4346,0.4496,0.0,0.0,0.0,0.0,0.0,0.43,0.4255,0.421,0.0,0.0,0.0,0.0,0.479,0.0,0.0,0.0,0.0,0.0,0.0,0.0,0.0,2.0421,2.2951,2.7353,2.996,3.1455,3.1665,3.1389,3.0924,3.0518,2.9575,2.8581,2.8051,2.5535,2.304,2.2462,2.1395,0.0,1.9998,2.0934,2.1987,2.2628,2.4779,2.7042,0.0,3.1362,3.3935,3.6345,3.6856,3.7389,0.0,3.8546,0.0,3.8266,3.8256,3.8254,3.824,3.824,3.824,3.8202,3.8202,3.8202,3.8202,3.7725,3.7253,3.6778,3.5342,3.4369,3.3873,3.2809,3.2441,3.2654,3.118,3.0657,3.0895,2.9328,2.8697,2.8657,2.855,2.845,2.8246,2.727,2.6825,2.6597,2.5661,2.5312,2.5312,0.0,0.0,0.0,0.0,0.0,0.0,0.3577,0.2201,0.1132,0.0969,-0.0436,-0.1386,-0.1386,0.0268,0.1383,0.0,0.0,0.0,0.0,0.0,0.0,0.0,0.0,0.0,0.0,0.0,0.0,0.5554,0.5359,0.0,0.0,0.0,0.0,0.0,0.0,0.4166,0.3946,0.3946,0.0,0.0,0.0,0.0,0.0,0.0,0.0,0.0,0.0,0.0,0.0,0.0,0.0,1.8688,2.1269,2.4164,2.6882,2.8128,0.0,0.0,2.8672,2.8621,2.8131,2.6483,2.4607,2.2748,2.0959,0.0,2.0226,1.9219,2.0489,2.1807,2.1883,2.2719,2.4482,2.7789,0.0,3.1204,3.509,3.6409,3.6884,3.6584,0.0,0.0,3.7447,3.7395,3.7725,3.8404,3.8478,3.8404,3.8202,3.8202,3.8202,3.8202,3.7443,3.7042,3.6972,3.5517,3.4642,3.442,3.4107,3.3545,3.2704,3.234,3.1819,3.1108,2.9871,2.9302,2.9263,2.8736,2.8222,2.7702,2.7126,2.6585,2.6105,2.5528,2.5312,2.5312,0.0,0.0,0.0,0.0,0.0,0.0,0.3033,0.1951,0.0997,0.0427,-0.0653,-0.1415,-0.1388,0.0269,0.1387,0.1387,0.0,0.0,0.0,0.0,0.0,0.0,0.0,0.0,0.0,0.0,0.5142,0.5502,0.5858,0.0,0.0,0.0,0.0,0.0,0.0,0.381,0.3723,0.3723,0.0,0.0,0.0,0.0,0.0,0.0,0.0,0.0,0.0,0.0,0.0,0.0,0.0,0.0,1.782,1.9723,0.0,0.0,2.6909,2.7376,2.7618,2.7492,2.7073,2.6063,2.4095,2.2084,2.0759,0.0,1.9177,1.8505,1.9786,2.1011,2.1011,2.208,2.3764,2.618,2.733,0.0,3.2831,0.0,3.4701,3.5821,3.6782,0.0,0.0,3.7817,3.8089,3.8277,3.8315,3.8277,3.8202,3.8202,3.8089,3.7839,3.7289,3.6732,3.6083,3.5088,3.4406,3.3974,3.3944,3.3522,3.269,3.2484,3.1978,3.1145,3.0317,2.9755,2.938,2.9157,2.8499,2.7669,2.7102,2.6549,2.6033,2.5504,2.5312,2.5312,0.0,0.0,0.0,0.0,0.0,0.3508,0.2684,0.1788,0.0913,0.0086,-0.0609,-0.097,-0.0985,0.0717,0.1835,0.1835,0.3357,0.0,0.0,0.0,0.0,0.0,0.0,0.0,0.0,0.0,0.551,0.6179,0.6672,0.6447,0.0,0.0,0.4654,0.3678,0.0,0.0,0.0,0.0,0.0,0.0,0.0,0.0,0.0,0.0,0.0,0.0,0.0,0.0,0.0,0.0,0.0,0.0,0.0,0.0,0.0,0.0,2.5143,2.5882,2.6549,2.6601,2.6346,2.5754,2.3805,2.1835,0.0,0.0,1.855,1.839,1.9462,2.0411,2.0498,2.1662,2.3194,2.482,0.0,2.7571,3.07,3.1808,3.2917,0.0,0.0,3.6125,3.6896,3.7945,3.8464,3.8202,3.824,3.824,3.8202,3.8202,3.8052,3.7801,3.7264,3.6567,3.5697,3.4882,3.4274,3.3798,3.367,3.3374,3.2881,3.2605,3.2137,3.1468,3.0859,3.0203,2.9626,2.9322,2.8488,2.7402,2.6861,2.6358,2.5817,2.5444,2.5312,2.5312,0.0,0.0,0.0,0.0,0.0,0.0,0.2628,0.1755,0.0882,0.0,-0.0044,0.0,0.0,0.1702,0.2867,0.2867,0.3762,0.0,0.0,0.0,0.0,0.0,0.0,0.0,0.0,0.0,0.693,0.8083,0.8149,0.7656,0.6663,0.5997,0.5055,0.3903,0.0,0.0,0.0,0.0,0.0,0.0,0.0,0.0,0.9986,0.0,0.0,0.0,0.0,0.0,0.0,0.0,0.0,0.0,0.0,1.609,0.0,0.0,2.2856,2.3631,2.5339,2.6137,2.6303,2.5432,2.3724,2.2227,0.0,0.0,1.8722,1.9177,1.9767,2.0246,2.0459,2.1213,2.2318,2.386,2.4887,0.0,2.8979,3.0825,0.0,0.0,0.0,3.3684,3.5368,3.7506,3.8634,3.824,3.8366,3.8404,3.8202,3.8202,3.8202,3.8202,3.7404,3.6722,3.6117,3.5034,3.44,3.4189,3.3578,3.3304,3.3269,3.2881,3.2503,3.2132,3.1468,3.0846,3.0203,2.905,2.7924,2.6849,2.6322,2.5781,2.5312,2.5312,2.5312,2.5312,0.0,0.0,0.0,0.0,0.0,0.0,0.2392,0.1569,0.0702,-0.021,-0.0258,-0.0221,-0.0269,0.1478,0.2643,0.2643,0.3671,0.0,0.0,0.0,0.0,0.0,0.0,0.0,0.0,0.6018,0.7063,0.8355,0.877,0.85,0.7612,0.6659,0.5622,0.4648,0.4074,0.3765,0.0,0.0,0.0,0.0,0.0,0.9735,1.0961,0.0,0.0,0.0,0.0,0.0,0.0,0.0,0.0,0.0,0.0,0.0,0.0,1.8803,2.0448,2.2141,2.3616,2.4387,2.4588,2.3992,2.3278,2.248,2.1626,0.0,1.959,1.9195,1.9668,2.0226,2.0274,2.1021,2.2174,2.3914,2.4814,2.5993,0.0,0.0,0.0,3.2568,3.4743,3.6691,3.8084,3.8329,3.8564,3.9054,3.8614,3.8277,3.8202,3.8202,3.8052,3.7801,3.712,3.6542,3.6041,3.5099,3.461,3.4519,3.393,3.3514,3.3304,3.2881,3.2503,3.2182,3.1986,3.1519,3.0844,2.9677,2.8537,2.741,2.6457,2.5769,2.5312,2.5312,2.5312,2.5312,0.0,0.0,0.0,0.0,0.0,0.0,0.2314,0.1692,0.0868,-0.0252,0.0216,0.053,0.0313,0.1926,0.3092,0.3178,0.3849,0.0,0.0,0.0,0.0,0.0,0.0,0.0,0.6021,0.691,0.7911,0.9142,0.9575,0.9255,0.8207,0.7233,0.6198,0.5134,0.4251,0.3853,0.0,0.0,0.0,0.0,0.9078,1.073,1.2046,0.0,0.0,0.0,0.0,0.0,0.0,0.0,0.0,0.0,0.0,0.0,0.0,0.0,1.9248,2.0825,0.0,2.331,2.3805,2.3525,2.3237,2.2787,0.0,0.0,2.007,1.9559,1.9795,2.0118,2.0196,2.0838,2.1824,2.3177,2.4351,2.5661,0.0,0.0,0.0,3.3165,3.5909,3.7773,3.8083,3.8545,3.8865,3.8987,3.851,3.8202,3.8202,3.8202,3.7988,3.7509,3.6971,3.6456,3.5916,3.5116,3.4583,3.4341,3.3851,3.3479,3.3269,3.2739,3.2408,3.2205,3.1938,3.1382,0.0,2.9346,2.8205,2.7054,2.6154,2.56,2.5312,2.5312,2.5312,2.5312,0.0,0.0,0.0,0.0,0.0,0.0,0.0,0.2038,0.1384,-0.0042,0.1176,0.2012,0.1521,0.2913,0.3991,0.4255,0.4306,0.0,0.0,0.0,0.0,0.0,0.0,0.0,0.7095,0.8311,0.9357,1.0273,1.0487,0.9921,0.857,0.7851,0.6837,0.5638,0.4839,0.4527,0.0,0.0,0.0,0.0,0.9252,1.1198,0.0,0.0,0.0,0.0,0.0,0.0,0.0,0.0,0.0,0.0,0.0,0.0,0.0,0.0,0.0,0.0,0.0,2.2765,2.3732,2.3732,2.3412,2.2977,2.2542,0.0,0.0,2.0313,2.0148,2.007,2.0313,2.0829,2.1433,2.2135,2.3652,2.5357,0.0,2.988,0.0,0.0,3.6316,3.7334,3.6131,3.8249,3.9339,3.8393,3.8231,3.8202,3.8202,3.8159,3.7883,3.7331,3.6833,3.6356,3.5769,3.5039,3.4411,3.3839,3.3479,3.3304,3.3269,3.2552,3.2205,3.2141,3.1509,3.0618,2.9468,2.8338,2.716,2.6118,2.5516,2.5312,2.5312,2.5312,2.5312,2.5312,0.0,0.0,0.0,0.0,0.0,0.0,0.0,0.0,0.0,0.0,0.185,0.2157,0.2235,0.3227,0.3946,0.0,0.0,0.0,0.0,0.0,0.0,0.0,0.0,0.0,0.7295,0.8373,0.9518,1.0726,1.0655,1.0515,1.0285,0.9244,0.8505,0.8016,0.7073,0.6607,0.0,0.0,0.0,0.0,1.0448,1.1869,0.0,0.0,0.0,0.0,1.5955,1.6072,0.0,0.0,0.0,0.0,0.0,0.0,0.0,0.0,1.8598,1.9499,2.0545,0.0,2.2294,2.2294,2.2211,2.2097,0.0,0.0,0.0,0.0,0.0,0.0,0.0,2.1426,2.1729,2.3361,2.3972,2.5076,2.7422,3.1523,0.0,3.5643,3.7531,3.8613,3.8141,3.8545,3.8971,3.9383,3.8681,3.8202,3.8202,3.7767,3.7462,3.7302,3.6258,3.5644,3.5485,3.4813,3.4423,3.423,3.3874,3.3563,3.3269,3.281,3.2444,3.2141,3.1137,3.051,3.0115,2.8076,2.7028,2.6706,2.5682,2.5312,2.5312,2.5312,2.5312,2.5312,0.0,0.0,0.0,0.0,0.0,0.0,0.0,0.0,0.0,0.0,0.2442,0.2714,0.2681,0.3406,0.3903,0.0,0.0,0.0,0.0,0.0,0.0,0.0,0.0,0.6542,0.7248,0.8844,1.0182,1.1241,1.0912,1.0912,1.119,0.9736,0.8947,0.8686,0.7696,0.72,0.7166,0.8101,0.85,0.8675,1.0717,0.0,0.0,0.0,0.0,0.0,1.6196,1.636,0.0,1.6648,1.6689,1.6697,0.0,0.0,0.0,0.0,1.9116,2.009,2.1308,2.1711,2.1807,2.1807,2.1807,2.1807,2.1807,0.0,0.0,0.0,0.0,0.0,0.0,0.0,2.2909,2.4067,2.5189,2.696,0.0,0.0,3.5139,3.6716,3.7747,3.8429,3.862,3.8854,3.8984,3.908,3.8256,3.7796,3.7796,3.7201,3.6707,3.6431,3.577,3.5392,3.5392,3.4733,3.4414,3.4414,3.3991,3.3701,3.3514,3.2952,3.2596,3.2367,3.1015,3.0184,2.9581,2.7725,2.6678,2.6148,2.5562,2.5312,2.5312,2.5312,2.5312,2.5312,0.0,0.0,0.0,0.0,0.0,0.0,0.0,0.0,0.0,0.0,0.0,0.0,0.0,0.0,0.0,0.0,0.0,0.0,0.0,0.0,0.0,0.0,0.5935,0.7092,0.716,0.9509,1.1035,1.1631,1.1435,1.1491,1.1684,1.0181,0.9223,0.8802,0.797,0.7588,0.761,0.8408,0.8719,0.8851,1.0501,0.0,0.0,0.0,0.0,0.0,0.0,0.0,0.0,1.6689,1.6689,1.6689,1.6689,0.0,0.0,0.0,0.0,0.0,2.2531,2.2569,2.2109,2.2149,2.2138,2.2138,2.2138,0.0,0.0,0.0,0.0,0.0,0.0,2.4242,0.0,0.0,0.0,0.0,3.3407,3.4209,3.524,3.7375,3.7631,3.7828,3.834,3.8954,3.9025,3.8283,3.7651,3.7302,3.7302,3.6577,3.5923,3.5421,3.5305,3.5261,3.5261,3.4675,3.4414,3.4414,3.4059,3.3874,3.377,3.3094,3.272,3.2453,3.0832,2.9581,2.8569,2.7224,2.6125,2.5312,2.5312,2.5312,2.5312,2.5312,2.5312,2.5312,0.0,0.0,0.0,0.0,0.0,0.0,0.0,0.0,0.0,0.0,0.0,0.0,0.0,0.0,0.0,0.0,0.0,0.0,0.0,0.0,0.0,0.3903,0.5805,0.7012,0.7361,1.0024,1.1581,1.1836,1.2846,1.2948,1.2181,1.2141,1.1445,1.0237,0.9935,0.9717,0.9554,0.9728,0.9777,0.9816,1.025,0.0,0.0,0.0,0.0,0.0,0.0,0.0,0.0,1.6689,1.6689,1.6689,1.6689,0.0,0.0,0.0,0.0,0.0,2.2531,2.3237,2.3536,2.3711,2.3658,2.3632,2.372,0.0,0.0,0.0,0.0,0.0,0.0,2.6006,2.6299,0.0,0.0,3.2812,3.4987,3.6244,3.7184,3.779,3.8449,3.8575,3.7828,3.8281,3.8581,3.8441,3.7725,3.7302,3.7302,3.6191,3.5508,3.5392,3.4835,3.4559,3.4559,3.4457,3.4414,3.4414,3.4346,3.4128,3.3805,3.3374,3.2744,3.1833,2.9838,2.8602,2.793,2.6241,2.5455,2.5312,2.5312,2.5312,2.5312,2.5312,2.5312,2.5312,0.0,0.0,0.0,0.0,0.0,0.0,0.0,0.0,0.0,0.0,0.0,0.0,0.0,0.0,0.0,0.0,0.0,0.0,0.0,0.0,0.39,0.3903,0.5847,0.7071,0.7227,1.0282,1.2119,1.2596,1.3493,1.3849,1.3756,1.2721,1.1865,1.1207,1.0454,1.0089,0.9994,0.9994,0.9994,0.9994,0.0,0.0,0.0,0.0,0.0,0.0,0.0,0.0,0.0,0.0,1.6689,1.6689,1.6689,0.0,0.0,0.0,0.0,0.0,2.3143,2.3716,2.4124,2.523,2.4991,2.4439,2.4141,0.0,0.0,0.0,0.0,0.0,0.0,0.0,2.9198,3.2364,0.0,3.4548,3.5818,3.6214,3.6707,3.7629,3.7773,3.787,3.8084,3.8355,3.831,3.79,3.7165,3.662,3.6272,3.5357,3.4849,3.4849,3.4559,3.4414,3.4414,3.4414,3.4414,3.4414,3.4414,3.4312,3.4128,3.3563,3.2863,3.2048,3.0329,2.9061,2.8196,2.7054,2.6274,2.5733,2.5733,2.5564,2.5312,2.5312,2.5312,2.5312,0.0,0.0,0.0,0.0,0.0,0.0,0.0,0.0,0.0,0.0,0.0,0.0,0.0,0.0,0.0,0.0,0.0,0.0,0.0,0.3497,0.3723,0.3903,0.5933,0.7224,0.7521,1.0701,1.2777,1.3611,1.4332,1.4832,1.513,1.3168,1.226,1.2148,1.0901,1.0338,1.0294,1.0081,0.9994,0.9994,0.0,0.0,0.0,0.0,0.0,0.0,0.0,0.0,0.0,0.0,0.0,0.0,0.0,0.0,0.0,1.9155,2.042,2.2107,2.3584,2.4059,2.4547,2.6258,2.5992,2.5261,2.5051,0.0,0.0,0.0,0.0,0.0,0.0,3.0172,0.0,3.5022,3.5665,3.6096,3.6874,3.6555,3.6679,3.7812,3.7504,3.7556,3.8413,3.831,3.7958,3.7346,3.6548,3.588,3.5421,3.4762,3.4414,3.4414,3.4414,3.4414,3.4414,3.4414,3.4414,3.4414,3.4414,3.4264,3.4045,3.3514,3.2758,3.1771,3.059,2.9373,2.8162,2.7713,2.6899,2.5925,2.6045,2.5769,2.5312,2.5312,2.5241,2.5182,0.0,0.0,0.0,0.0,0.0,0.0,0.0,0.0,0.0,0.0,0.0,0.0,0.0,0.0,0.0,0.0,0.0,0.0,0.0,0.3631,0.3903,0.3903,0.5933,0.7668,0.8837,1.1645,1.3705,1.4852,1.6087,1.6384,1.5732,1.431,1.3545,1.3312,1.2059,1.1395,1.1154,1.0337,0.9994,0.9994,0.9994,0.0,0.0,0.0,0.0,0.0,0.0,0.0,0.0,0.0,0.0,0.0,0.0,0.0,1.9231,1.8795,2.0158,2.2081,2.3238,2.424,2.5172,2.6253,2.6396,0.0,2.7421,2.7478,0.0,2.8075,0.0,0.0,0.0,3.2734,3.4878,3.558,3.6816,3.7979,3.8796,3.8868,3.889,3.8994,3.8803,3.862,3.8516,3.782,3.736,3.7302,3.6177,3.545,3.5392,3.4762,3.4414,3.4414,3.4414,3.4414,3.4414,3.4414,3.4414,3.4414,3.4414,3.3894,3.3003,3.322,3.2168,3.0155,2.9744,2.8604,2.701,2.6978,2.6309,2.5408,2.5913,2.5769,2.5312,2.5312,2.5123,2.4825,0.0,0.0,0.0,0.0,0.0,0.0,0.0,0.0,0.0,0.0,0.0,0.3849,0.327,0.0,0.0,0.0,0.0,0.0,0.0,0.3318,0.3452,0.3452,0.5667,0.7494,0.871,1.1863,1.382,1.4381,1.6246,1.7248,1.739,1.5677,1.4708,1.4379,1.3149,1.2106,1.1284,1.0939,1.0511,0.9994,0.9994,0.9994,0.0,0.0,0.0,0.0,0.0,0.0,0.0,0.0,1.6515,1.665,1.6436,1.7729,1.9222,1.8729,2.0138,2.2033,2.3204,2.3962,2.4798,2.627,2.6939,0.0,0.0,2.891,2.9329,2.9225,2.9993,0.0,0.0,0.0,3.6906,3.7192,3.8133,3.896,3.9235,3.9301,3.9177,3.8943,3.8625,3.8243,3.7798,3.7215,3.6676,3.6162,3.5683,3.5218,3.4791,3.4545,3.4414,3.4414,3.4414,3.4414,3.4414,3.4414,3.4414,3.438,3.3894,3.3707,3.3791,3.2938,3.2181,3.1478,3.0841,2.9746,2.8419,2.8101,2.7309,2.6237,2.5793,2.548,2.5276,2.5087,2.4921,2.4754,0.0,0.0,0.0,0.0,0.0,0.0,0.0,0.0,0.4561,0.0,0.0,0.0,0.0,0.3808,0.0,0.0,0.0,0.0,0.292,0.3094,0.3183,0.3183,0.5134,0.6786,0.7997,1.1312,1.3507,1.4492,1.66,1.7964,1.8537,1.6983,1.608,1.5674,1.4258,1.3113,1.229,1.1909,1.1235,1.0424,1.0424,1.025,0.0,0.0,0.0,0.0,0.0,0.0,0.0,0.0,1.6491,1.6634,1.6317,1.7533,1.8999,1.8576,1.9977,2.1918,2.2945,2.3711,2.4637,0.0,0.0,0.0,2.9536,3.0303,3.0877,3.0992,3.1903,0.0,3.4349,0.0,0.0,3.7445,3.8385,3.902,3.8811,3.8781,3.8639,3.8337,3.7988,3.7594,3.7142,3.6545,3.5977,3.5436,3.5203,3.4878,3.4428,3.4414,3.4414,3.4414,3.4414,3.4414,3.4414,3.4414,3.4414,3.438,3.3589,3.3451,3.3894,3.2903,3.2291,3.1907,3.1416,3.0422,2.9125,2.875,2.7852,2.6549,2.5661,2.5312,2.5276,2.4921,2.4718,2.4562,0.0,0.0,0.0,0.0,0.0,0.0,0.0,0.0,0.501,0.3141,0.3721,0.0,0.0,0.0,0.0,0.0,0.0,0.0,0.292,0.3094,0.3183,0.3183,0.4334,0.5539,0.6663,0.9853,1.2837,1.5516,1.7474,1.8567,1.886,1.8287,1.7793,1.7319,1.5409,1.4532,1.4419,1.3218,1.2169,1.1327,1.1327,1.0809,1.0038,0.0,0.0,0.0,0.0,0.0,0.0,0.0,1.6689,1.6634,1.6309,1.7293,1.8537,1.8201,1.9709,2.1653,2.24,2.3532,2.4847,0.0,0.0,0.0,3.1643,3.1917,3.225,3.3651,3.3734,3.3753,3.4399,3.5357,3.6001,3.5922,3.7332,3.8167,3.7494,3.7404,3.7351,3.7193,3.7,3.6825,3.6599,3.5875,3.5392,3.5392,3.4777,3.4414,3.4414,3.4414,3.4414,3.4414,3.4414,3.4414,3.4414,3.4414,3.4414,3.438,3.3589,3.3108,3.2932,3.3185,3.2412,3.0919,3.1132,3.0222,2.8599,2.8586,2.7606,2.6033,2.5516,2.5312,2.5276,2.4921,2.4526,2.4152,0.0,0.0,0.0,0.0,0.0,0.0,0.0,0.0,0.501,0.3141,0.43,0.0,0.0,0.0,0.0,0.0,0.0,0.0,0.292,0.2963,0.3006,0.3006,0.4117,0.5193,0.6257,1.0192,1.3758,1.6979,1.7288,1.784,1.8638,1.862,1.8057,1.7029,1.672,1.5734,1.4182,1.3835,1.3148,1.2297,1.2297,1.2126,1.1869,0.0,0.0,0.0,0.0,0.0,0.0,0.0,0.0,0.0,1.6023,1.7328,1.8898,1.7898,1.9581,2.1914,2.2583,2.3552,0.0,2.7497,0.0,0.0,0.0,3.3369,0.0,0.0,3.6247,3.6085,3.6777,3.7611,3.7875,3.6941,3.7714,3.8167,3.7494,3.7316,3.7193,3.7,3.6428,3.5976,3.5787,3.5101,3.4704,3.4704,3.4516,3.4414,3.4414,3.4414,3.4414,3.4414,3.4414,3.4414,3.4414,3.4414,3.4414,3.4414,3.4147,3.4011,3.3928,3.2903,3.2278,3.1949,3.1915,3.0655,2.8505,2.7348,2.6348,2.5528,2.5372,2.5312,2.5241,2.4622,2.4309,2.4091,0.0,0.0,0.0,0.0,0.0,0.0,0.6384,0.5941,0.5275,0.4166,0.501,0.5497,0.0,0.0,0.0,0.4389,0.3454,0.0,0.292,0.292,0.292,0.292,0.354,0.4973,0.7149,1.0455,1.3755,1.7046,1.7314,1.7986,1.9075,1.9091,1.8603,1.7634,1.7375,1.6508,1.5198,1.479,1.4097,1.3275,1.3275,1.3014,1.2674,0.0,0.0,0.0,0.0,0.0,0.0,0.0,0.0,0.0,1.6024,1.7002,1.8228,1.7816,1.9296,2.1348,2.2525,2.385,0.0,2.8218,2.9781,3.1323,3.3809,0.0,0.0,0.0,3.7292,3.7108,3.7493,3.7786,3.7658,3.6823,3.7237,3.737,3.6529,3.6488,3.6401,3.6075,3.5639,3.5287,3.5014,3.4646,3.4414,3.4414,3.4414,3.4414,3.4414,3.4414,3.4414,3.4414,3.4414,3.4414,3.4414,3.4414,3.4414,3.4414,3.4414,3.4312,3.4128,3.3058,3.2638,3.2721,3.1855,3.0438,2.8541,2.7038,2.5996,2.5312,2.5312,2.5312,2.5206,2.4478,2.42,2.408,0.0,0.0,0.5791,0.6664,0.0,0.0,0.7275,0.6384,0.5808,0.5719,0.5764,0.5808,0.0,0.0,0.0,0.4476,0.3454,0.2829,0.2873,0.2873,0.2873,0.292,0.3053,0.4947,0.8759,1.0627,1.3118,1.6274,1.7415,1.86,1.9757,1.9554,1.9183,1.8702,1.756,1.7019,1.6803,1.5883,1.4992,1.4223,1.4223,1.3711,1.293,1.2845,0.0,0.0,0.0,0.0,0.0,0.0,0.0,0.0,1.6117,1.6413,1.6973,1.7711,1.8839,2.0347,2.2429,2.4387,0.0,2.885,3.0913,0.0,3.5543,3.6733,3.7313,3.7368,0.0,3.722,3.7109,3.6703,3.6287,3.5942,3.6227,3.6104,3.5056,3.518,3.5243,3.4765,3.4783,3.4735,3.4448,3.4414,3.4414,3.4414,3.4414,3.4414,3.4414,3.4414,3.4414,3.4414,3.4356,3.4327,3.4327,3.4327,3.4327,3.4327,3.4351,3.4162,3.3805,3.3444,3.3241,3.3017,3.1083,2.9653,2.8633,2.7346,2.6233,2.5312,2.5312,2.5276,2.517,2.4478,2.4164,2.4043,0.0,0.0,0.5883,0.678,0.0,0.0,0.7275,0.6918,0.6517,0.5808,0.634,0.6786,0.6786,0.5983,0.0,0.5184,0.3449,0.2424,0.2558,0.2603,0.2694,0.2875,0.43,0.6201,0.854,1.041,1.3095,1.6611,1.6889,1.7549,1.8677,1.9443,1.9293,1.8394,1.8442,1.7747,1.6503,1.6268,1.5782,1.5131,1.5131,1.4999,1.4741,1.4055,1.3795,0.0,0.0,0.0,0.0,0.0,0.0,0.0,1.5142,1.5897,1.7008,1.6596,1.8391,2.0986,2.3171,2.4869,0.0,0.0,3.3168,3.4904,3.5512,3.616,3.6767,3.7298,3.7791,3.7915,3.7302,3.759,3.747,3.6103,3.6111,3.5956,3.5023,3.4883,3.4831,3.4698,3.4582,3.4481,3.4414,3.4414,3.4414,3.4414,3.4414,3.4414,3.4414,3.4414,3.4414,3.4414,3.3935,3.3707,3.3707,3.3707,3.3707,3.3707,3.3849,3.3874,3.3805,3.3444,3.2737,3.1621,2.9827,2.8708,2.8017,2.6829,2.5937,2.5312,2.5312,2.5147,2.4849,2.437,2.4007,2.3677,0.0,0.0,0.0,0.0,0.0,0.0,0.0,0.0,0.7095,0.7098,0.7095,0.7228,0.758,0.6293,0.0,0.0,0.3448,0.2379,0.2513,0.2604,0.2739,0.2875,0.4786,0.6477,0.7796,1.0183,1.2955,1.6044,1.6478,1.7391,1.8785,1.9361,1.9303,1.8785,1.8667,1.8113,1.7286,1.7,1.6468,1.5858,1.5692,1.5435,1.5114,1.4647,1.4475,1.4455,1.4176,0.0,0.0,0.0,0.0,0.0,0.0,0.0,1.6527,1.633,1.8041,2.046,2.268,0.0,0.0,3.1295,0.0,3.5019,3.5782,3.5863,3.6034,3.6766,3.7199,3.7348,3.709,3.717,3.6999,3.6162,3.623,3.6045,3.5162,3.5118,3.5034,3.4616,3.4563,3.4515,3.4414,3.4414,3.4414,3.4414,3.4414,3.4414,3.4414,3.4414,3.4283,3.3978,3.3663,3.3503,3.3503,3.3503,3.355,3.3638,3.3751,3.3632,3.3269,3.3094,3.2552,3.1653,3.0156,2.9034,2.8174,2.7043,2.6082,2.5276,2.5111,2.4957,2.4718,2.4127,2.3787,2.3519,0.0,0.0,0.0,0.0,0.0,0.0,0.0,0.0,0.0,0.8476,0.7896,0.7573,0.8158,0.6653,0.5453,0.0,0.0,0.0,0.2499,0.2734,0.292,0.292,0.4863,0.6304,0.7065,1.0034,1.2781,1.5313,1.6373,1.7779,1.949,1.9381,1.9301,1.9262,1.8736,1.8416,1.8256,1.7764,1.7164,1.6527,1.6155,1.5614,1.5069,1.5006,1.4951,1.4856,1.4455,1.4783,1.5305,1.4741,0.0,0.0,0.0,0.0,1.5795,1.6212,1.7606,1.9534,2.1761,0.0,2.7512,3.1197,3.3075,0.0,3.5723,3.5623,3.5459,3.6227,3.6368,3.643,3.6646,3.6368,3.6101,3.6133,3.6305,3.6179,3.5429,3.5559,3.5429,3.4635,3.4683,3.4683,3.4414,3.4414,3.4414,3.4414,3.4414,3.4414,3.4414,3.4312,3.4008,3.3518,3.3402,3.3344,3.3344,3.3344,3.3392,3.3491,3.334,3.296,3.2294,3.2294,3.2165,3.1816,3.0734,2.9565,2.8315,2.7288,2.6208,2.5182,2.4921,2.4718,2.449,2.3861,2.3567,2.3446,0.0,0.0,0.0,0.0,0.0,0.0,0.0,0.0,0.0,0.0,0.848,0.8372,0.8298,0.7111,0.598,0.5068,0.3912,0.2961,0.2444,0.0,0.0,0.292,0.4712,0.6171,0.7061,0.9898,1.265,1.5313,1.6936,1.8616,2.0304,1.9608,1.9301,1.9301,1.9222,1.8856,1.8296,1.8215,1.7844,1.7188,1.6585,1.6104,1.5711,1.5453,1.5148,1.4944,1.5141,1.5298,1.5389,1.5298,1.5158,0.0,0.0,0.0,1.4938,1.5219,1.6802,1.8919,0.0,0.0,2.8994,0.0,3.2086,3.3773,0.0,0.0,3.5619,3.6116,3.6227,3.6164,3.5896,3.6212,3.6384,3.6008,3.6101,3.6133,3.5864,3.5849,3.5672,3.5169,3.5118,3.4953,3.4448,3.4414,3.4414,3.4414,3.4414,3.4414,3.4414,3.3891,3.359,3.3503,3.2933,3.2643,3.2643,3.2643,3.2479,3.2225,3.1581,3.1089,3.0705,3.0705,3.067,3.0601,2.9974,2.8756,2.7178,2.6559,2.5746,2.4861,2.4825,2.4381,2.3751,2.3629,2.3372,2.3075,0.0,0.0,0.0,0.0,0.0,0.0,0.0,0.0,0.0,0.0,0.0,0.8213,0.8087,0.7122,0.6248,0.5568,0.4688,0.3891,0.3338,0.3544,0.3454,0.292,0.4699,0.5894,0.6328,0.957,1.2251,1.4165,1.6702,1.8689,2.0176,2.0526,2.0459,1.9962,1.9962,1.9569,1.8856,1.8856,1.8496,1.7868,1.7433,1.6878,1.637,1.6158,1.5959,1.5781,1.5791,1.5667,1.5481,1.5423,1.517,1.4801,1.4268,0.0,0.0,0.0,1.6195,1.8476,2.1298,2.4126,2.6692,0.0,3.0168,3.1693,3.3307,3.3966,3.4342,3.4859,3.4891,3.502,3.5784,3.586,3.5891,3.6149,3.6255,3.6335,3.6322,3.6352,3.6149,3.5672,3.5608,3.5382,3.4887,3.4854,3.4735,3.4414,3.4414,3.4254,3.3891,3.3649,3.3169,3.2396,3.2106,3.193,3.193,3.193,3.185,3.1641,3.0942,3.0528,3.0405,3.0405,3.0405,3.0357,2.9787,2.8786,2.7443,2.6631,2.5687,2.4754,2.4309,2.3897,2.3556,2.3335,2.315,2.3001,0.0,0.0,0.0,0.0,0.0,0.0,0.0,0.0,0.0,0.0,0.0,0.8123,0.7911,0.0,0.0,0.0,0.5498,0.4946,0.4331,0.4233,0.3888,0.3203,0.4791,0.5687,0.5719,0.913,1.1609,1.3136,1.5942,1.8156,1.9764,2.1241,2.1528,2.0808,2.0615,2.0148,1.9569,1.9381,1.9015,1.851,1.8152,1.7602,1.7018,1.6771,1.6607,1.6497,1.6434,1.625,1.6028,1.5693,1.5397,1.4961,1.4273,1.4471,0.0,0.0,0.0,0.0,0.0,0.0,2.4015,2.6305,2.7885,2.943,0.0,0.0,3.263,3.3343,3.3343,3.3623,3.4936,3.4925,3.4942,3.5673,3.6019,3.6258,3.6428,3.6707,3.6708,3.618,3.6117,3.5928,3.5415,3.5267,3.4978,3.4401,3.4234,3.3891,3.33,3.3097,3.2527,3.1524,3.1495,3.1495,3.1495,3.1325,3.1136,3.0933,3.0266,2.9944,2.9944,2.9808,2.974,2.9713,2.9289,2.8554,2.7597,2.6461,2.5441,2.4574,2.3861,2.3519,2.3409,2.3113,2.3001,2.3001,0.0,0.0,0.0,0.0,0.0,0.0,0.0,0.0,0.0,0.0,0.0,0.8579,0.7885,0.8255,0.7928,0.6313,0.6199,0.5931,0.5189,0.4369,0.3908,0.3949,0.5031,0.0,0.5716,0.8365,1.0731,1.2656,1.4776,1.6996,1.9279,2.138,2.2129,2.168,2.0885,2.0459,2.0391,1.9608,1.9262,1.9186,1.8533,1.806,1.7682,1.7177,1.6776,1.6571,1.7128,1.7315,1.7189,1.6428,1.592,1.552,1.4714,1.4282,1.4101,0.0,0.0,0.0,0.0,2.0417,0.0,2.3227,2.5314,0.0,0.0,0.0,3.0616,3.1856,3.1936,3.1976,3.2601,3.308,3.3545,3.4045,3.5028,3.5729,3.5731,3.6726,3.7255,3.6723,3.6662,3.6445,3.5928,3.5447,3.4901,3.426,3.3794,3.3271,3.26,3.193,3.1553,3.1495,3.1495,3.1495,3.1495,3.087,3.0252,2.9701,2.9004,2.8682,2.8682,2.8179,2.7948,2.7941,2.7967,2.7636,2.6943,2.5489,2.4634,2.42,2.3787,2.3372,2.3038,2.3001,2.3001,2.3001,0.0,0.0,0.0,0.0,0.0,0.0,0.0,0.0,0.0,0.0,0.0,0.0,0.0,0.9129,0.8999,0.8246,0.7982,0.7282,0.5972,0.5723,0.5155,0.407,0.4935,0.5551,0.5716,0.781,0.9913,1.1956,1.4209,1.63,1.8193,1.9875,2.0928,2.1426,2.1906,2.1499,2.0459,2.0187,1.9766,1.9265,1.9055,1.8835,1.8644,1.8189,1.801,1.796,1.7633,1.7576,1.7611,1.7214,1.698,1.676,1.6198,1.5616,1.498,1.4479,0.0,0.0,0.0,0.0,0.0,2.0971,2.2625,2.4271,2.6177,2.7579,2.8749,2.9645,3.0066,3.0373,3.0727,3.1777,3.2796,3.3404,3.3749,3.4429,3.571,3.6155,3.6543,3.7133,3.7225,3.6998,3.6492,3.5875,3.5137,3.4282,3.3659,3.2891,3.1903,3.1625,3.1322,3.0916,3.0916,3.0916,3.0916,3.0256,2.9813,2.9571,2.8908,2.8587,2.8587,2.8052,2.7809,2.7756,2.7109,2.6684,2.6393,2.5347,2.4647,2.4116,2.3482,2.3113,2.3001,2.3001,2.3001,2.3001,0.0,0.0,0.0,0.9427,0.0,0.9178,0.9375,0.9355,0.914,0.8746,0.0,0.0,0.0,0.0,0.9699,0.942,0.8899,0.816,0.7175,0.6718,0.5946,0.4823,0.5495,0.5961,0.6095,0.7562,0.9307,1.1387,1.2956,1.4698,1.6612,1.8214,1.9515,2.0454,2.1644,2.1701,2.0924,2.0991,2.0672,2.0217,2.0323,2.031,2.0205,1.9899,1.9827,1.98,1.9425,1.9336,1.9288,1.8536,1.8223,1.799,1.6867,1.612,1.5604,1.5099,0.0,0.0,1.6236,0.0,0.0,0.0,2.0128,2.1482,2.3669,2.4976,2.6136,2.7691,2.8251,2.8671,2.946,3.0612,3.1632,3.2372,3.2743,3.3537,3.5321,3.5708,3.6168,3.7186,3.7221,3.6904,3.6313,3.5713,3.4969,3.4106,3.3441,3.2599,3.1479,3.1436,3.1185,3.0627,3.0598,3.0552,3.0431,2.9882,2.954,2.9415,2.8876,2.8522,2.8314,2.7776,2.7443,2.7209,2.6289,2.6013,2.6117,2.5135,2.4611,2.4309,2.353,2.3187,2.3187,2.3187,2.3113,2.3001,0.57,0.741,0.9034,0.9788,0.9771,0.9836,1.05,0.9903,0.9334,0.9334,0.0,0.0,0.0,0.0,0.0,0.9674,0.8927,0.8551,0.8737,0.7199,0.6308,0.6338,0.6648,0.684,0.6909,0.7613,0.8935,1.0883,1.0966,1.2213,1.4554,1.6577,1.7953,1.8833,1.9968,2.0975,2.1752,2.1883,2.1958,2.2012,2.2331,2.2408,2.2314,2.2248,2.2092,2.1976,2.243,2.2608,2.2317,2.0319,1.9665,1.9203,1.6581,1.5754,1.5778,1.6118,0.0,0.0,0.0,0.0,0.0,0.0,1.7949,1.9212,2.1143,2.1765,2.2805,2.5999,2.6379,2.6785,2.8857,2.9501,3.0009,3.0925,3.2049,3.3239,3.4492,3.5426,3.6171,3.6761,3.6534,3.6093,3.5429,3.4891,3.4308,3.3717,3.3183,3.2416,3.1351,3.1292,3.1073,3.0598,3.0598,3.0431,3.008,2.9772,2.9415,2.9099,2.8748,2.8327,2.7776,2.7242,2.6701,2.6164,2.5558,2.5629,2.6082,2.4754,2.4454,2.4718,2.3897,2.3593,2.3593,2.3604,2.3335,2.3001,0.5641,0.7328,0.8912,0.9742,1.013,1.0384,1.0578,1.0596,1.0432,0.0,0.0,0.0,1.1403,1.1737,1.1484,1.0357,1.0175,0.9981,0.9599,0.8575,0.7738,0.7192,0.6841,0.6714,0.6909,0.7196,0.8411,1.0534,1.0686,1.2088,1.4603,1.5297,1.6445,1.7926,1.9706,2.0657,2.0943,2.0979,2.1167,2.1513,2.1863,2.2181,2.2435,2.241,2.2468,2.2559,2.2525,2.2635,2.2613,2.1271,2.0765,2.0254,1.7766,1.6784,0.0,1.5972,0.0,0.0,1.5375,0.0,0.0,0.0,0.0,0.0,1.8373,1.9419,2.073,2.2867,2.3149,2.3902,2.6945,2.7694,2.8457,3.0347,3.1529,3.2646,3.3878,3.4406,3.4706,3.4779,3.5014,3.4965,3.4429,3.4127,3.3743,3.3228,3.288,3.2275,3.1351,3.0984,3.0717,3.0598,3.0598,3.0431,3.008,2.9772,2.9415,2.9099,2.8748,2.8327,2.7776,2.7242,2.6701,2.6164,2.5558,2.5382,2.5488,2.4885,2.4682,2.4718,2.3897,2.3593,2.3556,2.3261,2.3113,2.3001,0.5954,0.7507,0.8873,0.9401,1.051,1.1303,1.1303,1.1764,1.199,0.0,0.0,0.0,1.2526,1.2562,1.2187,1.1223,1.0925,1.0657,1.0314,0.9599,0.9004,0.8531,0.8259,0.8008,0.7861,0.8302,0.9168,1.0393,1.0817,1.2101,1.4135,1.4573,1.5728,1.7503,1.8873,1.9948,2.0762,2.09,2.1579,2.2595,2.3258,2.363,2.3815,2.3966,2.4066,2.4101,2.4066,2.4153,2.4085,2.2959,2.1723,2.0415,1.8755,1.7829,1.726,1.6802,1.6446,0.0,0.0,0.0,0.0,1.5091,0.0,0.0,1.6864,1.776,1.8896,2.0575,2.1146,2.2044,2.443,2.5934,2.7427,2.9336,3.0834,3.2226,3.3514,3.3692,3.3736,3.3867,3.3983,3.3831,3.3193,3.3014,3.2857,3.2541,3.2402,3.202,3.1336,3.0836,3.0598,3.0598,3.0321,3.0097,2.9882,2.9428,2.9087,2.8876,2.8457,2.7987,2.7443,2.6905,2.6358,2.5804,2.5453,2.518,2.4952,2.4613,2.459,2.4754,2.4091,2.3751,2.3556,2.3335,2.315,2.2964,0.0,0.7832,0.8946,0.8922,1.0854,1.2422,1.2388,1.3111,1.3623,0.0,1.363,1.3462,1.2966,1.2856,1.2592,1.204,1.1409,1.0962,1.0925,1.0389,1.0083,1.0083,1.0203,0.9963,0.9356,1.0191,1.0589,1.0512,1.1183,1.2232,1.3644,1.4279,1.5614,1.75,1.7967,1.9225,2.0963,2.1397,2.2613,2.4323,2.5349,2.5709,2.5676,2.6062,2.6097,2.598,2.6166,2.6201,2.5998,2.4613,2.2446,2.0179,1.9579,1.8877,1.8236,1.8134,1.7638,0.0,0.0,0.0,0.0,1.5511,1.5601,0.0,1.6346,1.664,1.7305,1.8952,1.9834,2.066,2.1815,2.4183,2.6401,2.7868,2.9806,3.1642,3.3169,3.3156,3.3081,3.3347,3.3161,3.2688,3.1855,3.1794,3.1823,3.1823,3.1823,3.1695,3.1307,3.0836,3.0598,3.0598,2.9958,2.9575,2.949,2.8827,2.8432,2.8333,2.7887,2.7385,2.6815,2.6402,2.5873,2.5312,2.5312,2.4976,2.4427,2.4176,2.4319,2.4671,2.4228,2.3888,2.3593,2.3556,2.3298,2.2927,0.6351,0.797,0.915,0.8946,1.1378,1.326,1.3058,1.3805,1.432,1.4171,1.4421,1.4186,1.3039,1.368,1.36,1.2114,1.215,1.2114,1.1781,1.1366,1.1105,1.1105,1.0824,1.0551,1.0247,1.0538,1.0862,1.1214,1.1361,1.2446,1.4394,1.453,1.5762,1.7924,1.897,1.9866,2.062,2.219,2.3234,2.3965,2.4721,2.5332,2.5875,2.6097,2.627,2.6396,2.643,2.6339,2.5901,2.4046,2.2519,2.124,2.039,1.9977,1.9716,1.9011,1.871,1.8365,1.7345,1.6862,1.6533,1.5999,1.5928,0.0,1.6591,1.6235,1.6359,1.8348,1.7916,1.7953,2.0507,2.2154,2.3768,2.5809,2.7637,2.9631,3.2184,3.2808,3.2596,3.1501,3.1645,3.1556,3.0925,3.119,3.1423,3.1423,3.1423,3.1394,3.1307,3.0836,3.0598,3.0598,2.9958,2.9375,2.889,2.8212,2.7423,2.6591,2.6929,2.6589,2.572,2.6055,2.5873,2.5312,2.5312,2.4836,2.4118,2.4484,2.4437,2.4096,2.3427,2.3354,2.3567,2.3224,2.3075,2.2927,0.6327,0.7797,0.8968,0.8825,1.1497,1.3617,1.3459,1.4579,1.5416,1.5307,1.5482,1.5267,1.4438,1.4788,1.4458,0.0,0.0,0.0,1.2187,1.1966,1.1892,1.2003,1.1796,1.1549,1.126,1.1657,1.1735,1.1569,1.1998,1.3009,1.4601,1.5084,1.6397,1.8408,1.9468,2.0281,2.095,2.2294,2.3069,2.3481,2.4533,2.5384,2.6062,2.6258,2.6396,2.6499,2.6499,2.643,2.6096,2.4532,2.3513,2.2691,2.1486,2.092,2.0577,1.9856,1.965,1.9486,1.879,1.8355,1.7906,1.7126,1.681,0.0,0.0,1.6148,1.6325,1.7251,1.7054,1.718,1.8767,1.9981,2.1468,2.3595,2.5114,2.6778,2.9036,3.038,3.0947,3.0385,3.0509,3.0628,3.0598,3.0807,3.0955,3.0955,3.0955,3.0955,3.0955,3.0717,3.0507,3.0341,2.9184,2.8413,2.8115,2.6922,2.6113,2.5749,2.6033,2.5876,2.5402,2.5628,2.5594,2.53,2.5035,2.4408,2.3591,2.3431,2.3213,2.3052,2.3212,2.3271,2.3261,2.3075,2.3001,2.2889,0.6412,0.7633,0.8713,0.8827,1.1639,1.3894,1.3961,1.5408,1.6501,1.6386,1.6315,1.6192,1.586,1.5694,1.5176,0.0,0.0,0.0,1.2549,1.2361,1.2391,1.2636,1.2673,1.256,1.2253,1.2759,1.2652,1.1878,1.2607,1.3497,1.4506,1.552,1.6951,1.8702,1.9738,2.0611,2.1361,2.2115,2.2815,2.3506,2.467,2.54,2.58,2.6239,2.6292,2.6163,2.6285,2.6336,2.6197,2.5206,2.459,2.3977,2.2687,2.1973,2.1472,2.0927,2.0706,2.0607,2.0358,2.0029,1.9542,1.86,1.811,1.7596,0.0,0.0,0.0,1.6684,1.6928,1.7188,1.7261,1.8278,1.9601,2.1225,2.2457,2.3769,2.5335,2.6978,2.8314,2.9178,2.9286,2.958,3.0282,3.0477,3.0568,3.0598,3.0568,3.0507,3.0417,3.0387,3.0174,2.9744,2.8128,2.7231,2.7162,2.5546,2.4832,2.5077,2.5197,2.5244,2.5222,2.5281,2.5312,2.5288,2.482,2.4135,2.3197,2.259,2.2253,2.2199,2.2936,2.3132,2.3001,2.3001,2.3001,2.2852,0.6788,0.7859,0.8837,0.9247,1.2183,1.4576,1.4828,1.6272,1.7151,0.0,0.0,1.6199,1.6009,1.5954,1.5703,1.5103,1.4155,1.3517,1.3288,1.2591,1.2398,1.2849,1.3046,1.3104,1.3059,1.314,1.2949,1.2499,1.2765,1.3324,1.4087,1.5409,1.6883,1.851,1.992,2.0867,2.1444,2.2004,2.3249,2.4887,2.5167,2.4863,2.4371,2.5541,2.549,2.4888,2.5502,2.5686,2.564,2.5327,2.4884,2.4357,2.3924,2.3519,2.3123,2.2586,2.2212,2.1822,2.1174,2.1194,2.1224,2.0336,1.9804,1.9428,1.8983,0.0,1.7442,1.787,0.0,1.727,1.6951,0.0,0.0,1.858,1.9832,2.1196,2.2333,2.2956,2.4295,2.6997,2.7499,2.8061,2.9314,3.0007,3.0417,3.0598,3.0447,3.016,2.9747,2.9529,2.9139,2.8441,2.7077,2.6223,2.6002,2.4743,2.4039,2.391,2.4375,2.4607,2.4611,2.5106,2.5312,2.5312,2.5252,2.4542,2.3479,2.3811,2.3277,2.224,2.1947,2.2294,2.3001,2.3001,2.3001,2.2889,0.7249,0.8127,0.9253,1.0462,1.2545,1.4392,1.5284,1.6406,1.7223,0.0,0.0,1.7532,1.8133,1.7804,1.7257,1.6593,1.5591,1.4722,1.4081,1.3607,0.0,1.4034,1.4158,1.4086,1.384,1.3768,1.3477,1.2936,1.3046,1.3452,1.4212,1.5938,1.733,1.8508,2.0753,2.212,2.2743,2.3195,2.406,2.5188,2.5638,2.5369,2.4822,2.5939,2.5671,2.4798,2.5377,2.5398,2.5064,2.4686,2.4685,2.4661,2.3668,2.3769,2.4107,2.3224,2.2885,2.2686,2.2318,2.2174,2.1964,2.1018,2.0775,2.0463,1.9503,1.8988,1.8647,1.8566,0.0,0.0,0.0,0.0,0.0,0.0,1.8113,1.8841,1.9736,1.9966,2.1419,2.5129,2.564,2.6235,2.7729,2.8529,2.9016,2.9219,2.9111,2.9062,2.8967,2.8889,2.8538,2.792,2.6757,2.5955,2.5574,2.4469,2.3857,2.3762,2.4053,2.4302,2.4508,2.4849,2.5111,2.5276,2.4675,2.4081,2.3467,2.3029,2.2645,2.2302,2.2095,2.2422,2.3001,2.3001,2.3001,2.2927,0.8131,0.8737,0.9743,1.1375,1.2817,1.4356,1.6052,1.6845,1.7476,1.8172,1.8231,1.8556,1.9547,1.8975,1.8371,1.7941,1.668,1.5663,1.5,1.4402,1.4294,1.47,1.4833,1.4748,1.4447,1.4255,1.3912,1.3448,1.3346,1.3639,1.4358,1.6342,1.7731,1.8586,2.1395,2.3072,2.3825,2.4347,2.5151,2.6155,2.6634,2.6458,2.598,2.6498,2.6211,2.5576,2.5644,2.528,2.4767,2.4293,2.4387,2.4538,2.3553,2.384,2.4344,2.3676,2.3428,2.3286,2.3107,2.2966,2.2681,2.1646,2.147,2.124,2.0063,1.9789,1.9663,1.9295,1.8903,0.0,0.0,0.0,1.6819,1.6724,0.0,1.702,1.7721,1.784,1.9134,2.2613,2.3433,2.42,2.5381,2.6346,2.7113,2.7649,2.7703,2.7927,2.8344,2.8118,2.7743,2.7217,2.6184,2.5507,2.5176,2.4247,2.3811,2.3843,2.394,2.4153,2.4446,2.4673,2.4921,2.5146,2.4484,2.4068,2.3804,2.2891,2.2567,2.2655,2.2546,2.2706,2.3001,2.3001,2.3088,2.3123,0.969,0.9841,1.0284,1.1585,1.3003,1.489,1.7526,1.7944,1.8206,1.8877,1.8791,1.8826,1.9278,1.8775,1.8557,1.8924,1.6969,1.5823,1.6129,1.4687,1.3941,1.4206,1.4669,1.4874,1.4797,1.4442,1.4238,1.4057,1.3674,1.3782,1.4358,1.6342,1.7789,1.8807,2.1568,2.3242,2.4064,2.5037,2.6603,2.8414,2.8428,2.8152,2.7633,2.6892,2.6968,2.7368,2.6214,2.5401,2.4858,2.4594,2.4144,2.379,2.4067,2.3959,2.3802,2.4091,2.3934,2.359,2.3274,2.3555,2.3668,2.245,2.2007,2.1743,2.1174,2.0643,2.0262,2.0262,2.0289,1.9869,1.835,1.814,0.0,0.0,0.0,0.0,0.0,1.6686,1.7398,1.9152,2.0789,2.1898,2.2114,2.3336,2.4743,2.6241,2.6477,2.6986,2.7971,2.7148,2.6445,2.5968,2.5048,2.4552,2.4518,2.4059,2.3891,2.399,2.4001,2.4073,2.4202,2.4634,2.479,2.4825,2.5111,2.5075,2.473,2.4288,2.3913,2.3508,2.3128,2.299,2.3001,2.3001,2.3296,2.3673,1.072,1.1211,1.1895,1.3219,1.4086,1.5305,1.7482,1.8408,1.9133,1.9835,2.0249,2.0708,2.128,2.1029,2.0532,1.987,1.8707,1.7749,1.7152,1.6919,1.6716,1.6529,1.6806,1.6582,1.5791,1.5589,1.5026,1.4093,1.4057,1.4131,1.4358,0.0,0.0,0.0,2.1697,2.3905,2.5634,2.6475,2.7711,2.9053,2.8668,2.8412,2.814,2.7058,2.6345,2.5912,2.6284,2.5778,2.4945,2.4853,2.4589,2.4262,2.4009,2.3979,2.3988,2.3796,2.4229,2.4722,2.4627,2.5096,2.528,2.391,2.3555,2.3114,2.1649,2.1428,2.133,2.0602,2.0623,2.0374,1.8966,1.8374,0.0,0.0,0.0,0.0,0.0,1.5797,1.6064,1.6617,1.8682,2.0082,2.014,2.0707,2.1671,2.3088,2.3575,2.4308,2.5563,2.6064,2.6129,2.5711,2.5505,2.5303,2.5035,2.4879,2.4705,2.4519,2.4519,2.4542,2.461,2.4754,2.4921,2.5135,2.4881,2.4801,2.473,2.3987,2.3638,2.3601,2.3512,2.3444,2.3449,2.3121,2.3307,2.3738,1.1576,1.2535,1.3484,1.4346,1.5284,1.6402,1.7935,1.9135,2.015,2.0912,2.173,2.2255,2.2332,2.2277,2.1704,2.0304,1.9527,1.8799,1.8035,1.824,1.8306,1.8039,1.8328,1.8003,1.6973,1.6596,1.5801,1.4489,1.4374,1.4407,0.0,0.0,0.0,0.0,2.1566,2.3994,2.6442,2.7126,2.8369,2.9753,2.89,2.8698,2.8757,2.7508,2.6563,2.598,2.6803,2.6332,2.5314,2.5308,2.5054,2.4734,2.4593,2.452,2.4435,2.4121,2.4727,2.5494,2.5476,2.5944,2.6175,2.4946,2.4665,2.4241,2.2679,2.2559,2.2589,2.1868,2.1607,2.1151,2.0058,1.9088,1.8157,0.0,0.0,0.0,0.0,1.6072,1.5865,1.5865,1.705,1.7825,1.7745,1.8232,1.9187,2.0654,2.1632,2.2952,2.4761,2.5685,2.6087,2.5885,2.5933,2.5765,2.5312,2.5312,2.5111,2.479,2.479,2.4718,2.461,2.4718,2.4849,2.4909,2.4683,2.4602,2.4539,2.3773,2.353,2.3612,2.365,2.3694,2.3673,2.358,2.3831,2.4312,1.2409,1.3854,1.5046,1.5062,1.6559,1.807,1.8911,2.0167,2.1293,2.2018,2.3123,2.3428,2.233,2.2511,2.2041,2.0394,1.9479,1.8924,1.8743,1.871,1.866,1.8654,1.915,1.9028,1.8167,1.7439,1.6455,1.524,1.4669,1.4661,0.0,0.0,0.0,0.0,2.1192,2.3486,2.6384,2.7001,2.8515,3.0409,2.9232,2.9073,2.9421,2.8203,2.7642,2.7521,2.7712,2.7004,2.5964,2.5973,2.5567,2.5144,2.5743,2.5512,2.5007,2.5007,2.5457,2.5934,2.5788,2.6205,2.6482,2.5621,2.5395,2.5135,2.4263,2.3998,2.3943,2.3909,2.3176,2.2295,2.1559,2.0275,1.9058,0.0,0.0,0.0,1.8037,1.731,1.6739,1.6698,1.5966,1.5325,1.5131,1.5985,1.7302,1.9055,2.0654,2.2702,2.5409,2.5867,2.6154,2.6372,2.6178,2.5829,2.5348,2.5324,2.5111,2.479,2.4825,2.461,2.4236,2.4646,2.461,2.4261,2.461,2.4574,2.42,2.381,2.3626,2.3645,2.3754,2.3782,2.3858,2.4355,2.4843,2.524,1.4106,1.5737,1.7128,1.7652,1.8257,1.8944,1.9704,2.1451,2.2611,2.234,2.3437,2.3813,2.2671,2.2584,2.2138,2.0887,2.0505,2.0077,1.9564,1.9688,1.9705,1.949,1.9736,1.9469,1.8649,1.8134,1.7197,1.5798,1.57,1.563,1.5657,0.0,0.0,0.0,0.0,2.3105,2.5708,2.6733,2.7933,2.9203,2.9319,2.9131,2.877,2.8522,2.8061,2.7518,2.7677,2.723,2.6628,2.7082,2.6524,2.5758,2.6371,2.5853,2.5007,2.5007,2.5741,2.6552,2.6524,2.7303,2.7908,2.7124,2.6516,2.5917,2.5122,2.4868,2.4667,2.4232,2.4107,2.3607,2.1907,2.0676,1.9583,1.8593,0.0,0.0,1.8856,1.8198,1.7423,1.678,1.6145,1.5653,1.536,1.4896,1.5545,1.7701,1.8793,2.0468,2.3042,2.4639,2.5732,2.6154,2.59,2.5779,2.5889,2.5504,2.5111,2.479,2.5052,2.4981,2.4646,2.4754,2.4885,2.4993,2.455,2.4454,2.4633,2.4268,2.4115,2.4167,2.4623,2.5022,2.5317,2.5087,2.5117,2.5199,1.519,1.6904,1.8444,1.9287,1.9725,2.0158,2.0908,2.2227,2.314,2.3152,2.3986,2.4162,2.3044,2.2942,2.2443,2.1185,2.0859,2.0542,2.0215,2.0277,2.0272,2.0117,2.0289,1.9997,1.9136,1.8522,1.7653,1.6532,1.6112,1.6,1.6145,0.0,0.0,0.0,0.0,2.2536,2.538,2.6958,2.8158,2.9016,2.9145,2.9102,0.0,2.8449,2.8161,2.7961,2.7492,2.7084,2.6951,2.7839,2.7317,2.6443,2.7341,2.6777,2.5783,2.5783,2.6439,2.7185,2.7185,2.8111,2.8862,2.8154,2.7896,2.7591,2.6749,2.6275,2.5929,2.5599,2.5071,2.4363,2.3347,2.1962,2.0753,2.0125,1.9583,1.9453,2.0275,1.9353,1.8238,1.7391,1.6677,1.6038,1.545,1.4477,1.4825,1.7058,1.7914,1.956,2.2383,2.4098,2.5298,2.5959,2.6094,2.6046,2.5745,2.5685,2.5433,2.5016,2.5218,2.5111,2.479,2.4957,2.4945,2.479,2.437,2.4236,2.4271,2.4104,2.4039,2.4139,2.4912,2.5469,2.5821,2.5288,2.5067,2.5057,1.6149,1.7741,1.9276,2.0303,2.084,2.1385,2.2207,2.2739,2.3308,2.4019,2.4391,2.4224,2.3298,2.3165,2.2631,2.1347,2.0875,2.0687,2.0781,2.066,2.0586,2.0584,2.0799,2.0494,1.9543,1.8749,1.7978,1.7281,1.6355,1.6171,0.0,0.0,0.0,0.0,0.0,0.0,2.5198,2.721,2.8485,2.9102,2.89,2.9073,2.9349,2.8246,2.8187,2.8534,2.727,2.6806,2.6994,2.8186,2.7794,2.7023,2.8215,2.7737,2.6806,2.6806,2.7171,2.7579,2.7579,2.8507,2.9348,2.8774,2.9102,2.939,2.857,2.7802,2.7229,2.7229,2.601,2.4945,2.4909,2.3343,2.2045,2.1923,2.1371,2.1143,2.1648,2.0527,1.9283,1.8278,1.7341,0.0,1.5665,1.4593,1.4837,1.6903,1.7673,1.9419,2.2495,2.3813,2.4846,2.5714,2.6366,2.6297,2.5528,2.5829,2.5793,2.5408,2.5277,2.5087,2.479,2.5004,2.4754,2.4189,2.408,2.3895,2.3701,2.3776,2.3858,2.4065,2.4854,2.54,2.5686,2.4988,2.469,2.4605,1.7881,1.9056,2.0118,2.0864,2.1101,2.1614,2.2915,2.3547,2.3925,2.4092,2.3745,2.342,2.3216,2.2326,2.1664,2.1388,2.1101,2.103,2.1265,2.1053,2.0964,2.1074,2.1028,2.0582,1.9767,1.9343,1.8633,1.7629,1.7278,1.7102,0.0,0.0,0.0,0.0,0.0,0.0,2.4949,2.6325,2.7187,2.7767,2.8958,2.9218,2.8826,2.8594,2.8607,2.8534,2.727,2.6806,2.6895,2.7623,2.7403,2.6936,2.7665,2.7389,2.6806,2.6806,2.6852,2.6953,2.6953,2.7882,2.8812,2.8727,2.9122,2.956,2.939,2.8357,2.7451,2.7451,2.6756,2.583,2.464,2.3087,2.1962,2.1845,2.2105,2.2103,2.1387,2.1422,2.0932,1.9283,1.7912,1.6924,1.6511,1.526,1.5274,1.7204,1.7643,1.9037,2.1741,2.3045,2.4257,2.5518,2.5564,2.5901,2.6597,2.5853,2.5624,2.5949,2.5218,2.4861,2.479,2.4189,2.3995,2.4152,2.3482,2.3567,2.4178,2.4304,2.4814,2.5494,2.5103,2.4999,2.4988,2.4241,2.3637,2.3188,1.9067,1.9966,2.0843,2.1327,2.1624,2.2068,2.2845,2.3119,2.345,2.4079,2.3606,2.3323,2.3635,2.2876,2.2312,2.2269,2.1909,2.1724,2.1821,2.1431,2.1211,2.1205,2.1218,2.0939,2.0341,1.9936,1.9636,1.9528,1.873,1.8553,1.8974,1.8666,1.9212,2.0409,0.0,2.3252,2.5047,2.5745,2.6733,2.7924,2.8584,2.9131,2.9514,2.9245,2.9331,2.9338,2.7804,2.7273,2.7316,2.7594,2.7316,2.6895,2.7507,2.7302,2.6806,2.6806,2.6806,2.6852,2.7186,2.7969,2.8709,2.8709,2.9145,2.9613,2.9613,2.8822,2.8057,2.803,2.7484,2.6578,2.5136,2.4176,2.3519,2.3147,2.3087,2.2904,2.2501,2.2115,2.1403,2.009,1.8674,1.7538,1.6781,1.6115,1.6102,1.703,1.7861,1.9279,2.1447,2.2794,2.4052,2.5264,2.5577,2.5841,2.6057,2.5841,2.5841,2.6093,2.5466,2.5208,2.5243,2.4582,2.4408,2.457,2.3935,2.4026,2.4669,2.4788,2.5262,2.5853,2.5549,2.5422,2.5295,2.4188,2.3584,2.3256,2.0193,2.0737,2.1346,2.1901,2.2056,2.2238,2.2559,2.2372,2.2669,2.4006,2.35,2.3296,2.4014,2.3445,2.3002,2.301,2.252,2.2231,2.2282,2.1898,2.1575,2.1431,2.1503,2.1383,2.1093,2.0523,2.0577,2.1201,1.9979,1.976,2.0428,2.0015,2.0311,2.127,2.2994,2.4298,2.5231,2.5497,2.6619,2.8196,2.8439,2.9112,2.9934,2.9665,2.9722,2.9757,2.8106,2.7579,2.7681,2.755,2.72,2.6866,2.7374,2.7186,2.6806,2.6806,2.6806,2.6895,2.7389,2.8086,2.868,2.8507,2.9058,2.9566,2.9421,2.8892,2.8363,2.8316,2.7742,2.6933,2.5774,2.5363,2.5052,2.46,2.4106,2.3781,2.3688,2.275,2.1742,2.0726,1.9438,1.8083,1.6862,1.7052,1.7108,1.6723,1.7961,1.9487,2.1244,2.2557,2.3727,2.4826,2.5539,2.5768,2.5469,2.5804,2.6104,2.6282,2.5661,2.5501,2.5693,2.5089,2.4844,2.4882,2.4514,2.4626,2.5054,2.5282,2.5557,2.5853,2.5549,2.5549,2.5506,2.3983,2.3497,2.3507,2.1565,2.1313,2.1421,2.2742,2.2155,2.1691,2.2265,2.186,2.2109,2.3892,2.3094,2.2834,2.396,2.3052,2.2485,2.2705,2.2194,2.2052,2.2523,2.2509,2.237,2.2123,2.2006,2.1935,2.1973,2.1159,2.0878,2.1194,2.0415,1.9965,1.9856,1.9835,2.0642,2.2219,2.3517,2.4493,2.5229,2.5729,2.6493,2.755,2.9052,2.9334,2.8894,2.9271,2.9188,2.8678,2.7358,2.7244,2.7623,2.707,2.6837,2.682,2.6852,2.6837,2.6806,2.6806,2.6806,2.682,2.6852,2.7752,2.8536,2.7942,2.8696,2.945,2.8898,2.821,2.7709,2.7701,2.7111,2.6508,2.6161,2.5793,2.5486,2.5248,2.5151,2.4825,2.3978,2.3392,2.2587,2.1213,1.9947,1.8611,1.7047,1.8039,1.8097,1.6453,1.7705,1.9325,2.1113,2.1934,2.2847,2.3995,2.4844,2.5494,2.5952,2.5693,2.6026,2.6983,2.5625,2.5237,2.5677,2.4893,2.455,2.4555,2.4522,2.4763,2.5223,2.5675,2.5863,2.577,2.4498,2.4413,2.4775,2.2916,2.253,2.2838,2.1705,2.1745,2.1827,2.2133,2.1759,2.1525,2.1839,2.1922,2.232,2.3418,2.3147,2.3296,2.4502,2.3906,2.3412,2.3476,2.2916,2.2639,2.2781,2.2775,2.2729,2.2615,2.2555,2.2691,2.3048,2.2728,2.2655,2.2883,2.2965,2.2856,2.2616,2.2792,2.3144,2.366,2.4213,2.4912,2.5728,2.6286,2.7349,2.8704,2.9709,3.0438,3.088,3.0461,3.0365,3.0199,2.8358,2.7615,2.7445,2.6945,2.6806,2.6806,2.6806,2.6806,2.6806,2.6806,2.6806,2.6866,2.7244,2.7723,2.8057,2.7768,2.7808,2.7869,2.7612,2.7037,2.6583,2.6547,2.6226,2.605,2.6333,2.614,2.5843,2.5528,2.5481,2.5284,2.4703,2.3874,2.295,2.1923,2.0368,1.8991,1.8004,1.8475,1.8517,1.7787,1.9099,2.0349,2.1277,2.2167,2.3419,2.4993,2.5265,2.574,2.6534,2.617,2.6353,2.7109,2.5947,2.5712,2.6147,2.5304,2.4942,2.4953,2.5207,2.5437,2.5622,2.5819,2.5895,2.5853,2.5285,2.5242,2.5338,2.3907,2.381,2.4317,2.2068,2.2105,2.2185,2.2304,2.1812,2.1482,2.1768,2.1941,2.2307,2.3106,2.3215,2.3662,2.4883,2.4559,2.4174,2.4007,2.3516,2.3136,2.2909,2.2888,2.2888,2.2888,2.2888,2.3172,2.3762,2.3719,2.386,2.4218,2.4585,2.4681,2.4515,2.4852,2.4941,2.4824,2.5013,2.555,2.639,2.6796,2.7923,2.9564,3.0175,3.1025,3.1806,3.088,3.0464,3.0101,2.8143,2.7117,2.6651,2.6535,2.6515,2.6559,2.6747,2.6806,2.6806,2.6806,2.6806,2.6881,2.7331,2.755,2.7666,2.7478,2.7111,2.6736,2.6568,2.6042,2.5618,2.5706,2.581,2.5975,2.6411,2.6339,2.6111,2.5824,2.5674,2.5519,2.5279,2.4295,2.3369,2.2749,2.1144,1.9769,1.892,1.907,1.9089,1.8658,2.0274,2.1336,2.1475,2.2299,2.3638,2.5592,2.5646,2.605,2.6847,2.6491,2.6593,2.7135,2.624,2.6028,2.6475,2.5741,2.5423,2.5404,2.5753,2.5895,2.5895,2.5895,2.5895,2.5895,2.5686,2.5728,2.577,2.4637,2.4659,2.521,2.2912,2.245,2.2437,2.3838,2.2591,2.1602,2.2185,2.1778,2.1846,2.3052,2.3215,2.3662,2.4883,2.4751,2.4439,2.4033,2.3698,2.332,2.2931,2.2888,2.2888,2.2888,2.2888,2.3215,2.3891,2.3773,2.402,2.47,2.4569,2.4498,2.4511,2.5039,2.5407,2.5591,2.5877,2.6441,2.7167,2.7111,2.8021,2.9574,3.0433,3.0771,3.0636,2.9894,2.8722,2.7278,2.5916,2.5217,2.5019,2.5614,2.5818,2.5934,2.6602,2.6806,2.6806,2.6806,2.6806,2.6806,2.682,2.7258,2.755,2.6953,2.681,2.6638,2.6034,2.5382,2.5034,2.5524,2.6084,2.6487,2.6499,2.6339,2.6213,2.6201,2.5863,2.5606,2.5594,2.4743,2.3925,2.3548,2.2457,2.1159,1.9535,2.0105,1.9985,1.8597,2.0791,2.2056,2.1707,2.2013,2.317,2.5259,2.5759,2.6233,2.6818,2.6507,2.668,2.7214,2.6249,2.6028,2.6487,2.6093,2.5895,2.5895,2.5895,2.5895,2.5895,2.5895,2.5895,2.5812,2.5168,2.5338,2.577,2.4637,2.4509,2.4903,2.3382,2.3455,2.3312,2.2945,2.2414,2.1952,2.1711,2.2226,2.2768,2.3161,2.392,2.4584,2.4964,2.4353,2.3943,2.4005,2.3315,2.2899,2.2917,2.2888,2.2888,2.2888,2.2888,2.3215,2.3876,2.3851,2.3956,2.4157,2.5202,2.6176,2.703,2.7197,2.7201,2.7051,2.7112,2.7289,2.7533,2.8439,2.9049,2.9521,3.0427,3.0499,3.0027,2.9482,2.8544,2.7369,2.6228,2.5292,2.4675,2.4995,2.4849,2.4675,2.5789,2.6442,2.6806,2.6806,2.6806,2.6806,2.6806,2.6924,2.7041,2.6837,2.6184,2.5534,2.5314,2.4453,2.4019,2.5317,2.546,2.5573,2.6361,2.6339,2.6213,2.6213,2.5875,2.5606,2.5606,2.4882,2.4166,2.3583,2.2863,2.2152,2.1449,2.1114,2.1053,2.1271,2.1568,2.1758,2.1766,2.3161,2.4565,2.5806,2.6437,2.7003,2.7554,2.7157,2.6862,2.6734,2.6146,2.595,2.6093,2.5979,2.5895,2.5895,2.5895,2.5895,2.5895,2.5895,2.5895,2.5895,2.5686,2.5728,2.5812,2.5115,2.5359,2.5988,2.3561,2.3822,2.373,2.2717,2.2607,2.2348,2.1521,2.2226,2.2863,2.2863,2.3526,2.4082,2.4286,2.3775,2.3671,2.4271,2.3782,2.338,2.3287,2.3055,2.2888,2.2888,2.3142,2.3345,2.3528,2.4239,2.437,2.3891,2.5398,2.6502,2.7305,2.7564,2.7491,2.7184,2.7277,2.7363,2.7478,2.8401,2.9035,2.9427,2.9881,2.9768,2.9277,2.8435,2.7463,2.6404,2.5394,2.4537,2.3952,2.434,2.421,2.4109,2.5411,2.6094,2.646,2.6733,2.6806,2.6806,2.6806,2.6806,2.6806,2.6806,2.5892,2.4934,2.4673,2.4167,2.4086,2.5335,2.5444,2.5549,2.6249,2.6154,2.598,2.598,2.5688,2.55,2.55,2.5105,2.4633,2.4237,2.3595,2.3165,2.3008,2.2431,2.2248,2.2702,2.3145,2.3191,2.281,2.4029,2.5313,2.6677,2.6788,2.7249,2.8122,2.7196,2.6723,2.6775,2.6177,2.5895,2.5895,2.5895,2.5895,2.5895,2.5895,2.5895,2.5895,2.5895,2.5895,2.5895,2.5895,2.5895,2.5853,2.5549,2.579,2.6332,2.3555,2.3778,2.377,2.3111,2.3137,2.2863,2.1692,2.2004,2.2386,2.2478,2.2412,2.2578,2.3201,2.32,2.3596,2.4743,2.4733,2.4447,2.392,2.3316,2.296,2.296,2.3615,2.363,2.2917,2.4762,2.5154,2.4022,2.528,2.5905,2.5937,2.6562,2.6717,2.6461,2.67,2.6974,2.7199,2.7484,2.8273,2.9227,2.8862,2.8583,2.8232,2.6962,2.5777,2.4656,2.3791,2.3253,2.3084,2.3746,2.3963,2.4181,2.5483,2.5876,2.6006,2.6631,2.6806,2.6806,2.6806,2.6806,2.6806,2.6806,2.592,2.4899,2.4231,2.445,2.4933,2.5502,2.5893,2.6164,2.6166,2.59,2.5654,2.5618,2.5454,2.5336,2.5264,2.5288,2.53,2.5264,2.4612,2.4192,2.4181,2.3929,2.3616,2.3257,2.519,2.5856,2.4706,2.4729,2.5695,2.7615,2.6948,2.7154,2.8471,2.6816,2.6351,2.7103,2.6302,2.5937,2.5937,2.5937,2.5937,2.5937,2.5895,2.5895,2.5895,2.5895,2.5895,2.5895,2.5895,2.5895,2.5895,2.5895,2.5895,2.6021,2.4015,2.4365,2.4254,2.3192,2.3474,2.3631,2.2899,2.2896,2.3316,2.4251,2.3569,2.3215,2.3825,2.382,2.3901,2.4182,2.3688,2.3519,2.3876,2.3746,2.3659,2.3659,2.4244,2.407,2.2917,2.4302,2.5154,2.5367,2.6141,2.6794,2.7246,2.7405,2.761,2.7848,2.8032,2.8064,2.798,2.8646,2.8535,2.7857,2.7876,2.7133,2.6021,2.6257,2.5591,2.4469,2.4238,2.3958,2.3775,2.4428,2.4631,2.481,2.6141,2.6547,2.6576,2.6736,2.6806,2.6806,2.6806,2.6806,2.6806,2.6806,2.6245,2.5589,2.5174,2.4833,2.488,2.5658,2.5651,2.5611,2.5906,2.6242,2.6271,2.5679,2.5756,2.5624,2.4784,2.5059,2.5155,2.4759,2.5024,2.5194,2.5052,2.4525,2.4553,2.532,2.5301,2.5753,2.6848,2.6949,2.7044,2.7226,2.7747,2.802,2.8042,2.7278,2.6652,2.6218,2.629,2.6373,2.6373,2.6373,2.6373,2.6332,2.6021,2.5895,2.5895,2.5895,2.5895,2.5895,2.5895,2.5895,2.5895,2.5895,2.5895,2.6021,2.4511,2.4808,2.4623,2.35,2.4096,2.4367,2.3352,2.3372,2.3675,2.4126,2.3356,2.2903,2.3228,2.3096,2.3045,2.3182,2.3555,2.394,2.4326,2.4326,2.4326,2.4326,2.4788,2.4599,2.3607,2.4705,2.5403,2.5629,2.5672,2.6084,2.6837,2.6837,2.7141,2.7664,2.7995,2.8082,2.7984,2.8336,2.8073,2.7365,2.6911,2.6169,2.5364,2.5574,2.5206,2.4573,2.4626,2.4493,2.4384,2.4747,2.4824,2.4984,2.601,2.6355,2.6413,2.6718,2.6806,2.6806,2.6806,2.6806,2.6727,2.6447,2.6138,2.5786,2.5431,2.5161,2.5128,2.5745,2.5617,2.5581,2.6027,2.6285,2.6275,2.59,2.5985,2.5817,2.4987,2.5456,2.5894,2.5926,2.6612,2.7119,2.7118,2.6819,2.6664,2.6859,2.6673,2.6872,2.7666,2.7906,2.7881,2.7486,2.7544,2.7563,2.7574,2.7103,2.6734,2.6498,2.6487,2.661,2.6816,2.6816,2.6693,2.6487,2.6249,2.6052,2.5895,2.5895,2.5895,2.5895,2.5895,2.5895,2.5895,2.5895,2.5895,2.6021,2.4892,2.5175,2.4997,2.3901,2.4572,2.4847,2.3619,2.3582,2.3649,2.3444,2.2739,2.228,2.2305,2.1996,2.193,2.224,2.3793,2.48,2.4878,2.4926,2.4955,2.4955,2.5325,2.5183,2.4415,2.5295,2.5634,2.5412,2.4915,2.5067,2.5803,2.5905,2.6327,2.7082,2.7458,2.771,2.7849,2.7646,2.7465,2.7178,2.6218,2.5659,2.5381,2.5126,2.4975,2.4955,2.5023,2.5009,2.4984,2.5172,2.5245,2.535,2.6075,2.6274,2.6329,2.6842,2.697,2.691,2.6835,2.6806,2.6688,2.6292,2.61,2.5952,2.5617,2.5581,2.5658,2.5838,2.5794,2.5882,2.6371,2.6348,2.6226,2.6105,2.6166,2.6021,2.5394,2.6126,2.6913,2.7416,2.8426,2.9118,2.9153,2.9143,2.8772,2.7977,2.8222,2.8234,2.7822,2.827,2.8311,2.7933,2.7126,2.6816,2.7103,2.6693,2.6693,2.7103,2.6764,2.6857,2.7319,2.7319,2.7103,2.6693,2.6569,2.629,2.5979,2.5937,2.5895,2.5895,2.5979,2.5937,2.5895,2.5979,2.5937,2.6032,2.4977,2.5508,2.5465,2.3971,2.4273,2.4664,2.4483,2.3621,2.3326,2.4347,2.3087,2.2179,2.228,2.1996,2.2024,2.256,2.3805,2.4657,2.4878,2.5357,2.5633,2.5633,2.5983,2.5612,2.443,2.4817,2.5182,2.5412,2.5812,2.594,2.5818,2.6384,2.7038,2.7765,2.776,2.8088,2.8636,2.848,2.773,2.6624,2.6447,2.5799,2.4951,2.5404,2.5607,2.5647,2.5647,2.5647,2.5807,2.6883,2.726,2.7409,2.8297,2.8425,2.8217,2.8039,2.7777,2.7434,2.6924,2.6806,2.691,2.7312,2.7037,2.6673,2.6731,2.672,2.6574,2.6211,2.6193,2.6382,2.6763,2.6944,2.682,2.6202,2.649,2.6444,2.5509,2.6571,2.7284,2.6889,2.8705,2.9623,2.8641,2.8669,2.8678,2.8487,2.8076,2.8005,2.8366,2.8462,2.8311,2.7933,2.776,2.733,2.661,2.6528,2.6528,2.661,2.694,2.7319,2.78,2.78,2.776,2.7638,2.6828,2.6445,2.6362,2.6052,2.5895,2.5937,2.6249,2.6218,2.5937,2.629,2.6177,2.6034,2.4948,2.5272,2.519,2.4218,2.4445,2.4778,2.4654,2.4077,2.3738,2.4096,2.3244,2.26,2.2677,2.2015,2.201,2.3082,2.3733,2.4309,2.485,2.563,2.6078,2.6078,2.5941,2.5518,2.4744,2.4859,2.5188,2.5659,2.5588,2.5826,2.6341,2.6297,2.6927,2.809,2.748,2.7703,2.846,2.7455,2.6664,2.6035,2.5734,2.5257,2.4856,2.5562,2.583,2.5883,2.6211,2.6341,2.6474,2.7376,2.7695,2.7842,2.8641,2.8799,2.8681,2.8497,2.8105,2.7637,2.7374,2.7041,2.6924,2.755,2.7478,2.7292,2.7359,2.739,2.7224,2.6706,2.6654,2.6955,2.7698,2.7896,2.7938,2.7926,2.8035,2.795,2.7575,2.8368,2.9167,2.9562,3.0825,3.1364,3.0629,3.0135,2.9638,2.9059,2.849,2.8246,2.8498,2.851,2.8311,2.7933,2.7423,2.7074,2.6899,2.6652,2.6734,2.7249,2.7452,2.7788,2.8243,2.8243,2.8082,2.7893,2.7452,2.7115,2.6857,2.6663,2.658,2.6622,2.6816,2.6775,2.6614,2.6853,2.6827,2.6736,2.492,2.5118,2.502,2.4408,2.4679,2.4892,2.4578,2.4363,2.4136,2.3736,2.3392,2.3125,2.3056,2.231,2.2328,2.3612,2.3825,2.4231,2.4988,2.572,2.6136,2.619,2.5743,2.5341,2.5005,2.5005,2.5189,2.5574,2.5224,2.5584,2.6599,2.6221,2.6876,2.8278,2.7474,2.7507,2.8101,2.6626,2.5875,2.5696,2.5085,2.489,2.5032,2.5656,2.5948,2.6069,2.6621,2.6881,2.7099,2.771,2.8029,2.8219,2.8756,2.89,2.8899,2.8814,2.844,2.8047,2.8117,2.7708,2.7374,2.7985,2.8029,2.7949,2.7943,2.7958,2.782,2.7237,2.7248,2.7679,2.8615,2.879,2.8948,2.9407,2.9414,2.9385,2.9478,3.0044,3.0741,3.1604,3.2415,3.2605,3.1924,3.1293,3.0481,2.9496,2.8855,2.851,2.851,2.851,2.8351,2.8042,2.7156,2.6857,2.7185,2.6857,2.7074,2.7893,2.7893,2.8122,2.851,2.851,2.8311,2.8042,2.7933,2.7708,2.736,2.7226,2.7185,2.7237,2.7434,2.748,2.7415,2.7702,2.764,2.7547,2.4977,2.5398,2.5439,2.4452,2.4679,2.4863,2.4379,2.4203,2.4019,2.3749,2.3684,2.3526,2.3216,2.3107,2.3337,2.4001,2.4352,2.4803,2.5412,2.5522,2.5674,2.5921,2.5647,2.5341,2.5005,2.5005,2.4873,2.4584,2.519,2.5651,2.6082,2.6594,2.7376,2.8383,2.8312,2.8101,2.7781,2.7094,2.645,2.5821,2.5216,2.517,2.5481,2.577,2.6042,2.6324,2.6659,2.7157,2.7739,2.839,2.9,2.9479,2.9525,2.9524,2.9463,2.917,2.9043,2.9056,2.9363,2.9015,2.8695,2.9291,2.9044,2.8656,2.8706,2.8643,2.8404,2.7866,2.8172,2.8744,2.932,2.9414,2.9433,2.9471,2.98,3.0036,3.0046,3.0677,3.1002,3.0656,3.1985,3.2165,3.0362,3.0609,3.0481,2.9496,2.8855,2.851,2.851,2.851,2.8471,2.8471,2.7603,2.7185,2.7185,2.7185,2.74,2.7893,2.7893,2.8122,2.851,2.851,2.8471,2.8431,2.8042,2.7881,2.78,2.736,2.7185,2.7272,2.8169,2.8261,2.8068,2.8927,2.874,2.8095,2.4911,2.517,2.505,2.4297,2.4926,2.5193,2.4321,2.4442,2.4498,2.4008,2.3478,2.3378,2.401,2.3204,2.3297,2.4959,2.4516,2.4585,2.5564,2.5632,2.5541,2.5355,2.5244,2.5131,2.5005,2.5005,2.505,2.5108,2.5384,2.5477,2.5412,2.6385,2.7052,2.7419,2.7184,2.723,2.7413,2.6217,2.5564,2.5355,2.5507,2.5629,2.5804,2.6462,2.6903,2.7216,2.7553,2.7934,2.8419,2.9058,2.9392,2.9652,2.9836,2.9909,2.9888,2.9763,2.9864,3.0056,3.019,2.9493,2.8826,2.9436,2.9421,2.9361,2.9743,2.9809,2.9696,2.9477,2.9584,2.992,3.0524,3.0321,3.0193,3.0552,3.0767,3.0945,3.1144,3.1788,3.21,3.1716,3.2006,3.1617,3.0157,2.9972,2.9678,2.8882,2.8618,2.851,2.851,2.851,2.851,2.851,2.8179,2.7898,2.7626,2.7615,2.7708,2.7893,2.8163,2.8351,2.851,2.851,2.851,2.8471,2.8351,2.8271,2.8283,2.8099,2.8208,2.8556,2.888,2.9154,2.9331,2.9746,2.9686,2.9406,2.4622,2.4543,2.4347,2.4122,2.4736,2.4997,2.42,2.4596,2.473,2.4,2.3437,2.3498,2.4542,2.3541,2.3582,2.5536,2.4723,2.4547,2.5539,2.5827,2.5767,2.5317,2.5276,2.5195,2.5005,2.5005,2.5103,2.5341,2.5163,2.5051,2.5085,2.606,2.6652,2.6849,2.6985,2.7197,2.7333,2.6083,2.5575,2.5588,2.5805,2.6009,2.6256,2.6948,2.7337,2.7603,2.8053,2.8383,2.8713,2.9059,2.942,2.9736,2.9558,2.9633,2.9792,2.9807,3.0092,3.0462,3.0568,2.9973,2.9421,3.006,3.019,3.0241,3.0446,3.067,3.0652,3.0201,3.0418,3.0812,3.1219,3.111,3.1097,3.1504,3.1716,3.1887,3.2062,3.2448,3.2497,3.1998,3.1672,3.0966,2.9669,2.9462,2.9157,2.855,2.851,2.851,2.851,2.851,2.851,2.851,2.8667,2.8642,2.8319,2.8165,2.8165,2.8319,2.8435,2.851,2.851,2.851,2.851,2.851,2.851,2.851,2.8522,2.8691,2.8979,2.9328,2.9665,3.0013,3.0356,3.0593,3.0575,3.0358,2.4096,2.3613,2.3391,2.3979,2.4096,2.4109,2.4083,2.4609,2.4646,2.3646,2.3613,2.3966,2.4724,2.4254,2.4375,2.5587,2.5012,2.4845,2.5372,2.6096,2.6331,2.5914,2.5887,2.5615,2.5018,2.5005,2.5005,2.5005,2.4394,2.4488,2.5213,2.5756,2.6324,2.6947,2.8147,2.8316,2.7664,2.705,2.6793,2.6738,2.6145,2.6267,2.6823,2.7097,2.7203,2.7278,2.7967,2.8363,2.8549,2.831,2.9054,2.9875,2.8611,2.8616,2.9101,2.9116,2.9581,3.0187,3.0536,3.0627,3.0742,3.1366,3.1495,3.1325,3.0648,3.0993,3.1043,2.9785,3.0459,3.13,3.13,3.1775,3.2205,3.2205,3.2467,3.269,3.269,3.2458,3.1931,3.0993,3.0878,3.028,2.8649,2.9018,2.9157,2.855,2.851,2.851,2.851,2.851,2.851,2.851,2.9027,2.9304,2.9304,2.8775,2.8775,2.9292,2.8763,2.851,2.851,2.851,2.8522,2.8522,2.8522,2.8522,2.8558,2.9088,2.9304,2.9412,3.0458,3.0922,3.0995,3.1512,3.135,3.0904,2.4635,2.4599,2.4344,2.4018,2.5058,2.548,2.4161,2.4888,2.5332,2.4646,2.3604,2.3506,2.5045,2.3979,2.3939,2.5959,2.5449,2.5279,2.5849,2.6319,2.6327,2.5767,2.5858,2.5615,2.5018,2.5005,2.5005,2.5005,2.4829,2.4845,2.508,2.6083,2.6674,2.6866,2.7663,2.7878,2.7664,2.705,2.6793,2.682,2.7081,2.7026,2.6833,2.7363,2.7711,2.7856,2.7652,2.8024,2.8719,2.9078,2.9151,2.9076,2.8896,2.9428,3.0051,2.9788,3.0704,3.1743,3.1542,3.1495,3.1616,3.2101,3.1654,3.1268,3.1664,3.1726,3.164,3.142,3.1667,3.1911,3.1911,3.1721,3.1558,3.1558,3.185,3.1977,3.1744,3.185,3.1563,3.0585,3.0111,2.9478,2.8585,2.8639,2.8697,2.851,2.851,2.851,2.851,2.851,2.851,2.851,2.9027,2.9484,2.9845,2.9328,2.9136,2.9292,2.8763,2.851,2.8522,2.8895,2.9063,2.9088,2.946,2.9617,2.9629,2.9785,3.0074,3.0434,3.079,3.1151,3.1488,3.1657,3.1617,3.1395,2.4557,2.4409,2.4125,2.3946,2.4823,2.527,2.4361,2.4949,2.5367,2.5044,2.3868,2.3703,2.5498,2.4372,2.4306,2.6374,2.5876,2.5415,2.5297,2.6024,2.6129,2.5298,2.5677,2.5615,2.5018,2.5005,2.5005,2.5005,2.5005,2.5005,2.5032,2.6253,2.6793,2.6833,2.7691,2.8058,2.8017,2.742,2.7311,2.7528,2.7664,2.7488,2.7186,2.7569,2.783,2.7934,2.7483,2.8044,2.9021,2.9031,2.8861,2.881,2.9573,3.0049,3.0276,3.0029,3.0951,3.2001,3.1791,3.1711,3.1872,3.263,3.2141,3.1608,3.2018,3.2139,3.2079,3.191,3.2042,3.2218,3.2218,3.1884,3.1653,3.1653,3.1599,3.1478,3.1289,3.1229,3.0908,3.005,2.96,2.9145,2.855,2.851,2.851,2.851,2.8703,2.8727,2.8522,2.8703,2.8823,2.8823,2.934,2.9869,3.0398,3.0074,2.9917,2.9917,2.9388,2.9136,2.9136,2.946,2.9617,2.9629,2.9941,3.0086,3.011,3.0314,3.0633,3.0946,3.1151,3.1428,3.1705,3.1705,3.1705,3.1661,2.4083,2.3537,2.3256,2.3758,2.39,2.4111,2.4551,2.4801,2.4992,2.4992,2.4229,2.4251,2.5858,2.5041,2.5014,2.6614,2.6141,2.5271,2.4269,2.5408,2.5668,2.4631,2.5376,2.5561,2.5018,2.5005,2.5005,2.5005,2.5059,2.5086,2.5113,2.6335,2.6874,2.6915,2.8085,2.856,2.8478,2.7936,2.8049,2.8547,2.7899,2.7655,2.7717,2.7569,2.7542,2.7492,2.7198,2.8054,2.9236,2.8542,2.8543,2.9073,3.0443,3.053,3.0116,2.9995,3.0715,3.1564,3.1475,3.1489,3.1797,3.2954,3.2744,3.2235,3.1944,3.2268,3.2409,3.1548,3.1766,3.2096,3.2096,3.2059,3.2023,3.2023,3.1505,3.1108,3.1108,3.0582,3.0024,2.9457,2.9341,2.9106,2.855,2.8546,2.8582,2.8582,2.9076,2.916,2.8679,2.9112,2.9364,2.9364,2.9881,3.0386,3.091,3.097,3.097,3.091,3.0338,3.0086,3.0086,3.0134,3.0158,3.0158,3.0206,3.023,3.0266,3.0747,3.0995,3.1043,3.1524,3.1705,3.1705,3.1705,3.1705,3.1705,2.3949,2.3816,2.3647,2.3526,2.4,2.424,2.3876,2.4361,2.4827,2.4992,2.4,2.3822,2.5242,2.4245,2.4045,2.5467,2.5345,2.5083,2.4822,2.4908,2.4858,2.4605,2.4985,2.5127,2.5005,2.5005,2.5005,2.5005,2.5466,2.5697,2.5724,2.6945,2.7515,2.7556,2.8261,2.8343,2.7895,2.7773,2.8071,2.8588,2.7458,2.7303,2.7668,2.6665,2.628,2.6228,2.5689,2.6612,2.8225,2.8969,2.9875,3.0711,3.0562,3.0918,3.1254,3.0508,3.1523,3.2743,3.1944,3.2048,3.2478,3.2777,3.2514,3.2288,3.2475,3.2407,3.2237,3.2042,3.1696,3.1431,3.1431,3.1046,3.0709,3.0709,3.0595,3.052,3.052,2.9986,2.9535,2.9419,2.8961,2.8657,2.851,2.8883,2.9124,2.9124,2.9617,2.9869,2.9749,2.9845,2.9917,2.9917,3.0477,3.0802,3.0922,3.1332,3.1332,3.091,3.0338,3.0086,3.0098,3.0561,3.0742,3.0766,3.1187,3.1368,3.138,3.1488,3.1536,3.1548,3.1657,3.1705,3.1705,3.1705,3.1705,3.1705,2.392,2.3819,2.3671,2.3433,2.3938,2.4285,2.4064,2.4408,2.4858,2.5341,2.4406,2.4176,2.5371,2.4702,2.4413,2.506,2.5022,2.4887,2.4583,2.4591,2.4591,2.4591,2.4863,2.5005,2.5005,2.5276,2.529,2.5005,2.5602,2.6036,2.6362,2.7271,2.7854,2.8125,2.8166,2.8003,2.7664,2.7094,2.7212,2.7721,2.6756,2.6569,2.6808,2.6155,2.5887,2.5846,2.5534,2.6769,2.8736,2.9944,3.0771,3.1192,3.0595,3.0937,3.1451,3.099,3.1732,3.2648,3.2118,3.2234,3.248,3.248,3.2336,3.2241,3.2408,3.235,3.2096,3.1776,3.1455,3.1108,3.0809,3.0507,3.0279,3.0279,3.005,2.9871,2.9871,2.9341,2.8961,2.8961,2.8697,2.8607,2.8871,2.9136,2.94,2.9653,3.017,3.035,3.0098,3.0326,3.0458,3.0458,3.0735,3.1043,3.1296,3.1573,3.1573,3.1296,3.1019,3.0874,3.0855,3.1163,3.1296,3.1308,3.1585,3.1705,3.1705,3.1705,3.1705,3.1705,3.1705,3.1705,3.1705,3.1705,3.1705,3.1705,2.3891,2.373,2.3569,2.3433,2.3728,2.4081,2.4307,2.4429,2.4788,2.5571,2.4859,2.4626,2.5563,2.5279,2.4968,2.4861,2.4861,2.4661,2.4282,2.4577,2.4778,2.4885,2.5066,2.5154,2.5154,2.5629,2.5602,2.5005,2.571,2.6267,2.6644,2.724,2.7813,2.8261,2.7773,2.7501,2.7339,2.6321,2.6299,2.6906,2.6095,2.6002,2.6335,2.5918,2.586,2.605,2.605,2.7528,2.9692,3.088,3.1219,3.1056,3.0568,3.0812,3.1273,3.1178,3.1639,3.2191,3.2083,3.2137,3.2218,3.2218,3.2096,3.2023,3.2023,3.2023,3.1863,3.1307,3.1046,3.0733,3.0241,3.005,2.9973,2.9973,2.9574,2.9275,2.9275,2.8816,2.851,2.851,2.8595,2.8823,2.9256,2.946,2.9749,3.0194,3.0711,3.0819,3.0386,3.0814,3.1055,3.1055,3.1055,3.1259,3.1705,3.1705,3.1705,3.1705,3.1705,3.1705,3.1705,3.1705,3.1705,3.1705,3.1705,3.1705,3.1705,3.1705,3.1705,3.1705,3.1705,3.1705,3.1705,3.1705,3.1705,3.1705,2.3891,2.373,2.3569,2.3433,2.3321,2.3371,2.3671,2.3744,2.4086,2.4984,2.4547,2.439,2.5044,2.4599,2.423,2.423,2.423,2.4413,2.4861,2.5144,2.5505,2.6041,2.5873,2.5778,2.5778,2.5846,2.5602,2.5005,2.6115,2.6457,2.6022,2.6647,2.6955,2.7023,2.6955,2.6647,2.6131,2.5955,2.6579,2.7519,2.5791,2.643,2.8092,2.5942,2.5778,2.6671,2.6671,2.7895,2.9692,3.088,3.0948,3.0513,3.0446,3.0812,3.1192,3.0676,3.1314,3.211,3.1544,3.1789,3.2218,3.2218,3.1776,3.1344,3.1344,3.1344,3.1307,3.1233,3.0355,2.9613,2.9535,2.9118,2.8736,2.8736,2.8657,2.8618,2.8618,2.855,2.851,2.851,2.8919,2.922,2.9292,3.0122,3.0687,3.0814,3.1308,3.1573,3.15,3.156,3.1597,3.1597,3.1597,3.1633,3.1705,3.1705,3.1705,3.1705,3.1705,3.1705,3.1705,3.1705,3.1705,3.1705,3.1705,3.1705,3.1705,3.1705,3.1705,3.1705,3.1705,3.1705,3.1705,3.1705,3.1705,3.1705,2.373,2.3658,2.3569,2.3433,2.3241,2.3198,2.3569,2.3599,2.3807,2.4435,2.4282,2.4217,2.4465,2.4269,2.4344,2.4984,2.5036,2.5171,2.5432,2.5739,2.5881,2.5784,2.5536,2.571,2.6402,2.6063,2.5928,2.6022,2.6535,2.6657,2.643,2.704,2.7311,2.7311,2.6942,2.6644,2.6389,2.6036,2.6212,2.6681,2.5826,2.6349,2.7492,2.6044,2.6253,2.7406,2.8071,2.9034,3.0025,3.0215,3.0554,3.0785,3.0106,3.0758,3.1667,3.1083,3.1504,3.2005,3.115,3.1109,3.1145,3.0544,3.019,3.0037,3.0304,3.0088,2.9935,3.0126,2.9755,2.9302,2.8961,2.8657,2.851,2.851,2.851,2.851,2.851,2.851,2.851,2.851,2.8979,2.9412,2.9713,3.0477,3.0999,3.1332,3.1573,3.1705,3.1705,3.1705,3.1705,3.1705,3.1705,3.1705,3.1705,3.1705,3.1705,3.1705,3.1705,3.1705,3.1705,3.1705,3.1705,3.1705,3.1705,3.1705,3.1705,3.1705,3.1705,3.1705,3.1705,3.1705,3.1705,3.1705,3.1705,3.1705]}]]